<?xml version="1.0" encoding="UTF-8" standalone="no" ?>
<gpx xmlns="http://www.topografix.com/GPX/1/1" xmlns:xsi="http://www.w3.org/2001/XMLSchema-instance" xsi:schemaLocation="http://www.topografix.com/GPX/1/1 http://www.topografix.com/GPX/1/1/gpx.xsd" version="1.1" creator="VisuGPX - https://www.visugpx.com">
  <metadata>
    <name>Villars (la Combe aux Voleurs)</name>
  </metadata>
  <trk>
    <name><![CDATA[Villars (la Combe aux Voleurs)]]></name>
    <trkseg>
      <trkpt lat="47.74917" lon="4.97851">
        <ele>358.77</ele>
        <time>2022-07-07T07:00:47Z</time>
      </trkpt>
      <trkpt lat="47.74914" lon="4.97849">
        <ele>359.2</ele>
        <time>2022-07-07T07:00:59Z</time>
      </trkpt>
      <trkpt lat="47.74913" lon="4.97845">
        <ele>359.86</ele>
        <time>2022-07-07T07:05:39Z</time>
      </trkpt>
      <trkpt lat="47.74915" lon="4.97844">
        <ele>360.05</ele>
        <time>2022-07-07T07:07:17Z</time>
      </trkpt>
      <trkpt lat="47.74916" lon="4.9784">
        <ele>360.78</ele>
        <time>2022-07-07T07:07:31Z</time>
      </trkpt>
      <trkpt lat="47.74917" lon="4.97836">
        <ele>361.48</ele>
        <time>2022-07-07T07:07:39Z</time>
      </trkpt>
      <trkpt lat="47.74919" lon="4.97832">
        <ele>361.8</ele>
        <time>2022-07-07T07:07:45Z</time>
      </trkpt>
      <trkpt lat="47.7492" lon="4.97828">
        <ele>361.88</ele>
        <time>2022-07-07T07:08:05Z</time>
      </trkpt>
      <trkpt lat="47.74922" lon="4.97825">
        <ele>361.84</ele>
        <time>2022-07-07T07:08:15Z</time>
      </trkpt>
      <trkpt lat="47.7492" lon="4.97828">
        <ele>361.88</ele>
        <time>2022-07-07T07:08:46Z</time>
      </trkpt>
      <trkpt lat="47.74918" lon="4.97832">
        <ele>361.91</ele>
        <time>2022-07-07T07:08:50Z</time>
      </trkpt>
      <trkpt lat="47.74917" lon="4.97836">
        <ele>361.48</ele>
        <time>2022-07-07T07:08:55Z</time>
      </trkpt>
      <trkpt lat="47.74916" lon="4.9784">
        <ele>360.78</ele>
        <time>2022-07-07T07:09:01Z</time>
      </trkpt>
      <trkpt lat="47.74914" lon="4.97842">
        <ele>360.37</ele>
        <time>2022-07-07T07:10:08Z</time>
      </trkpt>
      <trkpt lat="47.74911" lon="4.97844">
        <ele>359.99</ele>
        <time>2022-07-07T07:10:15Z</time>
      </trkpt>
      <trkpt lat="47.74908" lon="4.97843">
        <ele>360.07</ele>
        <time>2022-07-07T07:10:18Z</time>
      </trkpt>
      <trkpt lat="47.74911" lon="4.97846">
        <ele>359.68</ele>
        <time>2022-07-07T07:16:16Z</time>
      </trkpt>
      <trkpt lat="47.74911" lon="4.9785">
        <ele>359.08</ele>
        <time>2022-07-07T07:16:30Z</time>
      </trkpt>
      <trkpt lat="47.74909" lon="4.97853">
        <ele>358.69</ele>
        <time>2022-07-07T07:17:18Z</time>
      </trkpt>
      <trkpt lat="47.74908" lon="4.97856">
        <ele>358.31</ele>
        <time>2022-07-07T07:17:53Z</time>
      </trkpt>
      <trkpt lat="47.7491" lon="4.97859">
        <ele>357.79</ele>
        <time>2022-07-07T07:20:56Z</time>
      </trkpt>
      <trkpt lat="47.74908" lon="4.97856">
        <ele>358.31</ele>
        <time>2022-07-07T07:22:02Z</time>
      </trkpt>
      <trkpt lat="47.74908" lon="4.97851">
        <ele>358.99</ele>
        <time>2022-07-07T07:23:23Z</time>
      </trkpt>
      <trkpt lat="47.7491" lon="4.97849">
        <ele>359.24</ele>
        <time>2022-07-07T07:23:26Z</time>
      </trkpt>
      <trkpt lat="47.74914" lon="4.97847">
        <ele>359.54</ele>
        <time>2022-07-07T07:23:29Z</time>
      </trkpt>
      <trkpt lat="47.74916" lon="4.97845">
        <ele>359.89</ele>
        <time>2022-07-07T07:23:32Z</time>
      </trkpt>
      <trkpt lat="47.74919" lon="4.97842">
        <ele>360.14</ele>
        <time>2022-07-07T07:23:34Z</time>
      </trkpt>
      <trkpt lat="47.7492" lon="4.97839">
        <ele>360.57</ele>
        <time>2022-07-07T07:23:38Z</time>
      </trkpt>
      <trkpt lat="47.7492" lon="4.97834">
        <ele>361.51</ele>
        <time>2022-07-07T07:23:41Z</time>
      </trkpt>
      <trkpt lat="47.74918" lon="4.97831">
        <ele>361.95</ele>
        <time>2022-07-07T07:23:47Z</time>
      </trkpt>
      <trkpt lat="47.74916" lon="4.97829">
        <ele>362.11</ele>
        <time>2022-07-07T07:23:51Z</time>
      </trkpt>
      <trkpt lat="47.74913" lon="4.97826">
        <ele>362.03</ele>
        <time>2022-07-07T07:23:54Z</time>
      </trkpt>
      <trkpt lat="47.74911" lon="4.97822">
        <ele>362.08</ele>
        <time>2022-07-07T07:23:57Z</time>
      </trkpt>
      <trkpt lat="47.74909" lon="4.97819">
        <ele>362.11</ele>
        <time>2022-07-07T07:23:59Z</time>
      </trkpt>
      <trkpt lat="47.74906" lon="4.97817">
        <ele>362.05</ele>
        <time>2022-07-07T07:24:02Z</time>
      </trkpt>
      <trkpt lat="47.74903" lon="4.97814">
        <ele>362.05</ele>
        <time>2022-07-07T07:24:05Z</time>
      </trkpt>
      <trkpt lat="47.74901" lon="4.97813">
        <ele>362.02</ele>
        <time>2022-07-07T07:24:07Z</time>
      </trkpt>
      <trkpt lat="47.74898" lon="4.97812">
        <ele>361.94</ele>
        <time>2022-07-07T07:24:12Z</time>
      </trkpt>
      <trkpt lat="47.74896" lon="4.9781">
        <ele>361.98</ele>
        <time>2022-07-07T07:24:15Z</time>
      </trkpt>
      <trkpt lat="47.74893" lon="4.97808">
        <ele>361.99</ele>
        <time>2022-07-07T07:24:17Z</time>
      </trkpt>
      <trkpt lat="47.74891" lon="4.97807">
        <ele>361.98</ele>
        <time>2022-07-07T07:24:20Z</time>
      </trkpt>
      <trkpt lat="47.74888" lon="4.97806">
        <ele>362</ele>
        <time>2022-07-07T07:24:22Z</time>
      </trkpt>
      <trkpt lat="47.74885" lon="4.97806">
        <ele>362.11</ele>
        <time>2022-07-07T07:24:24Z</time>
      </trkpt>
      <trkpt lat="47.74882" lon="4.97805">
        <ele>362.28</ele>
        <time>2022-07-07T07:24:28Z</time>
      </trkpt>
      <trkpt lat="47.74879" lon="4.97802">
        <ele>362.57</ele>
        <time>2022-07-07T07:24:30Z</time>
      </trkpt>
      <trkpt lat="47.74877" lon="4.978">
        <ele>362.74</ele>
        <time>2022-07-07T07:24:33Z</time>
      </trkpt>
      <trkpt lat="47.74874" lon="4.97798">
        <ele>362.93</ele>
        <time>2022-07-07T07:24:35Z</time>
      </trkpt>
      <trkpt lat="47.74871" lon="4.97797">
        <ele>363.06</ele>
        <time>2022-07-07T07:24:38Z</time>
      </trkpt>
      <trkpt lat="47.74868" lon="4.97796">
        <ele>363.18</ele>
        <time>2022-07-07T07:24:40Z</time>
      </trkpt>
      <trkpt lat="47.74865" lon="4.97796">
        <ele>363.25</ele>
        <time>2022-07-07T07:24:42Z</time>
      </trkpt>
      <trkpt lat="47.74862" lon="4.97795">
        <ele>363.36</ele>
        <time>2022-07-07T07:24:44Z</time>
      </trkpt>
      <trkpt lat="47.74859" lon="4.97794">
        <ele>363.14</ele>
        <time>2022-07-07T07:24:47Z</time>
      </trkpt>
      <trkpt lat="47.74856" lon="4.97794">
        <ele>362.76</ele>
        <time>2022-07-07T07:24:49Z</time>
      </trkpt>
      <trkpt lat="47.74853" lon="4.97794">
        <ele>362.37</ele>
        <time>2022-07-07T07:24:51Z</time>
      </trkpt>
      <trkpt lat="47.7485" lon="4.97794">
        <ele>361.98</ele>
        <time>2022-07-07T07:24:54Z</time>
      </trkpt>
      <trkpt lat="47.74847" lon="4.97795">
        <ele>361.54</ele>
        <time>2022-07-07T07:24:56Z</time>
      </trkpt>
      <trkpt lat="47.74844" lon="4.97795">
        <ele>361.15</ele>
        <time>2022-07-07T07:24:59Z</time>
      </trkpt>
      <trkpt lat="47.74841" lon="4.97796">
        <ele>360.7</ele>
        <time>2022-07-07T07:25:01Z</time>
      </trkpt>
      <trkpt lat="47.74838" lon="4.97797">
        <ele>360.24</ele>
        <time>2022-07-07T07:25:04Z</time>
      </trkpt>
      <trkpt lat="47.74835" lon="4.97799">
        <ele>359.7</ele>
        <time>2022-07-07T07:25:07Z</time>
      </trkpt>
      <trkpt lat="47.74832" lon="4.97801">
        <ele>359.23</ele>
        <time>2022-07-07T07:25:10Z</time>
      </trkpt>
      <trkpt lat="47.74829" lon="4.97803">
        <ele>358.87</ele>
        <time>2022-07-07T07:25:12Z</time>
      </trkpt>
      <trkpt lat="47.74827" lon="4.97805">
        <ele>358.58</ele>
        <time>2022-07-07T07:25:15Z</time>
      </trkpt>
      <trkpt lat="47.74823" lon="4.97807">
        <ele>358.2</ele>
        <time>2022-07-07T07:25:18Z</time>
      </trkpt>
      <trkpt lat="47.74821" lon="4.97808">
        <ele>358.02</ele>
        <time>2022-07-07T07:25:20Z</time>
      </trkpt>
      <trkpt lat="47.74818" lon="4.9781">
        <ele>357.74</ele>
        <time>2022-07-07T07:25:23Z</time>
      </trkpt>
      <trkpt lat="47.74815" lon="4.97811">
        <ele>357.48</ele>
        <time>2022-07-07T07:25:25Z</time>
      </trkpt>
      <trkpt lat="47.74812" lon="4.97814">
        <ele>357.16</ele>
        <time>2022-07-07T07:25:27Z</time>
      </trkpt>
      <trkpt lat="47.74809" lon="4.97816">
        <ele>356.87</ele>
        <time>2022-07-07T07:25:30Z</time>
      </trkpt>
      <trkpt lat="47.74806" lon="4.97818">
        <ele>356.58</ele>
        <time>2022-07-07T07:25:32Z</time>
      </trkpt>
      <trkpt lat="47.74803" lon="4.97819">
        <ele>356.15</ele>
        <time>2022-07-07T07:25:34Z</time>
      </trkpt>
      <trkpt lat="47.748" lon="4.97821">
        <ele>355.67</ele>
        <time>2022-07-07T07:25:37Z</time>
      </trkpt>
      <trkpt lat="47.74796" lon="4.97822">
        <ele>355.1</ele>
        <time>2022-07-07T07:25:40Z</time>
      </trkpt>
      <trkpt lat="47.74793" lon="4.97824">
        <ele>354.68</ele>
        <time>2022-07-07T07:25:42Z</time>
      </trkpt>
      <trkpt lat="47.7479" lon="4.97825">
        <ele>354.28</ele>
        <time>2022-07-07T07:25:44Z</time>
      </trkpt>
      <trkpt lat="47.74787" lon="4.97827">
        <ele>353.92</ele>
        <time>2022-07-07T07:25:46Z</time>
      </trkpt>
      <trkpt lat="47.74783" lon="4.97829">
        <ele>353.47</ele>
        <time>2022-07-07T07:25:49Z</time>
      </trkpt>
      <trkpt lat="47.7478" lon="4.97831">
        <ele>353.17</ele>
        <time>2022-07-07T07:25:51Z</time>
      </trkpt>
      <trkpt lat="47.74777" lon="4.97833">
        <ele>353.16</ele>
        <time>2022-07-07T07:25:53Z</time>
      </trkpt>
      <trkpt lat="47.74774" lon="4.97835">
        <ele>354.04</ele>
        <time>2022-07-07T07:25:56Z</time>
      </trkpt>
      <trkpt lat="47.74772" lon="4.97838">
        <ele>354.85</ele>
        <time>2022-07-07T07:25:58Z</time>
      </trkpt>
      <trkpt lat="47.74769" lon="4.97841">
        <ele>355.83</ele>
        <time>2022-07-07T07:26:00Z</time>
      </trkpt>
      <trkpt lat="47.74766" lon="4.97842">
        <ele>356.53</ele>
        <time>2022-07-07T07:26:02Z</time>
      </trkpt>
      <trkpt lat="47.74763" lon="4.97844">
        <ele>357.32</ele>
        <time>2022-07-07T07:26:04Z</time>
      </trkpt>
      <trkpt lat="47.7476" lon="4.97845">
        <ele>357.98</ele>
        <time>2022-07-07T07:26:06Z</time>
      </trkpt>
      <trkpt lat="47.74755" lon="4.97846">
        <ele>359</ele>
        <time>2022-07-07T07:26:09Z</time>
      </trkpt>
      <trkpt lat="47.74753" lon="4.97844">
        <ele>359.2</ele>
        <time>2022-07-07T07:26:12Z</time>
      </trkpt>
      <trkpt lat="47.7475" lon="4.97843">
        <ele>359.7</ele>
        <time>2022-07-07T07:26:15Z</time>
      </trkpt>
      <trkpt lat="47.74747" lon="4.97842">
        <ele>359.66</ele>
        <time>2022-07-07T07:26:17Z</time>
      </trkpt>
      <trkpt lat="47.74744" lon="4.97841">
        <ele>359.61</ele>
        <time>2022-07-07T07:26:20Z</time>
      </trkpt>
      <trkpt lat="47.74741" lon="4.97841">
        <ele>359.64</ele>
        <time>2022-07-07T07:26:23Z</time>
      </trkpt>
      <trkpt lat="47.74738" lon="4.97841">
        <ele>359.67</ele>
        <time>2022-07-07T07:26:28Z</time>
      </trkpt>
      <trkpt lat="47.74734" lon="4.97841">
        <ele>359.71</ele>
        <time>2022-07-07T07:26:30Z</time>
      </trkpt>
      <trkpt lat="47.74731" lon="4.97841">
        <ele>359.74</ele>
        <time>2022-07-07T07:26:33Z</time>
      </trkpt>
      <trkpt lat="47.74728" lon="4.97841">
        <ele>359.77</ele>
        <time>2022-07-07T07:26:35Z</time>
      </trkpt>
      <trkpt lat="47.74725" lon="4.9784">
        <ele>359.7</ele>
        <time>2022-07-07T07:26:37Z</time>
      </trkpt>
      <trkpt lat="47.74722" lon="4.97839">
        <ele>359.6</ele>
        <time>2022-07-07T07:26:39Z</time>
      </trkpt>
      <trkpt lat="47.74718" lon="4.97838">
        <ele>359.28</ele>
        <time>2022-07-07T07:26:41Z</time>
      </trkpt>
      <trkpt lat="47.74715" lon="4.97838">
        <ele>359.11</ele>
        <time>2022-07-07T07:26:42Z</time>
      </trkpt>
      <trkpt lat="47.74711" lon="4.97839">
        <ele>358.96</ele>
        <time>2022-07-07T07:26:44Z</time>
      </trkpt>
      <trkpt lat="47.74708" lon="4.9784">
        <ele>358.84</ele>
        <time>2022-07-07T07:26:46Z</time>
      </trkpt>
      <trkpt lat="47.74705" lon="4.97841">
        <ele>358.69</ele>
        <time>2022-07-07T07:26:48Z</time>
      </trkpt>
      <trkpt lat="47.74702" lon="4.97841">
        <ele>358.5</ele>
        <time>2022-07-07T07:26:50Z</time>
      </trkpt>
      <trkpt lat="47.74699" lon="4.97841">
        <ele>358.3</ele>
        <time>2022-07-07T07:26:53Z</time>
      </trkpt>
      <trkpt lat="47.74695" lon="4.97842">
        <ele>358.04</ele>
        <time>2022-07-07T07:26:55Z</time>
      </trkpt>
      <trkpt lat="47.74692" lon="4.97842">
        <ele>358.09</ele>
        <time>2022-07-07T07:26:57Z</time>
      </trkpt>
      <trkpt lat="47.74689" lon="4.97843">
        <ele>358.2</ele>
        <time>2022-07-07T07:26:59Z</time>
      </trkpt>
      <trkpt lat="47.74685" lon="4.97844">
        <ele>358.34</ele>
        <time>2022-07-07T07:27:01Z</time>
      </trkpt>
      <trkpt lat="47.74683" lon="4.97845">
        <ele>358.41</ele>
        <time>2022-07-07T07:27:02Z</time>
      </trkpt>
      <trkpt lat="47.7468" lon="4.97847">
        <ele>358.52</ele>
        <time>2022-07-07T07:27:04Z</time>
      </trkpt>
      <trkpt lat="47.74677" lon="4.97848">
        <ele>358.63</ele>
        <time>2022-07-07T07:27:06Z</time>
      </trkpt>
      <trkpt lat="47.74674" lon="4.9785">
        <ele>358.74</ele>
        <time>2022-07-07T07:27:09Z</time>
      </trkpt>
      <trkpt lat="47.74671" lon="4.97852">
        <ele>358.84</ele>
        <time>2022-07-07T07:27:11Z</time>
      </trkpt>
      <trkpt lat="47.74669" lon="4.97854">
        <ele>358.92</ele>
        <time>2022-07-07T07:27:13Z</time>
      </trkpt>
      <trkpt lat="47.74666" lon="4.97856">
        <ele>358.95</ele>
        <time>2022-07-07T07:27:15Z</time>
      </trkpt>
      <trkpt lat="47.74663" lon="4.97857">
        <ele>358.74</ele>
        <time>2022-07-07T07:27:17Z</time>
      </trkpt>
      <trkpt lat="47.74659" lon="4.9786">
        <ele>358.45</ele>
        <time>2022-07-07T07:27:20Z</time>
      </trkpt>
      <trkpt lat="47.74655" lon="4.97863">
        <ele>358.23</ele>
        <time>2022-07-07T07:27:23Z</time>
      </trkpt>
      <trkpt lat="47.7465" lon="4.97867">
        <ele>358.01</ele>
        <time>2022-07-07T07:27:27Z</time>
      </trkpt>
      <trkpt lat="47.74647" lon="4.97869">
        <ele>357.87</ele>
        <time>2022-07-07T07:27:30Z</time>
      </trkpt>
      <trkpt lat="47.74644" lon="4.97871">
        <ele>357.72</ele>
        <time>2022-07-07T07:27:32Z</time>
      </trkpt>
      <trkpt lat="47.74641" lon="4.97874">
        <ele>357.62</ele>
        <time>2022-07-07T07:27:34Z</time>
      </trkpt>
      <trkpt lat="47.74639" lon="4.97877">
        <ele>357.58</ele>
        <time>2022-07-07T07:27:37Z</time>
      </trkpt>
      <trkpt lat="47.74636" lon="4.9788">
        <ele>357.89</ele>
        <time>2022-07-07T07:27:39Z</time>
      </trkpt>
      <trkpt lat="47.74633" lon="4.97883">
        <ele>358.21</ele>
        <time>2022-07-07T07:27:42Z</time>
      </trkpt>
      <trkpt lat="47.74631" lon="4.97886">
        <ele>358.46</ele>
        <time>2022-07-07T07:27:45Z</time>
      </trkpt>
      <trkpt lat="47.74629" lon="4.97889">
        <ele>358.71</ele>
        <time>2022-07-07T07:27:47Z</time>
      </trkpt>
      <trkpt lat="47.74626" lon="4.97891">
        <ele>359</ele>
        <time>2022-07-07T07:27:51Z</time>
      </trkpt>
      <trkpt lat="47.74624" lon="4.9789">
        <ele>359.11</ele>
        <time>2022-07-07T07:28:15Z</time>
      </trkpt>
      <trkpt lat="47.7462" lon="4.9789">
        <ele>359.41</ele>
        <time>2022-07-07T07:28:18Z</time>
      </trkpt>
      <trkpt lat="47.74617" lon="4.9789">
        <ele>359.64</ele>
        <time>2022-07-07T07:28:20Z</time>
      </trkpt>
      <trkpt lat="47.74614" lon="4.9789">
        <ele>359.86</ele>
        <time>2022-07-07T07:28:22Z</time>
      </trkpt>
      <trkpt lat="47.7461" lon="4.97889">
        <ele>360.17</ele>
        <time>2022-07-07T07:28:24Z</time>
      </trkpt>
      <trkpt lat="47.74607" lon="4.97888">
        <ele>360.56</ele>
        <time>2022-07-07T07:28:27Z</time>
      </trkpt>
      <trkpt lat="47.74604" lon="4.97887">
        <ele>360.97</ele>
        <time>2022-07-07T07:28:30Z</time>
      </trkpt>
      <trkpt lat="47.74601" lon="4.97885">
        <ele>361.37</ele>
        <time>2022-07-07T07:28:32Z</time>
      </trkpt>
      <trkpt lat="47.74598" lon="4.97883">
        <ele>361.78</ele>
        <time>2022-07-07T07:28:35Z</time>
      </trkpt>
      <trkpt lat="47.74594" lon="4.97881">
        <ele>362.35</ele>
        <time>2022-07-07T07:28:37Z</time>
      </trkpt>
      <trkpt lat="47.74592" lon="4.9788">
        <ele>362.65</ele>
        <time>2022-07-07T07:28:39Z</time>
      </trkpt>
      <trkpt lat="47.74589" lon="4.97878">
        <ele>363.1</ele>
        <time>2022-07-07T07:28:41Z</time>
      </trkpt>
      <trkpt lat="47.74586" lon="4.97876">
        <ele>363.57</ele>
        <time>2022-07-07T07:28:43Z</time>
      </trkpt>
      <trkpt lat="47.74581" lon="4.97872">
        <ele>364.28</ele>
        <time>2022-07-07T07:28:47Z</time>
      </trkpt>
      <trkpt lat="47.74578" lon="4.97868">
        <ele>364.62</ele>
        <time>2022-07-07T07:28:50Z</time>
      </trkpt>
      <trkpt lat="47.74575" lon="4.97866">
        <ele>364.95</ele>
        <time>2022-07-07T07:28:52Z</time>
      </trkpt>
      <trkpt lat="47.74572" lon="4.97862">
        <ele>365.24</ele>
        <time>2022-07-07T07:28:55Z</time>
      </trkpt>
      <trkpt lat="47.74568" lon="4.97857">
        <ele>365.64</ele>
        <time>2022-07-07T07:28:59Z</time>
      </trkpt>
      <trkpt lat="47.74565" lon="4.97854">
        <ele>365.9</ele>
        <time>2022-07-07T07:29:02Z</time>
      </trkpt>
      <trkpt lat="47.74562" lon="4.97851">
        <ele>366.11</ele>
        <time>2022-07-07T07:29:04Z</time>
      </trkpt>
      <trkpt lat="47.74559" lon="4.9785">
        <ele>366.33</ele>
        <time>2022-07-07T07:29:06Z</time>
      </trkpt>
      <trkpt lat="47.74556" lon="4.97847">
        <ele>366.46</ele>
        <time>2022-07-07T07:29:08Z</time>
      </trkpt>
      <trkpt lat="47.74554" lon="4.97845">
        <ele>366.68</ele>
        <time>2022-07-07T07:29:11Z</time>
      </trkpt>
      <trkpt lat="47.74551" lon="4.97842">
        <ele>367.08</ele>
        <time>2022-07-07T07:29:13Z</time>
      </trkpt>
      <trkpt lat="47.74549" lon="4.97839">
        <ele>367.34</ele>
        <time>2022-07-07T07:29:15Z</time>
      </trkpt>
      <trkpt lat="47.74547" lon="4.97835">
        <ele>367.58</ele>
        <time>2022-07-07T07:29:18Z</time>
      </trkpt>
      <trkpt lat="47.74545" lon="4.97832">
        <ele>368</ele>
        <time>2022-07-07T07:29:21Z</time>
      </trkpt>
      <trkpt lat="47.74542" lon="4.97829">
        <ele>368.75</ele>
        <time>2022-07-07T07:29:22Z</time>
      </trkpt>
      <trkpt lat="47.7454" lon="4.97826">
        <ele>369.33</ele>
        <time>2022-07-07T07:29:25Z</time>
      </trkpt>
      <trkpt lat="47.74537" lon="4.97823">
        <ele>370.08</ele>
        <time>2022-07-07T07:29:27Z</time>
      </trkpt>
      <trkpt lat="47.74535" lon="4.9782">
        <ele>370.66</ele>
        <time>2022-07-07T07:29:29Z</time>
      </trkpt>
      <trkpt lat="47.74532" lon="4.97818">
        <ele>371.34</ele>
        <time>2022-07-07T07:29:31Z</time>
      </trkpt>
      <trkpt lat="47.74529" lon="4.97816">
        <ele>372.03</ele>
        <time>2022-07-07T07:29:33Z</time>
      </trkpt>
      <trkpt lat="47.74527" lon="4.97813">
        <ele>372.5</ele>
        <time>2022-07-07T07:29:36Z</time>
      </trkpt>
      <trkpt lat="47.74524" lon="4.97809">
        <ele>372.9</ele>
        <time>2022-07-07T07:29:38Z</time>
      </trkpt>
      <trkpt lat="47.74522" lon="4.97807">
        <ele>373.11</ele>
        <time>2022-07-07T07:29:41Z</time>
      </trkpt>
      <trkpt lat="47.74519" lon="4.97804">
        <ele>373.22</ele>
        <time>2022-07-07T07:29:43Z</time>
      </trkpt>
      <trkpt lat="47.74516" lon="4.97802">
        <ele>373.19</ele>
        <time>2022-07-07T07:29:45Z</time>
      </trkpt>
      <trkpt lat="47.74514" lon="4.97799">
        <ele>373.03</ele>
        <time>2022-07-07T07:29:47Z</time>
      </trkpt>
      <trkpt lat="47.74509" lon="4.97792">
        <ele>372.53</ele>
        <time>2022-07-07T07:29:52Z</time>
      </trkpt>
      <trkpt lat="47.74507" lon="4.97789">
        <ele>372.26</ele>
        <time>2022-07-07T07:29:54Z</time>
      </trkpt>
      <trkpt lat="47.74505" lon="4.97786">
        <ele>371.96</ele>
        <time>2022-07-07T07:29:56Z</time>
      </trkpt>
      <trkpt lat="47.74503" lon="4.97783">
        <ele>371.63</ele>
        <time>2022-07-07T07:29:58Z</time>
      </trkpt>
      <trkpt lat="47.74501" lon="4.9778">
        <ele>371.27</ele>
        <time>2022-07-07T07:30:01Z</time>
      </trkpt>
      <trkpt lat="47.74498" lon="4.97777">
        <ele>371</ele>
        <time>2022-07-07T07:30:03Z</time>
      </trkpt>
      <trkpt lat="47.74495" lon="4.97775">
        <ele>370.99</ele>
        <time>2022-07-07T07:30:05Z</time>
      </trkpt>
      <trkpt lat="47.74492" lon="4.97774">
        <ele>371.12</ele>
        <time>2022-07-07T07:30:07Z</time>
      </trkpt>
      <trkpt lat="47.7449" lon="4.97772">
        <ele>371.19</ele>
        <time>2022-07-07T07:30:09Z</time>
      </trkpt>
      <trkpt lat="47.74487" lon="4.9777">
        <ele>371.41</ele>
        <time>2022-07-07T07:30:12Z</time>
      </trkpt>
      <trkpt lat="47.74484" lon="4.97769">
        <ele>371.72</ele>
        <time>2022-07-07T07:30:14Z</time>
      </trkpt>
      <trkpt lat="47.74482" lon="4.97766">
        <ele>372.02</ele>
        <time>2022-07-07T07:30:16Z</time>
      </trkpt>
      <trkpt lat="47.74479" lon="4.97764">
        <ele>372.52</ele>
        <time>2022-07-07T07:30:18Z</time>
      </trkpt>
      <trkpt lat="47.74472" lon="4.97759">
        <ele>374.07</ele>
        <time>2022-07-07T07:30:26Z</time>
      </trkpt>
      <trkpt lat="47.74466" lon="4.97753">
        <ele>375.67</ele>
        <time>2022-07-07T07:30:31Z</time>
      </trkpt>
      <trkpt lat="47.74463" lon="4.97751">
        <ele>376.27</ele>
        <time>2022-07-07T07:30:33Z</time>
      </trkpt>
      <trkpt lat="47.7446" lon="4.97749">
        <ele>376.69</ele>
        <time>2022-07-07T07:30:36Z</time>
      </trkpt>
      <trkpt lat="47.74457" lon="4.97747">
        <ele>376.98</ele>
        <time>2022-07-07T07:30:38Z</time>
      </trkpt>
      <trkpt lat="47.74455" lon="4.97745">
        <ele>377.12</ele>
        <time>2022-07-07T07:30:40Z</time>
      </trkpt>
      <trkpt lat="47.74452" lon="4.97743">
        <ele>377.41</ele>
        <time>2022-07-07T07:30:43Z</time>
      </trkpt>
      <trkpt lat="47.7445" lon="4.97741">
        <ele>377.55</ele>
        <time>2022-07-07T07:30:45Z</time>
      </trkpt>
      <trkpt lat="47.74447" lon="4.97739">
        <ele>377.84</ele>
        <time>2022-07-07T07:30:47Z</time>
      </trkpt>
      <trkpt lat="47.74444" lon="4.97737">
        <ele>378.09</ele>
        <time>2022-07-07T07:30:50Z</time>
      </trkpt>
      <trkpt lat="47.74441" lon="4.97735">
        <ele>378.1</ele>
        <time>2022-07-07T07:30:52Z</time>
      </trkpt>
      <trkpt lat="47.74438" lon="4.97732">
        <ele>378.02</ele>
        <time>2022-07-07T07:30:55Z</time>
      </trkpt>
      <trkpt lat="47.74436" lon="4.97731">
        <ele>378.03</ele>
        <time>2022-07-07T07:30:57Z</time>
      </trkpt>
      <trkpt lat="47.74433" lon="4.97729">
        <ele>378</ele>
        <time>2022-07-07T07:30:59Z</time>
      </trkpt>
      <trkpt lat="47.7443" lon="4.97727">
        <ele>377.95</ele>
        <time>2022-07-07T07:31:01Z</time>
      </trkpt>
      <trkpt lat="47.74428" lon="4.97725">
        <ele>377.85</ele>
        <time>2022-07-07T07:31:04Z</time>
      </trkpt>
      <trkpt lat="47.74425" lon="4.97724">
        <ele>377.87</ele>
        <time>2022-07-07T07:31:06Z</time>
      </trkpt>
      <trkpt lat="47.74422" lon="4.97722">
        <ele>377.79</ele>
        <time>2022-07-07T07:31:08Z</time>
      </trkpt>
      <trkpt lat="47.74419" lon="4.9772">
        <ele>377.73</ele>
        <time>2022-07-07T07:31:10Z</time>
      </trkpt>
      <trkpt lat="47.74416" lon="4.97718">
        <ele>377.72</ele>
        <time>2022-07-07T07:31:12Z</time>
      </trkpt>
      <trkpt lat="47.74413" lon="4.97715">
        <ele>377.65</ele>
        <time>2022-07-07T07:31:15Z</time>
      </trkpt>
      <trkpt lat="47.74409" lon="4.97709">
        <ele>377.46</ele>
        <time>2022-07-07T07:31:20Z</time>
      </trkpt>
      <trkpt lat="47.74406" lon="4.97706">
        <ele>377.44</ele>
        <time>2022-07-07T07:31:22Z</time>
      </trkpt>
      <trkpt lat="47.74404" lon="4.97704">
        <ele>377.44</ele>
        <time>2022-07-07T07:31:24Z</time>
      </trkpt>
      <trkpt lat="47.74402" lon="4.97702">
        <ele>377.46</ele>
        <time>2022-07-07T07:31:26Z</time>
      </trkpt>
      <trkpt lat="47.74399" lon="4.97699">
        <ele>377.5</ele>
        <time>2022-07-07T07:31:28Z</time>
      </trkpt>
      <trkpt lat="47.74397" lon="4.97696">
        <ele>377.49</ele>
        <time>2022-07-07T07:31:31Z</time>
      </trkpt>
      <trkpt lat="47.74395" lon="4.97694">
        <ele>377.59</ele>
        <time>2022-07-07T07:31:33Z</time>
      </trkpt>
      <trkpt lat="47.74393" lon="4.97692">
        <ele>377.92</ele>
        <time>2022-07-07T07:31:35Z</time>
      </trkpt>
      <trkpt lat="47.7439" lon="4.97688">
        <ele>378.58</ele>
        <time>2022-07-07T07:31:38Z</time>
      </trkpt>
      <trkpt lat="47.74388" lon="4.97685">
        <ele>379.13</ele>
        <time>2022-07-07T07:31:41Z</time>
      </trkpt>
      <trkpt lat="47.74386" lon="4.97682">
        <ele>379.67</ele>
        <time>2022-07-07T07:31:43Z</time>
      </trkpt>
      <trkpt lat="47.74384" lon="4.97678">
        <ele>380.27</ele>
        <time>2022-07-07T07:31:45Z</time>
      </trkpt>
      <trkpt lat="47.74382" lon="4.97675">
        <ele>380.74</ele>
        <time>2022-07-07T07:31:49Z</time>
      </trkpt>
      <trkpt lat="47.7438" lon="4.97671">
        <ele>381.27</ele>
        <time>2022-07-07T07:31:51Z</time>
      </trkpt>
      <trkpt lat="47.74378" lon="4.97668">
        <ele>381.68</ele>
        <time>2022-07-07T07:31:55Z</time>
      </trkpt>
      <trkpt lat="47.74376" lon="4.97665">
        <ele>381.72</ele>
        <time>2022-07-07T07:31:57Z</time>
      </trkpt>
      <trkpt lat="47.74374" lon="4.97661">
        <ele>381.35</ele>
        <time>2022-07-07T07:32:00Z</time>
      </trkpt>
      <trkpt lat="47.74372" lon="4.97657">
        <ele>380.96</ele>
        <time>2022-07-07T07:32:02Z</time>
      </trkpt>
      <trkpt lat="47.74368" lon="4.97649">
        <ele>380.12</ele>
        <time>2022-07-07T07:32:09Z</time>
      </trkpt>
      <trkpt lat="47.74364" lon="4.97644">
        <ele>379.61</ele>
        <time>2022-07-07T07:32:17Z</time>
      </trkpt>
      <trkpt lat="47.74362" lon="4.9764">
        <ele>379.13</ele>
        <time>2022-07-07T07:32:19Z</time>
      </trkpt>
      <trkpt lat="47.7436" lon="4.97637">
        <ele>378.57</ele>
        <time>2022-07-07T07:32:21Z</time>
      </trkpt>
      <trkpt lat="47.74356" lon="4.97633">
        <ele>377.49</ele>
        <time>2022-07-07T07:32:27Z</time>
      </trkpt>
      <trkpt lat="47.74353" lon="4.97629">
        <ele>376.62</ele>
        <time>2022-07-07T07:32:29Z</time>
      </trkpt>
      <trkpt lat="47.74352" lon="4.97626">
        <ele>376.14</ele>
        <time>2022-07-07T07:32:30Z</time>
      </trkpt>
      <trkpt lat="47.74349" lon="4.97622">
        <ele>375.35</ele>
        <time>2022-07-07T07:32:32Z</time>
      </trkpt>
      <trkpt lat="47.74347" lon="4.97619">
        <ele>374.83</ele>
        <time>2022-07-07T07:32:35Z</time>
      </trkpt>
      <trkpt lat="47.74344" lon="4.97616">
        <ele>374.26</ele>
        <time>2022-07-07T07:32:38Z</time>
      </trkpt>
      <trkpt lat="47.74342" lon="4.97612">
        <ele>373.71</ele>
        <time>2022-07-07T07:32:39Z</time>
      </trkpt>
      <trkpt lat="47.74339" lon="4.9761">
        <ele>373.37</ele>
        <time>2022-07-07T07:32:41Z</time>
      </trkpt>
      <trkpt lat="47.74337" lon="4.97607">
        <ele>373.12</ele>
        <time>2022-07-07T07:32:43Z</time>
      </trkpt>
      <trkpt lat="47.74334" lon="4.97604">
        <ele>372.79</ele>
        <time>2022-07-07T07:32:46Z</time>
      </trkpt>
      <trkpt lat="47.74332" lon="4.97601">
        <ele>372.66</ele>
        <time>2022-07-07T07:32:48Z</time>
      </trkpt>
      <trkpt lat="47.7433" lon="4.97598">
        <ele>372.63</ele>
        <time>2022-07-07T07:32:50Z</time>
      </trkpt>
      <trkpt lat="47.74327" lon="4.97596">
        <ele>372.72</ele>
        <time>2022-07-07T07:32:52Z</time>
      </trkpt>
      <trkpt lat="47.74325" lon="4.97594">
        <ele>372.82</ele>
        <time>2022-07-07T07:32:54Z</time>
      </trkpt>
      <trkpt lat="47.74323" lon="4.97591">
        <ele>372.98</ele>
        <time>2022-07-07T07:32:56Z</time>
      </trkpt>
      <trkpt lat="47.7432" lon="4.97587">
        <ele>373.32</ele>
        <time>2022-07-07T07:33:00Z</time>
      </trkpt>
      <trkpt lat="47.74317" lon="4.97585">
        <ele>373.68</ele>
        <time>2022-07-07T07:33:02Z</time>
      </trkpt>
      <trkpt lat="47.74315" lon="4.97582">
        <ele>374</ele>
        <time>2022-07-07T07:33:04Z</time>
      </trkpt>
      <trkpt lat="47.74313" lon="4.97579">
        <ele>374.24</ele>
        <time>2022-07-07T07:33:06Z</time>
      </trkpt>
      <trkpt lat="47.74311" lon="4.97576">
        <ele>374.46</ele>
        <time>2022-07-07T07:33:09Z</time>
      </trkpt>
      <trkpt lat="47.74308" lon="4.97573">
        <ele>374.77</ele>
        <time>2022-07-07T07:33:12Z</time>
      </trkpt>
      <trkpt lat="47.74306" lon="4.9757">
        <ele>374.96</ele>
        <time>2022-07-07T07:33:14Z</time>
      </trkpt>
      <trkpt lat="47.74303" lon="4.97566">
        <ele>375.06</ele>
        <time>2022-07-07T07:33:16Z</time>
      </trkpt>
      <trkpt lat="47.74302" lon="4.97563">
        <ele>375.09</ele>
        <time>2022-07-07T07:33:19Z</time>
      </trkpt>
      <trkpt lat="47.74299" lon="4.97559">
        <ele>375.21</ele>
        <time>2022-07-07T07:33:21Z</time>
      </trkpt>
      <trkpt lat="47.74297" lon="4.97556">
        <ele>375.3</ele>
        <time>2022-07-07T07:33:24Z</time>
      </trkpt>
      <trkpt lat="47.74295" lon="4.97553">
        <ele>375.51</ele>
        <time>2022-07-07T07:33:26Z</time>
      </trkpt>
      <trkpt lat="47.74293" lon="4.97549">
        <ele>375.79</ele>
        <time>2022-07-07T07:33:29Z</time>
      </trkpt>
      <trkpt lat="47.74291" lon="4.97546">
        <ele>376.05</ele>
        <time>2022-07-07T07:33:31Z</time>
      </trkpt>
      <trkpt lat="47.74289" lon="4.97542">
        <ele>376.37</ele>
        <time>2022-07-07T07:33:34Z</time>
      </trkpt>
      <trkpt lat="47.74288" lon="4.97538">
        <ele>376.66</ele>
        <time>2022-07-07T07:33:36Z</time>
      </trkpt>
      <trkpt lat="47.74286" lon="4.97534">
        <ele>377.03</ele>
        <time>2022-07-07T07:33:38Z</time>
      </trkpt>
      <trkpt lat="47.74284" lon="4.9753">
        <ele>377.41</ele>
        <time>2022-07-07T07:33:41Z</time>
      </trkpt>
      <trkpt lat="47.74282" lon="4.97527">
        <ele>377.67</ele>
        <time>2022-07-07T07:33:43Z</time>
      </trkpt>
      <trkpt lat="47.7428" lon="4.97524">
        <ele>377.7</ele>
        <time>2022-07-07T07:33:46Z</time>
      </trkpt>
      <trkpt lat="47.74279" lon="4.9752">
        <ele>377.63</ele>
        <time>2022-07-07T07:33:48Z</time>
      </trkpt>
      <trkpt lat="47.74277" lon="4.97517">
        <ele>377.63</ele>
        <time>2022-07-07T07:33:50Z</time>
      </trkpt>
      <trkpt lat="47.74275" lon="4.97514">
        <ele>377.55</ele>
        <time>2022-07-07T07:33:53Z</time>
      </trkpt>
      <trkpt lat="47.74273" lon="4.97509">
        <ele>377.38</ele>
        <time>2022-07-07T07:33:55Z</time>
      </trkpt>
      <trkpt lat="47.74271" lon="4.97506">
        <ele>377.27</ele>
        <time>2022-07-07T07:33:58Z</time>
      </trkpt>
      <trkpt lat="47.74269" lon="4.97502">
        <ele>377.09</ele>
        <time>2022-07-07T07:34:01Z</time>
      </trkpt>
      <trkpt lat="47.74267" lon="4.97499">
        <ele>376.96</ele>
        <time>2022-07-07T07:34:03Z</time>
      </trkpt>
      <trkpt lat="47.74265" lon="4.97495">
        <ele>376.81</ele>
        <time>2022-07-07T07:34:06Z</time>
      </trkpt>
      <trkpt lat="47.74264" lon="4.97492">
        <ele>376.71</ele>
        <time>2022-07-07T07:34:08Z</time>
      </trkpt>
      <trkpt lat="47.74262" lon="4.97488">
        <ele>376.63</ele>
        <time>2022-07-07T07:34:10Z</time>
      </trkpt>
      <trkpt lat="47.74261" lon="4.97484">
        <ele>376.54</ele>
        <time>2022-07-07T07:34:13Z</time>
      </trkpt>
      <trkpt lat="47.74259" lon="4.97479">
        <ele>376.51</ele>
        <time>2022-07-07T07:34:15Z</time>
      </trkpt>
      <trkpt lat="47.74258" lon="4.97475">
        <ele>376.48</ele>
        <time>2022-07-07T07:34:18Z</time>
      </trkpt>
      <trkpt lat="47.74256" lon="4.97472">
        <ele>376.57</ele>
        <time>2022-07-07T07:34:21Z</time>
      </trkpt>
      <trkpt lat="47.74255" lon="4.97468">
        <ele>376.61</ele>
        <time>2022-07-07T07:34:22Z</time>
      </trkpt>
      <trkpt lat="47.74253" lon="4.97464">
        <ele>376.75</ele>
        <time>2022-07-07T07:34:25Z</time>
      </trkpt>
      <trkpt lat="47.74252" lon="4.97459">
        <ele>376.82</ele>
        <time>2022-07-07T07:34:27Z</time>
      </trkpt>
      <trkpt lat="47.74251" lon="4.97455">
        <ele>376.91</ele>
        <time>2022-07-07T07:34:30Z</time>
      </trkpt>
      <trkpt lat="47.74249" lon="4.9745">
        <ele>377.01</ele>
        <time>2022-07-07T07:34:32Z</time>
      </trkpt>
      <trkpt lat="47.74247" lon="4.97447">
        <ele>377.01</ele>
        <time>2022-07-07T07:34:35Z</time>
      </trkpt>
      <trkpt lat="47.74246" lon="4.97444">
        <ele>376.99</ele>
        <time>2022-07-07T07:34:37Z</time>
      </trkpt>
      <trkpt lat="47.74244" lon="4.9744">
        <ele>376.87</ele>
        <time>2022-07-07T07:34:40Z</time>
      </trkpt>
      <trkpt lat="47.74242" lon="4.97437">
        <ele>376.81</ele>
        <time>2022-07-07T07:34:42Z</time>
      </trkpt>
      <trkpt lat="47.7424" lon="4.97433">
        <ele>376.74</ele>
        <time>2022-07-07T07:34:45Z</time>
      </trkpt>
      <trkpt lat="47.74238" lon="4.97429">
        <ele>376.68</ele>
        <time>2022-07-07T07:34:48Z</time>
      </trkpt>
      <trkpt lat="47.74236" lon="4.97426">
        <ele>376.67</ele>
        <time>2022-07-07T07:34:50Z</time>
      </trkpt>
      <trkpt lat="47.74234" lon="4.97423">
        <ele>376.67</ele>
        <time>2022-07-07T07:34:53Z</time>
      </trkpt>
      <trkpt lat="47.74232" lon="4.9742">
        <ele>376.69</ele>
        <time>2022-07-07T07:34:55Z</time>
      </trkpt>
      <trkpt lat="47.7423" lon="4.97417">
        <ele>376.72</ele>
        <time>2022-07-07T07:34:58Z</time>
      </trkpt>
      <trkpt lat="47.74228" lon="4.97414">
        <ele>376.79</ele>
        <time>2022-07-07T07:35:00Z</time>
      </trkpt>
      <trkpt lat="47.74225" lon="4.97411">
        <ele>376.9</ele>
        <time>2022-07-07T07:35:02Z</time>
      </trkpt>
      <trkpt lat="47.74223" lon="4.97407">
        <ele>376.97</ele>
        <time>2022-07-07T07:35:05Z</time>
      </trkpt>
      <trkpt lat="47.74221" lon="4.97404">
        <ele>377</ele>
        <time>2022-07-07T07:35:08Z</time>
      </trkpt>
      <trkpt lat="47.74219" lon="4.97401">
        <ele>376.99</ele>
        <time>2022-07-07T07:35:10Z</time>
      </trkpt>
      <trkpt lat="47.74217" lon="4.97398">
        <ele>376.94</ele>
        <time>2022-07-07T07:35:12Z</time>
      </trkpt>
      <trkpt lat="47.74215" lon="4.97394">
        <ele>376.84</ele>
        <time>2022-07-07T07:35:15Z</time>
      </trkpt>
      <trkpt lat="47.74213" lon="4.9739">
        <ele>376.69</ele>
        <time>2022-07-07T07:35:18Z</time>
      </trkpt>
      <trkpt lat="47.74211" lon="4.97387">
        <ele>376.61</ele>
        <time>2022-07-07T07:35:20Z</time>
      </trkpt>
      <trkpt lat="47.74209" lon="4.97383">
        <ele>376.53</ele>
        <time>2022-07-07T07:35:23Z</time>
      </trkpt>
      <trkpt lat="47.74208" lon="4.97379">
        <ele>376.48</ele>
        <time>2022-07-07T07:35:26Z</time>
      </trkpt>
      <trkpt lat="47.74206" lon="4.97375">
        <ele>376.33</ele>
        <time>2022-07-07T07:35:28Z</time>
      </trkpt>
      <trkpt lat="47.74205" lon="4.97371">
        <ele>376.23</ele>
        <time>2022-07-07T07:35:30Z</time>
      </trkpt>
      <trkpt lat="47.74203" lon="4.97367">
        <ele>376.01</ele>
        <time>2022-07-07T07:35:33Z</time>
      </trkpt>
      <trkpt lat="47.74202" lon="4.97363">
        <ele>375.85</ele>
        <time>2022-07-07T07:35:35Z</time>
      </trkpt>
      <trkpt lat="47.742" lon="4.97359">
        <ele>375.45</ele>
        <time>2022-07-07T07:35:38Z</time>
      </trkpt>
      <trkpt lat="47.74199" lon="4.97355">
        <ele>375.05</ele>
        <time>2022-07-07T07:35:41Z</time>
      </trkpt>
      <trkpt lat="47.74198" lon="4.97351">
        <ele>374.66</ele>
        <time>2022-07-07T07:35:43Z</time>
      </trkpt>
      <trkpt lat="47.74196" lon="4.97347">
        <ele>374.15</ele>
        <time>2022-07-07T07:35:46Z</time>
      </trkpt>
      <trkpt lat="47.74195" lon="4.97343">
        <ele>373.76</ele>
        <time>2022-07-07T07:35:49Z</time>
      </trkpt>
      <trkpt lat="47.74194" lon="4.97338">
        <ele>373.31</ele>
        <time>2022-07-07T07:35:51Z</time>
      </trkpt>
      <trkpt lat="47.74192" lon="4.97335">
        <ele>372.95</ele>
        <time>2022-07-07T07:35:54Z</time>
      </trkpt>
      <trkpt lat="47.74191" lon="4.97329">
        <ele>372.77</ele>
        <time>2022-07-07T07:35:57Z</time>
      </trkpt>
      <trkpt lat="47.7419" lon="4.97325">
        <ele>372.73</ele>
        <time>2022-07-07T07:35:59Z</time>
      </trkpt>
      <trkpt lat="47.74188" lon="4.97322">
        <ele>372.63</ele>
        <time>2022-07-07T07:36:02Z</time>
      </trkpt>
      <trkpt lat="47.74187" lon="4.97317">
        <ele>372.62</ele>
        <time>2022-07-07T07:36:05Z</time>
      </trkpt>
      <trkpt lat="47.74186" lon="4.97314">
        <ele>372.6</ele>
        <time>2022-07-07T07:36:06Z</time>
      </trkpt>
      <trkpt lat="47.74185" lon="4.9731">
        <ele>372.61</ele>
        <time>2022-07-07T07:36:09Z</time>
      </trkpt>
      <trkpt lat="47.74183" lon="4.97306">
        <ele>372.58</ele>
        <time>2022-07-07T07:36:12Z</time>
      </trkpt>
      <trkpt lat="47.74182" lon="4.97301">
        <ele>372.63</ele>
        <time>2022-07-07T07:36:15Z</time>
      </trkpt>
      <trkpt lat="47.7418" lon="4.97297">
        <ele>372.64</ele>
        <time>2022-07-07T07:36:18Z</time>
      </trkpt>
      <trkpt lat="47.74179" lon="4.97293">
        <ele>372.7</ele>
        <time>2022-07-07T07:36:20Z</time>
      </trkpt>
      <trkpt lat="47.74177" lon="4.97289">
        <ele>372.75</ele>
        <time>2022-07-07T07:36:22Z</time>
      </trkpt>
      <trkpt lat="47.74175" lon="4.97285">
        <ele>372.82</ele>
        <time>2022-07-07T07:36:25Z</time>
      </trkpt>
      <trkpt lat="47.74174" lon="4.97282">
        <ele>372.89</ele>
        <time>2022-07-07T07:36:28Z</time>
      </trkpt>
      <trkpt lat="47.74172" lon="4.97278">
        <ele>372.99</ele>
        <time>2022-07-07T07:36:30Z</time>
      </trkpt>
      <trkpt lat="47.7417" lon="4.97275">
        <ele>372.88</ele>
        <time>2022-07-07T07:36:32Z</time>
      </trkpt>
      <trkpt lat="47.74168" lon="4.97272">
        <ele>372.77</ele>
        <time>2022-07-07T07:36:35Z</time>
      </trkpt>
      <trkpt lat="47.74166" lon="4.97268">
        <ele>372.63</ele>
        <time>2022-07-07T07:36:38Z</time>
      </trkpt>
      <trkpt lat="47.74163" lon="4.97265">
        <ele>372.46</ele>
        <time>2022-07-07T07:36:41Z</time>
      </trkpt>
      <trkpt lat="47.74161" lon="4.97262">
        <ele>372.37</ele>
        <time>2022-07-07T07:36:44Z</time>
      </trkpt>
      <trkpt lat="47.74159" lon="4.97258">
        <ele>372.33</ele>
        <time>2022-07-07T07:36:46Z</time>
      </trkpt>
      <trkpt lat="47.74158" lon="4.97255">
        <ele>372.32</ele>
        <time>2022-07-07T07:36:48Z</time>
      </trkpt>
      <trkpt lat="47.74156" lon="4.97251">
        <ele>372.38</ele>
        <time>2022-07-07T07:36:51Z</time>
      </trkpt>
      <trkpt lat="47.74154" lon="4.97248">
        <ele>372.4</ele>
        <time>2022-07-07T07:36:53Z</time>
      </trkpt>
      <trkpt lat="47.74151" lon="4.97245">
        <ele>372.53</ele>
        <time>2022-07-07T07:36:55Z</time>
      </trkpt>
      <trkpt lat="47.74149" lon="4.97242">
        <ele>372.69</ele>
        <time>2022-07-07T07:36:58Z</time>
      </trkpt>
      <trkpt lat="47.74147" lon="4.97239">
        <ele>372.92</ele>
        <time>2022-07-07T07:37:00Z</time>
      </trkpt>
      <trkpt lat="47.74144" lon="4.97237">
        <ele>373.32</ele>
        <time>2022-07-07T07:37:02Z</time>
      </trkpt>
      <trkpt lat="47.74142" lon="4.97234">
        <ele>373.72</ele>
        <time>2022-07-07T07:37:05Z</time>
      </trkpt>
      <trkpt lat="47.7414" lon="4.97231">
        <ele>374.19</ele>
        <time>2022-07-07T07:37:07Z</time>
      </trkpt>
      <trkpt lat="47.74137" lon="4.97228">
        <ele>374.64</ele>
        <time>2022-07-07T07:37:10Z</time>
      </trkpt>
      <trkpt lat="47.74135" lon="4.97226">
        <ele>374.85</ele>
        <time>2022-07-07T07:37:12Z</time>
      </trkpt>
      <trkpt lat="47.74132" lon="4.97224">
        <ele>375.1</ele>
        <time>2022-07-07T07:37:15Z</time>
      </trkpt>
      <trkpt lat="47.7413" lon="4.97221">
        <ele>375.21</ele>
        <time>2022-07-07T07:37:17Z</time>
      </trkpt>
      <trkpt lat="47.74127" lon="4.97218">
        <ele>375.15</ele>
        <time>2022-07-07T07:37:19Z</time>
      </trkpt>
      <trkpt lat="47.74124" lon="4.97216">
        <ele>375.24</ele>
        <time>2022-07-07T07:37:22Z</time>
      </trkpt>
      <trkpt lat="47.74122" lon="4.97214">
        <ele>375.32</ele>
        <time>2022-07-07T07:37:25Z</time>
      </trkpt>
      <trkpt lat="47.74119" lon="4.97211">
        <ele>375.55</ele>
        <time>2022-07-07T07:37:28Z</time>
      </trkpt>
      <trkpt lat="47.74116" lon="4.9721">
        <ele>375.88</ele>
        <time>2022-07-07T07:37:29Z</time>
      </trkpt>
      <trkpt lat="47.74112" lon="4.97208">
        <ele>376.4</ele>
        <time>2022-07-07T07:37:33Z</time>
      </trkpt>
      <trkpt lat="47.7411" lon="4.97206">
        <ele>376.46</ele>
        <time>2022-07-07T07:37:34Z</time>
      </trkpt>
      <trkpt lat="47.74107" lon="4.97204">
        <ele>376.17</ele>
        <time>2022-07-07T07:37:36Z</time>
      </trkpt>
      <trkpt lat="47.74105" lon="4.97201">
        <ele>375.99</ele>
        <time>2022-07-07T07:37:38Z</time>
      </trkpt>
      <trkpt lat="47.74102" lon="4.97199">
        <ele>375.63</ele>
        <time>2022-07-07T07:37:41Z</time>
      </trkpt>
      <trkpt lat="47.741" lon="4.97197">
        <ele>375.38</ele>
        <time>2022-07-07T07:37:43Z</time>
      </trkpt>
      <trkpt lat="47.74097" lon="4.97195">
        <ele>374.97</ele>
        <time>2022-07-07T07:37:46Z</time>
      </trkpt>
      <trkpt lat="47.74094" lon="4.97193">
        <ele>374.57</ele>
        <time>2022-07-07T07:37:48Z</time>
      </trkpt>
      <trkpt lat="47.74091" lon="4.97191">
        <ele>374.27</ele>
        <time>2022-07-07T07:37:50Z</time>
      </trkpt>
      <trkpt lat="47.74088" lon="4.9719">
        <ele>373.99</ele>
        <time>2022-07-07T07:37:52Z</time>
      </trkpt>
      <trkpt lat="47.74084" lon="4.97188">
        <ele>373.76</ele>
        <time>2022-07-07T07:37:55Z</time>
      </trkpt>
      <trkpt lat="47.74081" lon="4.97187">
        <ele>373.65</ele>
        <time>2022-07-07T07:37:57Z</time>
      </trkpt>
      <trkpt lat="47.74078" lon="4.97186">
        <ele>373.54</ele>
        <time>2022-07-07T07:38:00Z</time>
      </trkpt>
      <trkpt lat="47.74075" lon="4.97185">
        <ele>373.41</ele>
        <time>2022-07-07T07:38:03Z</time>
      </trkpt>
      <trkpt lat="47.74072" lon="4.97184">
        <ele>373.26</ele>
        <time>2022-07-07T07:38:05Z</time>
      </trkpt>
      <trkpt lat="47.74069" lon="4.97185">
        <ele>372.98</ele>
        <time>2022-07-07T07:38:08Z</time>
      </trkpt>
      <trkpt lat="47.74067" lon="4.97184">
        <ele>372.88</ele>
        <time>2022-07-07T07:38:15Z</time>
      </trkpt>
      <trkpt lat="47.74064" lon="4.97182">
        <ele>372.71</ele>
        <time>2022-07-07T07:38:18Z</time>
      </trkpt>
      <trkpt lat="47.74061" lon="4.9718">
        <ele>372.5</ele>
        <time>2022-07-07T07:41:18Z</time>
      </trkpt>
      <trkpt lat="47.74058" lon="4.97178">
        <ele>372.24</ele>
        <time>2022-07-07T07:41:21Z</time>
      </trkpt>
      <trkpt lat="47.74055" lon="4.97176">
        <ele>371.96</ele>
        <time>2022-07-07T07:41:24Z</time>
      </trkpt>
      <trkpt lat="47.74052" lon="4.97174">
        <ele>371.74</ele>
        <time>2022-07-07T07:41:27Z</time>
      </trkpt>
      <trkpt lat="47.74049" lon="4.97173">
        <ele>371.53</ele>
        <time>2022-07-07T07:41:30Z</time>
      </trkpt>
      <trkpt lat="47.74046" lon="4.97172">
        <ele>371.31</ele>
        <time>2022-07-07T07:41:32Z</time>
      </trkpt>
      <trkpt lat="47.74043" lon="4.9717">
        <ele>371.1</ele>
        <time>2022-07-07T07:41:35Z</time>
      </trkpt>
      <trkpt lat="47.7404" lon="4.97168">
        <ele>370.88</ele>
        <time>2022-07-07T07:41:38Z</time>
      </trkpt>
      <trkpt lat="47.74037" lon="4.97166">
        <ele>370.63</ele>
        <time>2022-07-07T07:41:41Z</time>
      </trkpt>
      <trkpt lat="47.74034" lon="4.97164">
        <ele>370.36</ele>
        <time>2022-07-07T07:41:44Z</time>
      </trkpt>
      <trkpt lat="47.74031" lon="4.97163">
        <ele>370.17</ele>
        <time>2022-07-07T07:41:46Z</time>
      </trkpt>
      <trkpt lat="47.74028" lon="4.97162">
        <ele>370.01</ele>
        <time>2022-07-07T07:41:48Z</time>
      </trkpt>
      <trkpt lat="47.74026" lon="4.9716">
        <ele>370.45</ele>
        <time>2022-07-07T07:41:50Z</time>
      </trkpt>
      <trkpt lat="47.74023" lon="4.97159">
        <ele>371.19</ele>
        <time>2022-07-07T07:41:52Z</time>
      </trkpt>
      <trkpt lat="47.7402" lon="4.97157">
        <ele>371.85</ele>
        <time>2022-07-07T07:41:55Z</time>
      </trkpt>
      <trkpt lat="47.74017" lon="4.97157">
        <ele>372.56</ele>
        <time>2022-07-07T07:41:58Z</time>
      </trkpt>
      <trkpt lat="47.74014" lon="4.97156">
        <ele>373.21</ele>
        <time>2022-07-07T07:42:00Z</time>
      </trkpt>
      <trkpt lat="47.74011" lon="4.97154">
        <ele>373.73</ele>
        <time>2022-07-07T07:42:03Z</time>
      </trkpt>
      <trkpt lat="47.74008" lon="4.97152">
        <ele>374.19</ele>
        <time>2022-07-07T07:42:06Z</time>
      </trkpt>
      <trkpt lat="47.74005" lon="4.9715">
        <ele>374.59</ele>
        <time>2022-07-07T07:42:08Z</time>
      </trkpt>
      <trkpt lat="47.74003" lon="4.97147">
        <ele>374.61</ele>
        <time>2022-07-07T07:42:11Z</time>
      </trkpt>
      <trkpt lat="47.74001" lon="4.97144">
        <ele>374.57</ele>
        <time>2022-07-07T07:42:14Z</time>
      </trkpt>
      <trkpt lat="47.73998" lon="4.97142">
        <ele>374.71</ele>
        <time>2022-07-07T07:42:16Z</time>
      </trkpt>
      <trkpt lat="47.73995" lon="4.97141">
        <ele>374.98</ele>
        <time>2022-07-07T07:42:19Z</time>
      </trkpt>
      <trkpt lat="47.73993" lon="4.9714">
        <ele>375.14</ele>
        <time>2022-07-07T07:42:21Z</time>
      </trkpt>
      <trkpt lat="47.7399" lon="4.97138">
        <ele>375.36</ele>
        <time>2022-07-07T07:42:24Z</time>
      </trkpt>
      <trkpt lat="47.73987" lon="4.97136">
        <ele>375.65</ele>
        <time>2022-07-07T07:42:26Z</time>
      </trkpt>
      <trkpt lat="47.73985" lon="4.97134">
        <ele>375.84</ele>
        <time>2022-07-07T07:42:29Z</time>
      </trkpt>
      <trkpt lat="47.73982" lon="4.97132">
        <ele>376.24</ele>
        <time>2022-07-07T07:42:31Z</time>
      </trkpt>
      <trkpt lat="47.73979" lon="4.97131">
        <ele>376.75</ele>
        <time>2022-07-07T07:42:34Z</time>
      </trkpt>
      <trkpt lat="47.73977" lon="4.97129">
        <ele>377.07</ele>
        <time>2022-07-07T07:42:36Z</time>
      </trkpt>
      <trkpt lat="47.73974" lon="4.97126">
        <ele>377.63</ele>
        <time>2022-07-07T07:42:38Z</time>
      </trkpt>
      <trkpt lat="47.73972" lon="4.97124">
        <ele>378.04</ele>
        <time>2022-07-07T07:42:41Z</time>
      </trkpt>
      <trkpt lat="47.73969" lon="4.97122">
        <ele>378.6</ele>
        <time>2022-07-07T07:42:43Z</time>
      </trkpt>
      <trkpt lat="47.73966" lon="4.9712">
        <ele>379.11</ele>
        <time>2022-07-07T07:42:46Z</time>
      </trkpt>
      <trkpt lat="47.73963" lon="4.97119">
        <ele>379.61</ele>
        <time>2022-07-07T07:42:48Z</time>
      </trkpt>
      <trkpt lat="47.7396" lon="4.97118">
        <ele>380.09</ele>
        <time>2022-07-07T07:42:51Z</time>
      </trkpt>
      <trkpt lat="47.73957" lon="4.97116">
        <ele>380.48</ele>
        <time>2022-07-07T07:42:52Z</time>
      </trkpt>
      <trkpt lat="47.73955" lon="4.97114">
        <ele>380.67</ele>
        <time>2022-07-07T07:42:55Z</time>
      </trkpt>
      <trkpt lat="47.73952" lon="4.97112">
        <ele>380.98</ele>
        <time>2022-07-07T07:42:57Z</time>
      </trkpt>
      <trkpt lat="47.7395" lon="4.9711">
        <ele>381.01</ele>
        <time>2022-07-07T07:42:59Z</time>
      </trkpt>
      <trkpt lat="47.73947" lon="4.97107">
        <ele>380.91</ele>
        <time>2022-07-07T07:43:02Z</time>
      </trkpt>
      <trkpt lat="47.73945" lon="4.97104">
        <ele>380.65</ele>
        <time>2022-07-07T07:43:05Z</time>
      </trkpt>
      <trkpt lat="47.73942" lon="4.97101">
        <ele>380.28</ele>
        <time>2022-07-07T07:43:08Z</time>
      </trkpt>
      <trkpt lat="47.7394" lon="4.97098">
        <ele>379.87</ele>
        <time>2022-07-07T07:43:10Z</time>
      </trkpt>
      <trkpt lat="47.73937" lon="4.97096">
        <ele>379.72</ele>
        <time>2022-07-07T07:43:13Z</time>
      </trkpt>
      <trkpt lat="47.73934" lon="4.97094">
        <ele>379.61</ele>
        <time>2022-07-07T07:43:15Z</time>
      </trkpt>
      <trkpt lat="47.73931" lon="4.97093">
        <ele>379.69</ele>
        <time>2022-07-07T07:43:18Z</time>
      </trkpt>
      <trkpt lat="47.73928" lon="4.97091">
        <ele>379.67</ele>
        <time>2022-07-07T07:43:21Z</time>
      </trkpt>
      <trkpt lat="47.73926" lon="4.97089">
        <ele>379.61</ele>
        <time>2022-07-07T07:43:24Z</time>
      </trkpt>
      <trkpt lat="47.73923" lon="4.97087">
        <ele>379.67</ele>
        <time>2022-07-07T07:43:27Z</time>
      </trkpt>
      <trkpt lat="47.7392" lon="4.97086">
        <ele>379.87</ele>
        <time>2022-07-07T07:43:30Z</time>
      </trkpt>
      <trkpt lat="47.73917" lon="4.97086">
        <ele>380.16</ele>
        <time>2022-07-07T07:43:33Z</time>
      </trkpt>
      <trkpt lat="47.73915" lon="4.97087">
        <ele>380.1</ele>
        <time>2022-07-07T07:43:35Z</time>
      </trkpt>
      <trkpt lat="47.73912" lon="4.97087">
        <ele>379.79</ele>
        <time>2022-07-07T07:43:37Z</time>
      </trkpt>
      <trkpt lat="47.73909" lon="4.97086">
        <ele>379.33</ele>
        <time>2022-07-07T07:43:41Z</time>
      </trkpt>
      <trkpt lat="47.73906" lon="4.97084">
        <ele>378.59</ele>
        <time>2022-07-07T07:43:45Z</time>
      </trkpt>
      <trkpt lat="47.73904" lon="4.97081">
        <ele>377.9</ele>
        <time>2022-07-07T07:43:49Z</time>
      </trkpt>
      <trkpt lat="47.73902" lon="4.97079">
        <ele>377.45</ele>
        <time>2022-07-07T07:43:53Z</time>
      </trkpt>
      <trkpt lat="47.73899" lon="4.97077">
        <ele>376.96</ele>
        <time>2022-07-07T07:43:55Z</time>
      </trkpt>
      <trkpt lat="47.73896" lon="4.97075">
        <ele>376.56</ele>
        <time>2022-07-07T07:43:58Z</time>
      </trkpt>
      <trkpt lat="47.73893" lon="4.97073">
        <ele>376.26</ele>
        <time>2022-07-07T07:44:00Z</time>
      </trkpt>
      <trkpt lat="47.7389" lon="4.97072">
        <ele>376.06</ele>
        <time>2022-07-07T07:44:01Z</time>
      </trkpt>
      <trkpt lat="47.73887" lon="4.97071">
        <ele>376.36</ele>
        <time>2022-07-07T07:44:04Z</time>
      </trkpt>
      <trkpt lat="47.73884" lon="4.9707">
        <ele>376.89</ele>
        <time>2022-07-07T07:44:07Z</time>
      </trkpt>
      <trkpt lat="47.73881" lon="4.97068">
        <ele>377.36</ele>
        <time>2022-07-07T07:44:09Z</time>
      </trkpt>
      <trkpt lat="47.73878" lon="4.97068">
        <ele>377.88</ele>
        <time>2022-07-07T07:44:12Z</time>
      </trkpt>
      <trkpt lat="47.73875" lon="4.97068">
        <ele>378.4</ele>
        <time>2022-07-07T07:44:15Z</time>
      </trkpt>
      <trkpt lat="47.73873" lon="4.97067">
        <ele>378.66</ele>
        <time>2022-07-07T07:44:17Z</time>
      </trkpt>
      <trkpt lat="47.73869" lon="4.97066">
        <ele>379.22</ele>
        <time>2022-07-07T07:44:19Z</time>
      </trkpt>
      <trkpt lat="47.73866" lon="4.97065">
        <ele>379.59</ele>
        <time>2022-07-07T07:44:21Z</time>
      </trkpt>
      <trkpt lat="47.73863" lon="4.97063">
        <ele>379.8</ele>
        <time>2022-07-07T07:44:24Z</time>
      </trkpt>
      <trkpt lat="47.7386" lon="4.97061">
        <ele>379.61</ele>
        <time>2022-07-07T07:44:26Z</time>
      </trkpt>
      <trkpt lat="47.73857" lon="4.9706">
        <ele>378.97</ele>
        <time>2022-07-07T07:44:29Z</time>
      </trkpt>
      <trkpt lat="47.73855" lon="4.97059">
        <ele>378.48</ele>
        <time>2022-07-07T07:44:31Z</time>
      </trkpt>
      <trkpt lat="47.73852" lon="4.97059">
        <ele>377.98</ele>
        <time>2022-07-07T07:44:34Z</time>
      </trkpt>
      <trkpt lat="47.73848" lon="4.97058">
        <ele>377.12</ele>
        <time>2022-07-07T07:44:37Z</time>
      </trkpt>
      <trkpt lat="47.73846" lon="4.97058">
        <ele>376.78</ele>
        <time>2022-07-07T07:44:40Z</time>
      </trkpt>
      <trkpt lat="47.73843" lon="4.97057">
        <ele>376.05</ele>
        <time>2022-07-07T07:44:43Z</time>
      </trkpt>
      <trkpt lat="47.7384" lon="4.97056">
        <ele>375.3</ele>
        <time>2022-07-07T07:44:44Z</time>
      </trkpt>
      <trkpt lat="47.73837" lon="4.97056">
        <ele>374.77</ele>
        <time>2022-07-07T07:44:46Z</time>
      </trkpt>
      <trkpt lat="47.73834" lon="4.97055">
        <ele>374.02</ele>
        <time>2022-07-07T07:44:49Z</time>
      </trkpt>
      <trkpt lat="47.73831" lon="4.97055">
        <ele>373.73</ele>
        <time>2022-07-07T07:44:52Z</time>
      </trkpt>
      <trkpt lat="47.73828" lon="4.97054">
        <ele>373.33</ele>
        <time>2022-07-07T07:44:55Z</time>
      </trkpt>
      <trkpt lat="47.73824" lon="4.97053">
        <ele>372.84</ele>
        <time>2022-07-07T07:44:57Z</time>
      </trkpt>
      <trkpt lat="47.73821" lon="4.97053">
        <ele>372.61</ele>
        <time>2022-07-07T07:44:59Z</time>
      </trkpt>
      <trkpt lat="47.73818" lon="4.97052">
        <ele>372.19</ele>
        <time>2022-07-07T07:45:02Z</time>
      </trkpt>
      <trkpt lat="47.73815" lon="4.97051">
        <ele>371.75</ele>
        <time>2022-07-07T07:45:05Z</time>
      </trkpt>
      <trkpt lat="47.73812" lon="4.97051">
        <ele>371.52</ele>
        <time>2022-07-07T07:45:07Z</time>
      </trkpt>
      <trkpt lat="47.73809" lon="4.9705">
        <ele>371.07</ele>
        <time>2022-07-07T07:45:10Z</time>
      </trkpt>
      <trkpt lat="47.73806" lon="4.9705">
        <ele>370.84</ele>
        <time>2022-07-07T07:45:13Z</time>
      </trkpt>
      <trkpt lat="47.73802" lon="4.97049">
        <ele>370.78</ele>
        <time>2022-07-07T07:45:16Z</time>
      </trkpt>
      <trkpt lat="47.73799" lon="4.9705">
        <ele>371.18</ele>
        <time>2022-07-07T07:45:18Z</time>
      </trkpt>
      <trkpt lat="47.73796" lon="4.97049">
        <ele>371.11</ele>
        <time>2022-07-07T07:45:20Z</time>
      </trkpt>
      <trkpt lat="47.73793" lon="4.97049">
        <ele>371.27</ele>
        <time>2022-07-07T07:45:22Z</time>
      </trkpt>
      <trkpt lat="47.73791" lon="4.97049">
        <ele>371.38</ele>
        <time>2022-07-07T07:45:26Z</time>
      </trkpt>
      <trkpt lat="47.73788" lon="4.97049">
        <ele>371.55</ele>
        <time>2022-07-07T07:45:29Z</time>
      </trkpt>
      <trkpt lat="47.73785" lon="4.97049">
        <ele>371.71</ele>
        <time>2022-07-07T07:45:30Z</time>
      </trkpt>
      <trkpt lat="47.73781" lon="4.97049">
        <ele>371.93</ele>
        <time>2022-07-07T07:45:33Z</time>
      </trkpt>
      <trkpt lat="47.73779" lon="4.97049">
        <ele>372.04</ele>
        <time>2022-07-07T07:45:36Z</time>
      </trkpt>
      <trkpt lat="47.73776" lon="4.9705">
        <ele>372.37</ele>
        <time>2022-07-07T07:45:39Z</time>
      </trkpt>
      <trkpt lat="47.73773" lon="4.9705">
        <ele>372.33</ele>
        <time>2022-07-07T07:45:41Z</time>
      </trkpt>
      <trkpt lat="47.73769" lon="4.97051">
        <ele>372.53</ele>
        <time>2022-07-07T07:45:44Z</time>
      </trkpt>
      <trkpt lat="47.73766" lon="4.9705">
        <ele>372.23</ele>
        <time>2022-07-07T07:45:46Z</time>
      </trkpt>
      <trkpt lat="47.73763" lon="4.97049">
        <ele>371.96</ele>
        <time>2022-07-07T07:45:48Z</time>
      </trkpt>
      <trkpt lat="47.7376" lon="4.97049">
        <ele>371.93</ele>
        <time>2022-07-07T07:45:50Z</time>
      </trkpt>
      <trkpt lat="47.73757" lon="4.97048">
        <ele>371.69</ele>
        <time>2022-07-07T07:45:53Z</time>
      </trkpt>
      <trkpt lat="47.73753" lon="4.97047">
        <ele>371.47</ele>
        <time>2022-07-07T07:45:55Z</time>
      </trkpt>
      <trkpt lat="47.7375" lon="4.97047">
        <ele>371.46</ele>
        <time>2022-07-07T07:45:58Z</time>
      </trkpt>
      <trkpt lat="47.73747" lon="4.97046">
        <ele>371.5</ele>
        <time>2022-07-07T07:46:00Z</time>
      </trkpt>
      <trkpt lat="47.73744" lon="4.97046">
        <ele>371.71</ele>
        <time>2022-07-07T07:46:01Z</time>
      </trkpt>
      <trkpt lat="47.73741" lon="4.97046">
        <ele>371.93</ele>
        <time>2022-07-07T07:46:04Z</time>
      </trkpt>
      <trkpt lat="47.73738" lon="4.97047">
        <ele>372.32</ele>
        <time>2022-07-07T07:46:06Z</time>
      </trkpt>
      <trkpt lat="47.73735" lon="4.97046">
        <ele>372.36</ele>
        <time>2022-07-07T07:46:08Z</time>
      </trkpt>
      <trkpt lat="47.73731" lon="4.97046">
        <ele>372.65</ele>
        <time>2022-07-07T07:46:11Z</time>
      </trkpt>
      <trkpt lat="47.73728" lon="4.97046">
        <ele>372.86</ele>
        <time>2022-07-07T07:46:14Z</time>
      </trkpt>
      <trkpt lat="47.73725" lon="4.97045">
        <ele>372.9</ele>
        <time>2022-07-07T07:46:17Z</time>
      </trkpt>
      <trkpt lat="47.73722" lon="4.97044">
        <ele>372.9</ele>
        <time>2022-07-07T07:46:19Z</time>
      </trkpt>
      <trkpt lat="47.73719" lon="4.97044">
        <ele>372.65</ele>
        <time>2022-07-07T07:46:21Z</time>
      </trkpt>
      <trkpt lat="47.73713" lon="4.97042">
        <ele>371.88</ele>
        <time>2022-07-07T07:46:25Z</time>
      </trkpt>
      <trkpt lat="47.73708" lon="4.9704">
        <ele>371.3</ele>
        <time>2022-07-07T07:46:29Z</time>
      </trkpt>
      <trkpt lat="47.73706" lon="4.97039">
        <ele>371.08</ele>
        <time>2022-07-07T07:46:31Z</time>
      </trkpt>
      <trkpt lat="47.73703" lon="4.97037">
        <ele>370.74</ele>
        <time>2022-07-07T07:46:34Z</time>
      </trkpt>
      <trkpt lat="47.737" lon="4.97036">
        <ele>370.53</ele>
        <time>2022-07-07T07:46:37Z</time>
      </trkpt>
      <trkpt lat="47.73696" lon="4.97036">
        <ele>370.36</ele>
        <time>2022-07-07T07:46:40Z</time>
      </trkpt>
      <trkpt lat="47.73694" lon="4.97036">
        <ele>370.27</ele>
        <time>2022-07-07T07:46:42Z</time>
      </trkpt>
      <trkpt lat="47.73691" lon="4.97036">
        <ele>370.08</ele>
        <time>2022-07-07T07:46:44Z</time>
      </trkpt>
      <trkpt lat="47.73688" lon="4.97037">
        <ele>369.95</ele>
        <time>2022-07-07T07:46:46Z</time>
      </trkpt>
      <trkpt lat="47.73685" lon="4.97039">
        <ele>369.86</ele>
        <time>2022-07-07T07:46:49Z</time>
      </trkpt>
      <trkpt lat="47.73682" lon="4.97041">
        <ele>369.79</ele>
        <time>2022-07-07T07:46:52Z</time>
      </trkpt>
      <trkpt lat="47.73679" lon="4.97043">
        <ele>369.74</ele>
        <time>2022-07-07T07:46:54Z</time>
      </trkpt>
      <trkpt lat="47.73676" lon="4.97045">
        <ele>369.7</ele>
        <time>2022-07-07T07:46:57Z</time>
      </trkpt>
      <trkpt lat="47.73673" lon="4.97046">
        <ele>369.62</ele>
        <time>2022-07-07T07:47:00Z</time>
      </trkpt>
      <trkpt lat="47.73671" lon="4.97048">
        <ele>369.65</ele>
        <time>2022-07-07T07:47:02Z</time>
      </trkpt>
      <trkpt lat="47.73668" lon="4.97051">
        <ele>369.73</ele>
        <time>2022-07-07T07:47:05Z</time>
      </trkpt>
      <trkpt lat="47.73665" lon="4.97053">
        <ele>369.83</ele>
        <time>2022-07-07T07:47:08Z</time>
      </trkpt>
      <trkpt lat="47.73662" lon="4.97056">
        <ele>370.02</ele>
        <time>2022-07-07T07:47:11Z</time>
      </trkpt>
      <trkpt lat="47.73659" lon="4.97057">
        <ele>370.08</ele>
        <time>2022-07-07T07:47:13Z</time>
      </trkpt>
      <trkpt lat="47.73657" lon="4.97059">
        <ele>370.21</ele>
        <time>2022-07-07T07:47:16Z</time>
      </trkpt>
      <trkpt lat="47.73654" lon="4.97061">
        <ele>370.37</ele>
        <time>2022-07-07T07:47:18Z</time>
      </trkpt>
      <trkpt lat="47.73651" lon="4.97063">
        <ele>370.57</ele>
        <time>2022-07-07T07:47:20Z</time>
      </trkpt>
      <trkpt lat="47.73648" lon="4.97065">
        <ele>370.8</ele>
        <time>2022-07-07T07:47:23Z</time>
      </trkpt>
      <trkpt lat="47.73645" lon="4.97067">
        <ele>371.05</ele>
        <time>2022-07-07T07:47:25Z</time>
      </trkpt>
      <trkpt lat="47.73642" lon="4.97069">
        <ele>371.34</ele>
        <time>2022-07-07T07:47:28Z</time>
      </trkpt>
      <trkpt lat="47.73639" lon="4.9707">
        <ele>371.56</ele>
        <time>2022-07-07T07:47:30Z</time>
      </trkpt>
      <trkpt lat="47.73635" lon="4.97071">
        <ele>372.31</ele>
        <time>2022-07-07T07:47:32Z</time>
      </trkpt>
      <trkpt lat="47.73632" lon="4.97071">
        <ele>372.8</ele>
        <time>2022-07-07T07:47:35Z</time>
      </trkpt>
      <trkpt lat="47.73629" lon="4.97072">
        <ele>373.41</ele>
        <time>2022-07-07T07:47:38Z</time>
      </trkpt>
      <trkpt lat="47.73626" lon="4.97072">
        <ele>373.91</ele>
        <time>2022-07-07T07:47:40Z</time>
      </trkpt>
      <trkpt lat="47.73623" lon="4.97072">
        <ele>374.4</ele>
        <time>2022-07-07T07:47:42Z</time>
      </trkpt>
      <trkpt lat="47.7362" lon="4.97071">
        <ele>374.77</ele>
        <time>2022-07-07T07:47:44Z</time>
      </trkpt>
      <trkpt lat="47.73618" lon="4.9707">
        <ele>374.96</ele>
        <time>2022-07-07T07:47:46Z</time>
      </trkpt>
      <trkpt lat="47.73614" lon="4.97068">
        <ele>375.33</ele>
        <time>2022-07-07T07:47:49Z</time>
      </trkpt>
      <trkpt lat="47.73611" lon="4.97067">
        <ele>375.65</ele>
        <time>2022-07-07T07:47:51Z</time>
      </trkpt>
      <trkpt lat="47.73608" lon="4.97067">
        <ele>375.6</ele>
        <time>2022-07-07T07:47:52Z</time>
      </trkpt>
      <trkpt lat="47.73605" lon="4.97067">
        <ele>375.56</ele>
        <time>2022-07-07T07:47:54Z</time>
      </trkpt>
      <trkpt lat="47.73602" lon="4.97066">
        <ele>375.38</ele>
        <time>2022-07-07T07:47:58Z</time>
      </trkpt>
      <trkpt lat="47.73599" lon="4.97065">
        <ele>375.21</ele>
        <time>2022-07-07T07:48:00Z</time>
      </trkpt>
      <trkpt lat="47.73596" lon="4.97064">
        <ele>375.05</ele>
        <time>2022-07-07T07:48:03Z</time>
      </trkpt>
      <trkpt lat="47.73593" lon="4.97063">
        <ele>374.9</ele>
        <time>2022-07-07T07:48:08Z</time>
      </trkpt>
      <trkpt lat="47.7359" lon="4.97061">
        <ele>374.64</ele>
        <time>2022-07-07T07:48:11Z</time>
      </trkpt>
      <trkpt lat="47.73587" lon="4.9706">
        <ele>374.5</ele>
        <time>2022-07-07T07:48:13Z</time>
      </trkpt>
      <trkpt lat="47.73584" lon="4.97059">
        <ele>374.37</ele>
        <time>2022-07-07T07:48:15Z</time>
      </trkpt>
      <trkpt lat="47.73581" lon="4.97057">
        <ele>373.99</ele>
        <time>2022-07-07T07:48:19Z</time>
      </trkpt>
      <trkpt lat="47.73578" lon="4.97056">
        <ele>373.66</ele>
        <time>2022-07-07T07:48:21Z</time>
      </trkpt>
      <trkpt lat="47.73575" lon="4.97055">
        <ele>373.33</ele>
        <time>2022-07-07T07:48:24Z</time>
      </trkpt>
      <trkpt lat="47.73572" lon="4.97054">
        <ele>372.97</ele>
        <time>2022-07-07T07:48:26Z</time>
      </trkpt>
      <trkpt lat="47.73569" lon="4.97053">
        <ele>372.6</ele>
        <time>2022-07-07T07:48:28Z</time>
      </trkpt>
      <trkpt lat="47.73566" lon="4.97052">
        <ele>372.21</ele>
        <time>2022-07-07T07:48:30Z</time>
      </trkpt>
      <trkpt lat="47.73563" lon="4.97052">
        <ele>371.96</ele>
        <time>2022-07-07T07:48:33Z</time>
      </trkpt>
      <trkpt lat="47.7356" lon="4.97051">
        <ele>371.55</ele>
        <time>2022-07-07T07:48:35Z</time>
      </trkpt>
      <trkpt lat="47.73557" lon="4.97051">
        <ele>371.3</ele>
        <time>2022-07-07T07:48:38Z</time>
      </trkpt>
      <trkpt lat="47.73554" lon="4.9705">
        <ele>371.09</ele>
        <time>2022-07-07T07:48:40Z</time>
      </trkpt>
      <trkpt lat="47.7355" lon="4.9705">
        <ele>371.32</ele>
        <time>2022-07-07T07:48:43Z</time>
      </trkpt>
      <trkpt lat="47.73547" lon="4.97049">
        <ele>371.35</ele>
        <time>2022-07-07T07:48:46Z</time>
      </trkpt>
      <trkpt lat="47.73544" lon="4.97047">
        <ele>371.26</ele>
        <time>2022-07-07T07:48:48Z</time>
      </trkpt>
      <trkpt lat="47.73541" lon="4.97046">
        <ele>371.34</ele>
        <time>2022-07-07T07:48:50Z</time>
      </trkpt>
      <trkpt lat="47.73538" lon="4.97045">
        <ele>371.45</ele>
        <time>2022-07-07T07:48:54Z</time>
      </trkpt>
      <trkpt lat="47.73535" lon="4.97044">
        <ele>371.58</ele>
        <time>2022-07-07T07:48:56Z</time>
      </trkpt>
      <trkpt lat="47.73531" lon="4.97044">
        <ele>371.91</ele>
        <time>2022-07-07T07:49:00Z</time>
      </trkpt>
      <trkpt lat="47.73528" lon="4.97044">
        <ele>372.15</ele>
        <time>2022-07-07T07:49:02Z</time>
      </trkpt>
      <trkpt lat="47.73525" lon="4.97044">
        <ele>371.68</ele>
        <time>2022-07-07T07:49:05Z</time>
      </trkpt>
      <trkpt lat="47.73522" lon="4.97044">
        <ele>371.16</ele>
        <time>2022-07-07T07:49:09Z</time>
      </trkpt>
      <trkpt lat="47.73518" lon="4.97044">
        <ele>370.47</ele>
        <time>2022-07-07T07:49:13Z</time>
      </trkpt>
      <trkpt lat="47.73515" lon="4.97044">
        <ele>369.95</ele>
        <time>2022-07-07T07:49:14Z</time>
      </trkpt>
      <trkpt lat="47.73512" lon="4.97044">
        <ele>369.42</ele>
        <time>2022-07-07T07:49:16Z</time>
      </trkpt>
      <trkpt lat="47.73509" lon="4.97044">
        <ele>368.9</ele>
        <time>2022-07-07T07:49:18Z</time>
      </trkpt>
      <trkpt lat="47.73506" lon="4.97044">
        <ele>368.38</ele>
        <time>2022-07-07T07:49:21Z</time>
      </trkpt>
      <trkpt lat="47.73503" lon="4.97043">
        <ele>367.72</ele>
        <time>2022-07-07T07:49:23Z</time>
      </trkpt>
      <trkpt lat="47.735" lon="4.97043">
        <ele>367.19</ele>
        <time>2022-07-07T07:49:25Z</time>
      </trkpt>
      <trkpt lat="47.73497" lon="4.97043">
        <ele>367.18</ele>
        <time>2022-07-07T07:49:28Z</time>
      </trkpt>
      <trkpt lat="47.73494" lon="4.97043">
        <ele>367.17</ele>
        <time>2022-07-07T07:49:30Z</time>
      </trkpt>
      <trkpt lat="47.73491" lon="4.97043">
        <ele>367.16</ele>
        <time>2022-07-07T07:49:32Z</time>
      </trkpt>
      <trkpt lat="47.73488" lon="4.97043">
        <ele>367.15</ele>
        <time>2022-07-07T07:49:35Z</time>
      </trkpt>
      <trkpt lat="47.73485" lon="4.97044">
        <ele>367.25</ele>
        <time>2022-07-07T07:49:39Z</time>
      </trkpt>
      <trkpt lat="47.73482" lon="4.97043">
        <ele>367.13</ele>
        <time>2022-07-07T07:49:46Z</time>
      </trkpt>
      <trkpt lat="47.73479" lon="4.97043">
        <ele>367.12</ele>
        <time>2022-07-07T07:49:49Z</time>
      </trkpt>
      <trkpt lat="47.73476" lon="4.97042">
        <ele>367.03</ele>
        <time>2022-07-07T07:49:51Z</time>
      </trkpt>
      <trkpt lat="47.73473" lon="4.97042">
        <ele>367.02</ele>
        <time>2022-07-07T07:49:54Z</time>
      </trkpt>
      <trkpt lat="47.7347" lon="4.97042">
        <ele>367.19</ele>
        <time>2022-07-07T07:49:57Z</time>
      </trkpt>
      <trkpt lat="47.73467" lon="4.97042">
        <ele>367.4</ele>
        <time>2022-07-07T07:49:59Z</time>
      </trkpt>
      <trkpt lat="47.73464" lon="4.97043">
        <ele>367.72</ele>
        <time>2022-07-07T07:50:01Z</time>
      </trkpt>
      <trkpt lat="47.73461" lon="4.97043">
        <ele>367.94</ele>
        <time>2022-07-07T07:50:04Z</time>
      </trkpt>
      <trkpt lat="47.73458" lon="4.97044">
        <ele>368.28</ele>
        <time>2022-07-07T07:50:07Z</time>
      </trkpt>
      <trkpt lat="47.73455" lon="4.97044">
        <ele>368.51</ele>
        <time>2022-07-07T07:50:10Z</time>
      </trkpt>
      <trkpt lat="47.73452" lon="4.97044">
        <ele>368.75</ele>
        <time>2022-07-07T07:50:12Z</time>
      </trkpt>
      <trkpt lat="47.73449" lon="4.97043">
        <ele>368.85</ele>
        <time>2022-07-07T07:50:16Z</time>
      </trkpt>
      <trkpt lat="47.73447" lon="4.97042">
        <ele>368.86</ele>
        <time>2022-07-07T07:50:20Z</time>
      </trkpt>
      <trkpt lat="47.73443" lon="4.97042">
        <ele>369.44</ele>
        <time>2022-07-07T07:50:24Z</time>
      </trkpt>
      <trkpt lat="47.7344" lon="4.97042">
        <ele>370.25</ele>
        <time>2022-07-07T07:50:27Z</time>
      </trkpt>
      <trkpt lat="47.73437" lon="4.97042">
        <ele>371.06</ele>
        <time>2022-07-07T07:50:30Z</time>
      </trkpt>
      <trkpt lat="47.73434" lon="4.97042">
        <ele>371.87</ele>
        <time>2022-07-07T07:50:33Z</time>
      </trkpt>
      <trkpt lat="47.7343" lon="4.97042">
        <ele>372.95</ele>
        <time>2022-07-07T07:50:36Z</time>
      </trkpt>
      <trkpt lat="47.73427" lon="4.97042">
        <ele>373.77</ele>
        <time>2022-07-07T07:50:38Z</time>
      </trkpt>
      <trkpt lat="47.73424" lon="4.97043">
        <ele>374.75</ele>
        <time>2022-07-07T07:50:40Z</time>
      </trkpt>
      <trkpt lat="47.73422" lon="4.97043">
        <ele>375.29</ele>
        <time>2022-07-07T07:50:44Z</time>
      </trkpt>
      <trkpt lat="47.73419" lon="4.97044">
        <ele>376.28</ele>
        <time>2022-07-07T07:50:46Z</time>
      </trkpt>
      <trkpt lat="47.73416" lon="4.97045">
        <ele>377.16</ele>
        <time>2022-07-07T07:50:49Z</time>
      </trkpt>
      <trkpt lat="47.73413" lon="4.97044">
        <ele>377.26</ele>
        <time>2022-07-07T07:50:54Z</time>
      </trkpt>
      <trkpt lat="47.7341" lon="4.97044">
        <ele>377.54</ele>
        <time>2022-07-07T07:51:00Z</time>
      </trkpt>
      <trkpt lat="47.73407" lon="4.97044">
        <ele>377.82</ele>
        <time>2022-07-07T07:51:03Z</time>
      </trkpt>
      <trkpt lat="47.73404" lon="4.97044">
        <ele>378.1</ele>
        <time>2022-07-07T07:51:05Z</time>
      </trkpt>
      <trkpt lat="47.73401" lon="4.97044">
        <ele>378.38</ele>
        <time>2022-07-07T07:51:07Z</time>
      </trkpt>
      <trkpt lat="47.73398" lon="4.97043">
        <ele>378.45</ele>
        <time>2022-07-07T07:51:09Z</time>
      </trkpt>
      <trkpt lat="47.73395" lon="4.97042">
        <ele>378.52</ele>
        <time>2022-07-07T07:51:13Z</time>
      </trkpt>
      <trkpt lat="47.73392" lon="4.97042">
        <ele>378.79</ele>
        <time>2022-07-07T07:51:16Z</time>
      </trkpt>
      <trkpt lat="47.73389" lon="4.97041">
        <ele>378.85</ele>
        <time>2022-07-07T07:51:18Z</time>
      </trkpt>
      <trkpt lat="47.73386" lon="4.97042">
        <ele>378.86</ele>
        <time>2022-07-07T07:51:20Z</time>
      </trkpt>
      <trkpt lat="47.73382" lon="4.97042">
        <ele>378.58</ele>
        <time>2022-07-07T07:51:23Z</time>
      </trkpt>
      <trkpt lat="47.73378" lon="4.97043">
        <ele>378.5</ele>
        <time>2022-07-07T07:51:25Z</time>
      </trkpt>
      <trkpt lat="47.73375" lon="4.97044">
        <ele>378.5</ele>
        <time>2022-07-07T07:51:27Z</time>
      </trkpt>
      <trkpt lat="47.73373" lon="4.97045">
        <ele>378.58</ele>
        <time>2022-07-07T07:51:29Z</time>
      </trkpt>
      <trkpt lat="47.73369" lon="4.97047">
        <ele>378.72</ele>
        <time>2022-07-07T07:51:32Z</time>
      </trkpt>
      <trkpt lat="47.73367" lon="4.97048">
        <ele>378.79</ele>
        <time>2022-07-07T07:51:35Z</time>
      </trkpt>
      <trkpt lat="47.73363" lon="4.97049">
        <ele>378.72</ele>
        <time>2022-07-07T07:51:39Z</time>
      </trkpt>
      <trkpt lat="47.7336" lon="4.97051">
        <ele>378.86</ele>
        <time>2022-07-07T07:51:41Z</time>
      </trkpt>
      <trkpt lat="47.73357" lon="4.97051">
        <ele>378.42</ele>
        <time>2022-07-07T07:51:43Z</time>
      </trkpt>
      <trkpt lat="47.73353" lon="4.97052">
        <ele>378</ele>
        <time>2022-07-07T07:51:47Z</time>
      </trkpt>
      <trkpt lat="47.73349" lon="4.97053">
        <ele>377.51</ele>
        <time>2022-07-07T07:51:49Z</time>
      </trkpt>
      <trkpt lat="47.73346" lon="4.97054">
        <ele>377.13</ele>
        <time>2022-07-07T07:51:51Z</time>
      </trkpt>
      <trkpt lat="47.73343" lon="4.97055">
        <ele>376.7</ele>
        <time>2022-07-07T07:51:55Z</time>
      </trkpt>
      <trkpt lat="47.73341" lon="4.97056">
        <ele>376.4</ele>
        <time>2022-07-07T07:51:57Z</time>
      </trkpt>
      <trkpt lat="47.73338" lon="4.97059">
        <ele>375.98</ele>
        <time>2022-07-07T07:52:02Z</time>
      </trkpt>
      <trkpt lat="47.73335" lon="4.9706">
        <ele>375.47</ele>
        <time>2022-07-07T07:52:05Z</time>
      </trkpt>
      <trkpt lat="47.73332" lon="4.97062">
        <ele>375.35</ele>
        <time>2022-07-07T07:52:08Z</time>
      </trkpt>
      <trkpt lat="47.7333" lon="4.97063">
        <ele>375.56</ele>
        <time>2022-07-07T07:52:11Z</time>
      </trkpt>
      <trkpt lat="47.73326" lon="4.97065">
        <ele>375.95</ele>
        <time>2022-07-07T07:52:15Z</time>
      </trkpt>
      <trkpt lat="47.73322" lon="4.97065">
        <ele>376.29</ele>
        <time>2022-07-07T07:52:19Z</time>
      </trkpt>
      <trkpt lat="47.73319" lon="4.97064">
        <ele>376.54</ele>
        <time>2022-07-07T07:52:21Z</time>
      </trkpt>
      <trkpt lat="47.73316" lon="4.97064">
        <ele>376.8</ele>
        <time>2022-07-07T07:52:24Z</time>
      </trkpt>
      <trkpt lat="47.73312" lon="4.97064">
        <ele>377.14</ele>
        <time>2022-07-07T07:52:27Z</time>
      </trkpt>
      <trkpt lat="47.73309" lon="4.97066">
        <ele>377.35</ele>
        <time>2022-07-07T07:52:29Z</time>
      </trkpt>
      <trkpt lat="47.73307" lon="4.97069">
        <ele>377.41</ele>
        <time>2022-07-07T07:52:32Z</time>
      </trkpt>
      <trkpt lat="47.73304" lon="4.97072">
        <ele>377.48</ele>
        <time>2022-07-07T07:52:35Z</time>
      </trkpt>
      <trkpt lat="47.73301" lon="4.97074">
        <ele>377.5</ele>
        <time>2022-07-07T07:52:37Z</time>
      </trkpt>
      <trkpt lat="47.73298" lon="4.97075">
        <ele>377.54</ele>
        <time>2022-07-07T07:52:41Z</time>
      </trkpt>
      <trkpt lat="47.73294" lon="4.97076">
        <ele>377.59</ele>
        <time>2022-07-07T07:52:43Z</time>
      </trkpt>
      <trkpt lat="47.7329" lon="4.97078">
        <ele>377.51</ele>
        <time>2022-07-07T07:52:46Z</time>
      </trkpt>
      <trkpt lat="47.73287" lon="4.97079">
        <ele>377.47</ele>
        <time>2022-07-07T07:52:48Z</time>
      </trkpt>
      <trkpt lat="47.73284" lon="4.97081">
        <ele>377.28</ele>
        <time>2022-07-07T07:52:50Z</time>
      </trkpt>
      <trkpt lat="47.73281" lon="4.97083">
        <ele>377.04</ele>
        <time>2022-07-07T07:52:52Z</time>
      </trkpt>
      <trkpt lat="47.73278" lon="4.97085">
        <ele>377.18</ele>
        <time>2022-07-07T07:52:55Z</time>
      </trkpt>
      <trkpt lat="47.73275" lon="4.97087">
        <ele>377.6</ele>
        <time>2022-07-07T07:52:57Z</time>
      </trkpt>
      <trkpt lat="47.73272" lon="4.97089">
        <ele>378.03</ele>
        <time>2022-07-07T07:53:00Z</time>
      </trkpt>
      <trkpt lat="47.73269" lon="4.9709">
        <ele>378.35</ele>
        <time>2022-07-07T07:53:01Z</time>
      </trkpt>
      <trkpt lat="47.73266" lon="4.97092">
        <ele>378.78</ele>
        <time>2022-07-07T07:53:03Z</time>
      </trkpt>
      <trkpt lat="47.73263" lon="4.97093">
        <ele>379.11</ele>
        <time>2022-07-07T07:53:05Z</time>
      </trkpt>
      <trkpt lat="47.7326" lon="4.97094">
        <ele>379.43</ele>
        <time>2022-07-07T07:53:08Z</time>
      </trkpt>
      <trkpt lat="47.73257" lon="4.97095">
        <ele>379.76</ele>
        <time>2022-07-07T07:53:10Z</time>
      </trkpt>
      <trkpt lat="47.73254" lon="4.97097">
        <ele>380.19</ele>
        <time>2022-07-07T07:53:13Z</time>
      </trkpt>
      <trkpt lat="47.73251" lon="4.97099">
        <ele>380.62</ele>
        <time>2022-07-07T07:53:16Z</time>
      </trkpt>
      <trkpt lat="47.73248" lon="4.97101">
        <ele>381.15</ele>
        <time>2022-07-07T07:53:18Z</time>
      </trkpt>
      <trkpt lat="47.73245" lon="4.97102">
        <ele>381.62</ele>
        <time>2022-07-07T07:53:19Z</time>
      </trkpt>
      <trkpt lat="47.7324" lon="4.97104">
        <ele>382.4</ele>
        <time>2022-07-07T07:53:23Z</time>
      </trkpt>
      <trkpt lat="47.73236" lon="4.97108">
        <ele>383.23</ele>
        <time>2022-07-07T07:53:26Z</time>
      </trkpt>
      <trkpt lat="47.73233" lon="4.9711">
        <ele>383.74</ele>
        <time>2022-07-07T07:53:28Z</time>
      </trkpt>
      <trkpt lat="47.73231" lon="4.97112">
        <ele>384.16</ele>
        <time>2022-07-07T07:53:30Z</time>
      </trkpt>
      <trkpt lat="47.73228" lon="4.97114">
        <ele>384.71</ele>
        <time>2022-07-07T07:53:33Z</time>
      </trkpt>
      <trkpt lat="47.73225" lon="4.97115">
        <ele>385.13</ele>
        <time>2022-07-07T07:53:35Z</time>
      </trkpt>
      <trkpt lat="47.73222" lon="4.97117">
        <ele>385.65</ele>
        <time>2022-07-07T07:53:37Z</time>
      </trkpt>
      <trkpt lat="47.73219" lon="4.97118">
        <ele>385.92</ele>
        <time>2022-07-07T07:53:40Z</time>
      </trkpt>
      <trkpt lat="47.73216" lon="4.97119">
        <ele>386.2</ele>
        <time>2022-07-07T07:53:42Z</time>
      </trkpt>
      <trkpt lat="47.73214" lon="4.97121">
        <ele>386.57</ele>
        <time>2022-07-07T07:53:45Z</time>
      </trkpt>
      <trkpt lat="47.73211" lon="4.97125">
        <ele>387.31</ele>
        <time>2022-07-07T07:53:48Z</time>
      </trkpt>
      <trkpt lat="47.73208" lon="4.97128">
        <ele>387.96</ele>
        <time>2022-07-07T07:53:50Z</time>
      </trkpt>
      <trkpt lat="47.73204" lon="4.97131">
        <ele>388.74</ele>
        <time>2022-07-07T07:53:54Z</time>
      </trkpt>
      <trkpt lat="47.73201" lon="4.97133">
        <ele>389.33</ele>
        <time>2022-07-07T07:53:55Z</time>
      </trkpt>
      <trkpt lat="47.73198" lon="4.97135">
        <ele>389.95</ele>
        <time>2022-07-07T07:53:58Z</time>
      </trkpt>
      <trkpt lat="47.73196" lon="4.97137">
        <ele>390.5</ele>
        <time>2022-07-07T07:54:00Z</time>
      </trkpt>
      <trkpt lat="47.73194" lon="4.97139">
        <ele>391.03</ele>
        <time>2022-07-07T07:54:03Z</time>
      </trkpt>
      <trkpt lat="47.73191" lon="4.97141">
        <ele>391.42</ele>
        <time>2022-07-07T07:54:05Z</time>
      </trkpt>
      <trkpt lat="47.73189" lon="4.97144">
        <ele>391.9</ele>
        <time>2022-07-07T07:54:07Z</time>
      </trkpt>
      <trkpt lat="47.73187" lon="4.97147">
        <ele>392.36</ele>
        <time>2022-07-07T07:54:11Z</time>
      </trkpt>
      <trkpt lat="47.73184" lon="4.97148">
        <ele>392.56</ele>
        <time>2022-07-07T07:54:13Z</time>
      </trkpt>
      <trkpt lat="47.7318" lon="4.97152">
        <ele>393.16</ele>
        <time>2022-07-07T07:54:17Z</time>
      </trkpt>
      <trkpt lat="47.73177" lon="4.97158">
        <ele>393.95</ele>
        <time>2022-07-07T07:54:21Z</time>
      </trkpt>
      <trkpt lat="47.73175" lon="4.97162">
        <ele>394.45</ele>
        <time>2022-07-07T07:54:25Z</time>
      </trkpt>
      <trkpt lat="47.73173" lon="4.97165">
        <ele>394.81</ele>
        <time>2022-07-07T07:54:29Z</time>
      </trkpt>
      <trkpt lat="47.73171" lon="4.97168">
        <ele>395.07</ele>
        <time>2022-07-07T07:54:32Z</time>
      </trkpt>
      <trkpt lat="47.73168" lon="4.97171">
        <ele>395.28</ele>
        <time>2022-07-07T07:54:34Z</time>
      </trkpt>
      <trkpt lat="47.73166" lon="4.97173">
        <ele>395.5</ele>
        <time>2022-07-07T07:54:36Z</time>
      </trkpt>
      <trkpt lat="47.73164" lon="4.97176">
        <ele>395.83</ele>
        <time>2022-07-07T07:54:38Z</time>
      </trkpt>
      <trkpt lat="47.73162" lon="4.97179">
        <ele>396.15</ele>
        <time>2022-07-07T07:54:40Z</time>
      </trkpt>
      <trkpt lat="47.7316" lon="4.97182">
        <ele>396.45</ele>
        <time>2022-07-07T07:54:43Z</time>
      </trkpt>
      <trkpt lat="47.73158" lon="4.97185">
        <ele>396.74</ele>
        <time>2022-07-07T07:54:45Z</time>
      </trkpt>
      <trkpt lat="47.73156" lon="4.97188">
        <ele>397.01</ele>
        <time>2022-07-07T07:54:48Z</time>
      </trkpt>
      <trkpt lat="47.73153" lon="4.97191">
        <ele>397.31</ele>
        <time>2022-07-07T07:54:50Z</time>
      </trkpt>
      <trkpt lat="47.73151" lon="4.97194">
        <ele>397.54</ele>
        <time>2022-07-07T07:54:53Z</time>
      </trkpt>
      <trkpt lat="47.73148" lon="4.97196">
        <ele>397.56</ele>
        <time>2022-07-07T07:54:56Z</time>
      </trkpt>
      <trkpt lat="47.73146" lon="4.97199">
        <ele>397.42</ele>
        <time>2022-07-07T07:54:58Z</time>
      </trkpt>
      <trkpt lat="47.73144" lon="4.97202">
        <ele>397.27</ele>
        <time>2022-07-07T07:55:01Z</time>
      </trkpt>
      <trkpt lat="47.73142" lon="4.97205">
        <ele>397.13</ele>
        <time>2022-07-07T07:55:04Z</time>
      </trkpt>
      <trkpt lat="47.73139" lon="4.97209">
        <ele>396.95</ele>
        <time>2022-07-07T07:55:08Z</time>
      </trkpt>
      <trkpt lat="47.73137" lon="4.97212">
        <ele>396.59</ele>
        <time>2022-07-07T07:55:15Z</time>
      </trkpt>
      <trkpt lat="47.73135" lon="4.97215">
        <ele>396.27</ele>
        <time>2022-07-07T07:55:17Z</time>
      </trkpt>
      <trkpt lat="47.73134" lon="4.97219">
        <ele>395.99</ele>
        <time>2022-07-07T07:55:20Z</time>
      </trkpt>
      <trkpt lat="47.73132" lon="4.97222">
        <ele>395.76</ele>
        <time>2022-07-07T07:55:22Z</time>
      </trkpt>
      <trkpt lat="47.7313" lon="4.97225">
        <ele>395.48</ele>
        <time>2022-07-07T07:55:24Z</time>
      </trkpt>
      <trkpt lat="47.73128" lon="4.97229">
        <ele>395.08</ele>
        <time>2022-07-07T07:55:28Z</time>
      </trkpt>
      <trkpt lat="47.73126" lon="4.97233">
        <ele>394.61</ele>
        <time>2022-07-07T07:55:33Z</time>
      </trkpt>
      <trkpt lat="47.73124" lon="4.97234">
        <ele>394.36</ele>
        <time>2022-07-07T07:55:52Z</time>
      </trkpt>
      <trkpt lat="47.73121" lon="4.97232">
        <ele>394.32</ele>
        <time>2022-07-07T07:56:00Z</time>
      </trkpt>
      <trkpt lat="47.7312" lon="4.97228">
        <ele>394.69</ele>
        <time>2022-07-07T07:56:37Z</time>
      </trkpt>
      <trkpt lat="47.73117" lon="4.97227">
        <ele>394.63</ele>
        <time>2022-07-07T07:56:49Z</time>
      </trkpt>
      <trkpt lat="47.73114" lon="4.97229">
        <ele>394.2</ele>
        <time>2022-07-07T07:56:56Z</time>
      </trkpt>
      <trkpt lat="47.73116" lon="4.97226">
        <ele>394.7</ele>
        <time>2022-07-07T07:57:05Z</time>
      </trkpt>
      <trkpt lat="47.73119" lon="4.97225">
        <ele>394.97</ele>
        <time>2022-07-07T07:57:22Z</time>
      </trkpt>
      <trkpt lat="47.73121" lon="4.97226">
        <ele>394.96</ele>
        <time>2022-07-07T07:58:50Z</time>
      </trkpt>
      <trkpt lat="47.73124" lon="4.97224">
        <ele>395.3</ele>
        <time>2022-07-07T07:59:35Z</time>
      </trkpt>
      <trkpt lat="47.73124" lon="4.97229">
        <ele>394.83</ele>
        <time>2022-07-07T08:00:25Z</time>
      </trkpt>
      <trkpt lat="47.73122" lon="4.97232">
        <ele>394.4</ele>
        <time>2022-07-07T08:00:28Z</time>
      </trkpt>
      <trkpt lat="47.73121" lon="4.97235">
        <ele>394.01</ele>
        <time>2022-07-07T08:00:31Z</time>
      </trkpt>
      <trkpt lat="47.73119" lon="4.97239">
        <ele>393.38</ele>
        <time>2022-07-07T08:00:33Z</time>
      </trkpt>
      <trkpt lat="47.73116" lon="4.97242">
        <ele>392.7</ele>
        <time>2022-07-07T08:00:37Z</time>
      </trkpt>
      <trkpt lat="47.73114" lon="4.97244">
        <ele>392.21</ele>
        <time>2022-07-07T08:00:41Z</time>
      </trkpt>
      <trkpt lat="47.73112" lon="4.97248">
        <ele>391.41</ele>
        <time>2022-07-07T08:00:45Z</time>
      </trkpt>
      <trkpt lat="47.7311" lon="4.97251">
        <ele>390.92</ele>
        <time>2022-07-07T08:00:48Z</time>
      </trkpt>
      <trkpt lat="47.73107" lon="4.97254">
        <ele>390.72</ele>
        <time>2022-07-07T08:00:50Z</time>
      </trkpt>
      <trkpt lat="47.73105" lon="4.97256">
        <ele>390.6</ele>
        <time>2022-07-07T08:00:54Z</time>
      </trkpt>
      <trkpt lat="47.73103" lon="4.97259">
        <ele>390.54</ele>
        <time>2022-07-07T08:00:58Z</time>
      </trkpt>
      <trkpt lat="47.73101" lon="4.97262">
        <ele>390.5</ele>
        <time>2022-07-07T08:01:04Z</time>
      </trkpt>
      <trkpt lat="47.73099" lon="4.97264">
        <ele>390.42</ele>
        <time>2022-07-07T08:01:07Z</time>
      </trkpt>
      <trkpt lat="47.73096" lon="4.97266">
        <ele>390.26</ele>
        <time>2022-07-07T08:01:10Z</time>
      </trkpt>
      <trkpt lat="47.73093" lon="4.97267">
        <ele>390.06</ele>
        <time>2022-07-07T08:01:11Z</time>
      </trkpt>
      <trkpt lat="47.7309" lon="4.97269">
        <ele>389.92</ele>
        <time>2022-07-07T08:01:13Z</time>
      </trkpt>
      <trkpt lat="47.73087" lon="4.97272">
        <ele>389.88</ele>
        <time>2022-07-07T08:01:15Z</time>
      </trkpt>
      <trkpt lat="47.73084" lon="4.97274">
        <ele>389.78</ele>
        <time>2022-07-07T08:01:17Z</time>
      </trkpt>
      <trkpt lat="47.73081" lon="4.97276">
        <ele>389.97</ele>
        <time>2022-07-07T08:01:19Z</time>
      </trkpt>
      <trkpt lat="47.73078" lon="4.97277">
        <ele>390.15</ele>
        <time>2022-07-07T08:01:21Z</time>
      </trkpt>
      <trkpt lat="47.73076" lon="4.97279">
        <ele>390.39</ele>
        <time>2022-07-07T08:01:25Z</time>
      </trkpt>
      <trkpt lat="47.73073" lon="4.97281">
        <ele>390.66</ele>
        <time>2022-07-07T08:01:27Z</time>
      </trkpt>
      <trkpt lat="47.73071" lon="4.97285">
        <ele>391.02</ele>
        <time>2022-07-07T08:01:32Z</time>
      </trkpt>
      <trkpt lat="47.73069" lon="4.97289">
        <ele>391.3</ele>
        <time>2022-07-07T08:01:35Z</time>
      </trkpt>
      <trkpt lat="47.73067" lon="4.97292">
        <ele>391.43</ele>
        <time>2022-07-07T08:01:37Z</time>
      </trkpt>
      <trkpt lat="47.73065" lon="4.97295">
        <ele>391.5</ele>
        <time>2022-07-07T08:01:40Z</time>
      </trkpt>
      <trkpt lat="47.73062" lon="4.97298">
        <ele>391.44</ele>
        <time>2022-07-07T08:01:43Z</time>
      </trkpt>
      <trkpt lat="47.7306" lon="4.973">
        <ele>391.35</ele>
        <time>2022-07-07T08:01:47Z</time>
      </trkpt>
      <trkpt lat="47.73058" lon="4.97302">
        <ele>391.22</ele>
        <time>2022-07-07T08:01:50Z</time>
      </trkpt>
      <trkpt lat="47.73055" lon="4.97304">
        <ele>391.04</ele>
        <time>2022-07-07T08:01:52Z</time>
      </trkpt>
      <trkpt lat="47.73052" lon="4.97305">
        <ele>391.25</ele>
        <time>2022-07-07T08:01:55Z</time>
      </trkpt>
      <trkpt lat="47.73049" lon="4.97305">
        <ele>391.46</ele>
        <time>2022-07-07T08:01:57Z</time>
      </trkpt>
      <trkpt lat="47.73046" lon="4.97308">
        <ele>391.72</ele>
        <time>2022-07-07T08:02:01Z</time>
      </trkpt>
      <trkpt lat="47.73044" lon="4.97311">
        <ele>391.86</ele>
        <time>2022-07-07T08:02:03Z</time>
      </trkpt>
      <trkpt lat="47.73041" lon="4.97314">
        <ele>392.03</ele>
        <time>2022-07-07T08:02:06Z</time>
      </trkpt>
      <trkpt lat="47.73039" lon="4.97317">
        <ele>392.11</ele>
        <time>2022-07-07T08:02:07Z</time>
      </trkpt>
      <trkpt lat="47.73037" lon="4.97321">
        <ele>392.15</ele>
        <time>2022-07-07T08:02:10Z</time>
      </trkpt>
      <trkpt lat="47.73035" lon="4.97324">
        <ele>392.16</ele>
        <time>2022-07-07T08:02:12Z</time>
      </trkpt>
      <trkpt lat="47.73033" lon="4.97327">
        <ele>392.14</ele>
        <time>2022-07-07T08:02:16Z</time>
      </trkpt>
      <trkpt lat="47.73031" lon="4.97331">
        <ele>392.06</ele>
        <time>2022-07-07T08:02:18Z</time>
      </trkpt>
      <trkpt lat="47.73029" lon="4.97335">
        <ele>392.29</ele>
        <time>2022-07-07T08:02:22Z</time>
      </trkpt>
      <trkpt lat="47.73027" lon="4.97338">
        <ele>392.73</ele>
        <time>2022-07-07T08:02:27Z</time>
      </trkpt>
      <trkpt lat="47.73025" lon="4.97341">
        <ele>392.98</ele>
        <time>2022-07-07T08:02:29Z</time>
      </trkpt>
      <trkpt lat="47.73023" lon="4.97345">
        <ele>393.41</ele>
        <time>2022-07-07T08:02:33Z</time>
      </trkpt>
      <trkpt lat="47.73022" lon="4.97348">
        <ele>393.81</ele>
        <time>2022-07-07T08:02:36Z</time>
      </trkpt>
      <trkpt lat="47.7302" lon="4.97352">
        <ele>394.24</ele>
        <time>2022-07-07T08:02:39Z</time>
      </trkpt>
      <trkpt lat="47.73018" lon="4.97355">
        <ele>394.49</ele>
        <time>2022-07-07T08:02:43Z</time>
      </trkpt>
      <trkpt lat="47.73017" lon="4.97358">
        <ele>394.89</ele>
        <time>2022-07-07T08:02:47Z</time>
      </trkpt>
      <trkpt lat="47.73015" lon="4.97363">
        <ele>395.6</ele>
        <time>2022-07-07T08:02:51Z</time>
      </trkpt>
      <trkpt lat="47.73013" lon="4.97366">
        <ele>396.02</ele>
        <time>2022-07-07T08:02:53Z</time>
      </trkpt>
      <trkpt lat="47.73011" lon="4.97371">
        <ele>396.94</ele>
        <time>2022-07-07T08:02:54Z</time>
      </trkpt>
      <trkpt lat="47.7301" lon="4.97375">
        <ele>397.76</ele>
        <time>2022-07-07T08:02:58Z</time>
      </trkpt>
      <trkpt lat="47.73008" lon="4.97379">
        <ele>398.47</ele>
        <time>2022-07-07T08:02:59Z</time>
      </trkpt>
      <trkpt lat="47.73007" lon="4.97383">
        <ele>399.33</ele>
        <time>2022-07-07T08:03:02Z</time>
      </trkpt>
      <trkpt lat="47.73006" lon="4.97387">
        <ele>400.19</ele>
        <time>2022-07-07T08:03:06Z</time>
      </trkpt>
      <trkpt lat="47.73005" lon="4.97391">
        <ele>400.87</ele>
        <time>2022-07-07T08:03:09Z</time>
      </trkpt>
      <trkpt lat="47.73004" lon="4.97395">
        <ele>401.41</ele>
        <time>2022-07-07T08:03:13Z</time>
      </trkpt>
      <trkpt lat="47.73003" lon="4.974">
        <ele>402.15</ele>
        <time>2022-07-07T08:03:15Z</time>
      </trkpt>
      <trkpt lat="47.73002" lon="4.97404">
        <ele>402.78</ele>
        <time>2022-07-07T08:03:18Z</time>
      </trkpt>
      <trkpt lat="47.73001" lon="4.97409">
        <ele>403.62</ele>
        <time>2022-07-07T08:03:21Z</time>
      </trkpt>
      <trkpt lat="47.72999" lon="4.97413">
        <ele>404.19</ele>
        <time>2022-07-07T08:03:24Z</time>
      </trkpt>
      <trkpt lat="47.72998" lon="4.97417">
        <ele>404.81</ele>
        <time>2022-07-07T08:03:27Z</time>
      </trkpt>
      <trkpt lat="47.72996" lon="4.9742">
        <ele>405.38</ele>
        <time>2022-07-07T08:03:28Z</time>
      </trkpt>
      <trkpt lat="47.72993" lon="4.97422">
        <ele>405.53</ele>
        <time>2022-07-07T08:03:32Z</time>
      </trkpt>
      <trkpt lat="47.72992" lon="4.97425">
        <ele>406.25</ele>
        <time>2022-07-07T08:03:37Z</time>
      </trkpt>
      <trkpt lat="47.72989" lon="4.97428">
        <ele>406.68</ele>
        <time>2022-07-07T08:03:40Z</time>
      </trkpt>
      <trkpt lat="47.72986" lon="4.9743">
        <ele>406.82</ele>
        <time>2022-07-07T08:03:43Z</time>
      </trkpt>
      <trkpt lat="47.72983" lon="4.97431">
        <ele>406.68</ele>
        <time>2022-07-07T08:03:46Z</time>
      </trkpt>
      <trkpt lat="47.7298" lon="4.97432">
        <ele>406.54</ele>
        <time>2022-07-07T08:03:50Z</time>
      </trkpt>
      <trkpt lat="47.72977" lon="4.97434">
        <ele>406.68</ele>
        <time>2022-07-07T08:03:53Z</time>
      </trkpt>
      <trkpt lat="47.72975" lon="4.97437">
        <ele>407.26</ele>
        <time>2022-07-07T08:03:56Z</time>
      </trkpt>
      <trkpt lat="47.72973" lon="4.97441">
        <ele>408.12</ele>
        <time>2022-07-07T08:03:59Z</time>
      </trkpt>
      <trkpt lat="47.7297" lon="4.97443">
        <ele>408.28</ele>
        <time>2022-07-07T08:04:03Z</time>
      </trkpt>
      <trkpt lat="47.72967" lon="4.97444">
        <ele>408.13</ele>
        <time>2022-07-07T08:04:06Z</time>
      </trkpt>
      <trkpt lat="47.72964" lon="4.97446">
        <ele>408.04</ele>
        <time>2022-07-07T08:04:08Z</time>
      </trkpt>
      <trkpt lat="47.72961" lon="4.97447">
        <ele>407.75</ele>
        <time>2022-07-07T08:04:10Z</time>
      </trkpt>
      <trkpt lat="47.72959" lon="4.97449">
        <ele>407.75</ele>
        <time>2022-07-07T08:04:12Z</time>
      </trkpt>
      <trkpt lat="47.72956" lon="4.9745">
        <ele>407.46</ele>
        <time>2022-07-07T08:04:16Z</time>
      </trkpt>
      <trkpt lat="47.72953" lon="4.97451">
        <ele>407.18</ele>
        <time>2022-07-07T08:04:20Z</time>
      </trkpt>
      <trkpt lat="47.7295" lon="4.97451">
        <ele>406.74</ele>
        <time>2022-07-07T08:04:23Z</time>
      </trkpt>
      <trkpt lat="47.72947" lon="4.97452">
        <ele>406.46</ele>
        <time>2022-07-07T08:04:25Z</time>
      </trkpt>
      <trkpt lat="47.72944" lon="4.97454">
        <ele>406.38</ele>
        <time>2022-07-07T08:04:27Z</time>
      </trkpt>
      <trkpt lat="47.72941" lon="4.97455">
        <ele>406.55</ele>
        <time>2022-07-07T08:04:29Z</time>
      </trkpt>
      <trkpt lat="47.72937" lon="4.97455">
        <ele>406.58</ele>
        <time>2022-07-07T08:04:33Z</time>
      </trkpt>
      <trkpt lat="47.72934" lon="4.97454">
        <ele>406.49</ele>
        <time>2022-07-07T08:04:35Z</time>
      </trkpt>
      <trkpt lat="47.72931" lon="4.97453">
        <ele>406.42</ele>
        <time>2022-07-07T08:04:37Z</time>
      </trkpt>
      <trkpt lat="47.72929" lon="4.9745">
        <ele>406.13</ele>
        <time>2022-07-07T08:04:51Z</time>
      </trkpt>
      <trkpt lat="47.72932" lon="4.97448">
        <ele>405.85</ele>
        <time>2022-07-07T08:05:00Z</time>
      </trkpt>
      <trkpt lat="47.72934" lon="4.97446">
        <ele>405.56</ele>
        <time>2022-07-07T08:05:05Z</time>
      </trkpt>
      <trkpt lat="47.72937" lon="4.97443">
        <ele>405.05</ele>
        <time>2022-07-07T08:05:09Z</time>
      </trkpt>
      <trkpt lat="47.72939" lon="4.97441">
        <ele>404.65</ele>
        <time>2022-07-07T08:05:17Z</time>
      </trkpt>
      <trkpt lat="47.72942" lon="4.9744">
        <ele>404.33</ele>
        <time>2022-07-07T08:05:21Z</time>
      </trkpt>
      <trkpt lat="47.72945" lon="4.97439">
        <ele>404.09</ele>
        <time>2022-07-07T08:05:25Z</time>
      </trkpt>
      <trkpt lat="47.72948" lon="4.9744">
        <ele>404.65</ele>
        <time>2022-07-07T08:05:28Z</time>
      </trkpt>
      <trkpt lat="47.72951" lon="4.9744">
        <ele>405.03</ele>
        <time>2022-07-07T08:05:33Z</time>
      </trkpt>
      <trkpt lat="47.72954" lon="4.97439">
        <ele>405.19</ele>
        <time>2022-07-07T08:05:36Z</time>
      </trkpt>
      <trkpt lat="47.72956" lon="4.97437">
        <ele>404.99</ele>
        <time>2022-07-07T08:05:39Z</time>
      </trkpt>
      <trkpt lat="47.7296" lon="4.97436">
        <ele>405.21</ele>
        <time>2022-07-07T08:05:43Z</time>
      </trkpt>
      <trkpt lat="47.72963" lon="4.97435">
        <ele>405.29</ele>
        <time>2022-07-07T08:05:47Z</time>
      </trkpt>
      <trkpt lat="47.72966" lon="4.97435">
        <ele>405.61</ele>
        <time>2022-07-07T08:05:51Z</time>
      </trkpt>
      <trkpt lat="47.72969" lon="4.97435">
        <ele>405.93</ele>
        <time>2022-07-07T08:05:56Z</time>
      </trkpt>
      <trkpt lat="47.72972" lon="4.97435">
        <ele>406.26</ele>
        <time>2022-07-07T08:06:03Z</time>
      </trkpt>
      <trkpt lat="47.72975" lon="4.97436">
        <ele>406.97</ele>
        <time>2022-07-07T08:06:11Z</time>
      </trkpt>
      <trkpt lat="47.72977" lon="4.97432">
        <ele>406.1</ele>
        <time>2022-07-07T08:06:19Z</time>
      </trkpt>
      <trkpt lat="47.72979" lon="4.97429">
        <ele>405.53</ele>
        <time>2022-07-07T08:06:26Z</time>
      </trkpt>
      <trkpt lat="47.72981" lon="4.9743">
        <ele>406.1</ele>
        <time>2022-07-07T08:07:04Z</time>
      </trkpt>
      <trkpt lat="47.72984" lon="4.97428">
        <ele>405.96</ele>
        <time>2022-07-07T08:08:09Z</time>
      </trkpt>
      <trkpt lat="47.72987" lon="4.97427">
        <ele>406.1</ele>
        <time>2022-07-07T08:08:26Z</time>
      </trkpt>
      <trkpt lat="47.7299" lon="4.97427">
        <ele>406.54</ele>
        <time>2022-07-07T08:08:32Z</time>
      </trkpt>
      <trkpt lat="47.72993" lon="4.97426">
        <ele>406.68</ele>
        <time>2022-07-07T08:08:36Z</time>
      </trkpt>
      <trkpt lat="47.72996" lon="4.97426">
        <ele>407.11</ele>
        <time>2022-07-07T08:08:40Z</time>
      </trkpt>
      <trkpt lat="47.72999" lon="4.97425">
        <ele>407.26</ele>
        <time>2022-07-07T08:08:45Z</time>
      </trkpt>
      <trkpt lat="47.73001" lon="4.97422">
        <ele>406.49</ele>
        <time>2022-07-07T08:08:49Z</time>
      </trkpt>
      <trkpt lat="47.73003" lon="4.9742">
        <ele>405.84</ele>
        <time>2022-07-07T08:08:53Z</time>
      </trkpt>
      <trkpt lat="47.73004" lon="4.97415">
        <ele>404.59</ele>
        <time>2022-07-07T08:08:58Z</time>
      </trkpt>
      <trkpt lat="47.73007" lon="4.97413">
        <ele>404.22</ele>
        <time>2022-07-07T08:09:05Z</time>
      </trkpt>
      <trkpt lat="47.7301" lon="4.97413">
        <ele>404.17</ele>
        <time>2022-07-07T08:09:08Z</time>
      </trkpt>
      <trkpt lat="47.73013" lon="4.97412">
        <ele>404.01</ele>
        <time>2022-07-07T08:09:11Z</time>
      </trkpt>
      <trkpt lat="47.73016" lon="4.97411">
        <ele>403.87</ele>
        <time>2022-07-07T08:09:14Z</time>
      </trkpt>
      <trkpt lat="47.73019" lon="4.9741">
        <ele>403.77</ele>
        <time>2022-07-07T08:09:18Z</time>
      </trkpt>
      <trkpt lat="47.73022" lon="4.9741">
        <ele>403.77</ele>
        <time>2022-07-07T08:09:21Z</time>
      </trkpt>
      <trkpt lat="47.73025" lon="4.9741">
        <ele>403.76</ele>
        <time>2022-07-07T08:09:25Z</time>
      </trkpt>
      <trkpt lat="47.73028" lon="4.97409">
        <ele>403.73</ele>
        <time>2022-07-07T08:09:30Z</time>
      </trkpt>
      <trkpt lat="47.73031" lon="4.97408">
        <ele>403.7</ele>
        <time>2022-07-07T08:09:33Z</time>
      </trkpt>
      <trkpt lat="47.73034" lon="4.97407">
        <ele>403.64</ele>
        <time>2022-07-07T08:09:36Z</time>
      </trkpt>
      <trkpt lat="47.73037" lon="4.97407">
        <ele>403.64</ele>
        <time>2022-07-07T08:09:38Z</time>
      </trkpt>
      <trkpt lat="47.7304" lon="4.97407">
        <ele>403.63</ele>
        <time>2022-07-07T08:09:40Z</time>
      </trkpt>
      <trkpt lat="47.73043" lon="4.97407">
        <ele>403.63</ele>
        <time>2022-07-07T08:09:44Z</time>
      </trkpt>
      <trkpt lat="47.73046" lon="4.97407">
        <ele>403.62</ele>
        <time>2022-07-07T08:09:46Z</time>
      </trkpt>
      <trkpt lat="47.73049" lon="4.97406">
        <ele>403.5</ele>
        <time>2022-07-07T08:09:51Z</time>
      </trkpt>
      <trkpt lat="47.73052" lon="4.97406">
        <ele>403.48</ele>
        <time>2022-07-07T08:09:54Z</time>
      </trkpt>
      <trkpt lat="47.73055" lon="4.97405">
        <ele>403.33</ele>
        <time>2022-07-07T08:09:57Z</time>
      </trkpt>
      <trkpt lat="47.73058" lon="4.97405">
        <ele>403.41</ele>
        <time>2022-07-07T08:09:59Z</time>
      </trkpt>
      <trkpt lat="47.73061" lon="4.97404">
        <ele>403.37</ele>
        <time>2022-07-07T08:10:04Z</time>
      </trkpt>
      <trkpt lat="47.73064" lon="4.97403">
        <ele>403.34</ele>
        <time>2022-07-07T08:10:07Z</time>
      </trkpt>
      <trkpt lat="47.73066" lon="4.97403">
        <ele>403.41</ele>
        <time>2022-07-07T08:10:11Z</time>
      </trkpt>
      <trkpt lat="47.7307" lon="4.97402">
        <ele>403.41</ele>
        <time>2022-07-07T08:10:17Z</time>
      </trkpt>
      <trkpt lat="47.73073" lon="4.97402">
        <ele>403.52</ele>
        <time>2022-07-07T08:10:19Z</time>
      </trkpt>
      <trkpt lat="47.73076" lon="4.97402">
        <ele>403.62</ele>
        <time>2022-07-07T08:10:22Z</time>
      </trkpt>
      <trkpt lat="47.73079" lon="4.97402">
        <ele>403.73</ele>
        <time>2022-07-07T08:10:26Z</time>
      </trkpt>
      <trkpt lat="47.73082" lon="4.97401">
        <ele>403.7</ele>
        <time>2022-07-07T08:10:29Z</time>
      </trkpt>
      <trkpt lat="47.73085" lon="4.974">
        <ele>403.53</ele>
        <time>2022-07-07T08:10:34Z</time>
      </trkpt>
      <trkpt lat="47.73088" lon="4.97399">
        <ele>403.24</ele>
        <time>2022-07-07T08:10:37Z</time>
      </trkpt>
      <trkpt lat="47.73091" lon="4.97396">
        <ele>402.61</ele>
        <time>2022-07-07T08:10:41Z</time>
      </trkpt>
      <trkpt lat="47.73093" lon="4.97395">
        <ele>402.34</ele>
        <time>2022-07-07T08:10:43Z</time>
      </trkpt>
      <trkpt lat="47.73097" lon="4.97394">
        <ele>401.93</ele>
        <time>2022-07-07T08:10:45Z</time>
      </trkpt>
      <trkpt lat="47.73099" lon="4.97394">
        <ele>401.82</ele>
        <time>2022-07-07T08:10:48Z</time>
      </trkpt>
      <trkpt lat="47.73102" lon="4.97394">
        <ele>401.64</ele>
        <time>2022-07-07T08:10:51Z</time>
      </trkpt>
      <trkpt lat="47.73105" lon="4.97395">
        <ele>401.66</ele>
        <time>2022-07-07T08:10:55Z</time>
      </trkpt>
      <trkpt lat="47.73108" lon="4.97396">
        <ele>401.7</ele>
        <time>2022-07-07T08:10:58Z</time>
      </trkpt>
      <trkpt lat="47.73111" lon="4.97397">
        <ele>401.76</ele>
        <time>2022-07-07T08:11:01Z</time>
      </trkpt>
      <trkpt lat="47.73114" lon="4.97398">
        <ele>402.18</ele>
        <time>2022-07-07T08:11:03Z</time>
      </trkpt>
      <trkpt lat="47.73117" lon="4.97399">
        <ele>402.61</ele>
        <time>2022-07-07T08:11:07Z</time>
      </trkpt>
      <trkpt lat="47.7312" lon="4.97399">
        <ele>402.82</ele>
        <time>2022-07-07T08:11:11Z</time>
      </trkpt>
      <trkpt lat="47.73123" lon="4.97398">
        <ele>402.82</ele>
        <time>2022-07-07T08:11:14Z</time>
      </trkpt>
      <trkpt lat="47.73126" lon="4.97397">
        <ele>402.82</ele>
        <time>2022-07-07T08:11:17Z</time>
      </trkpt>
      <trkpt lat="47.73129" lon="4.97395">
        <ele>402.61</ele>
        <time>2022-07-07T08:11:20Z</time>
      </trkpt>
      <trkpt lat="47.73132" lon="4.97395">
        <ele>402.82</ele>
        <time>2022-07-07T08:11:26Z</time>
      </trkpt>
      <trkpt lat="47.73135" lon="4.97395">
        <ele>403.04</ele>
        <time>2022-07-07T08:11:29Z</time>
      </trkpt>
      <trkpt lat="47.73138" lon="4.97396">
        <ele>403.47</ele>
        <time>2022-07-07T08:11:32Z</time>
      </trkpt>
      <trkpt lat="47.73141" lon="4.97397">
        <ele>404.2</ele>
        <time>2022-07-07T08:11:36Z</time>
      </trkpt>
      <trkpt lat="47.73144" lon="4.97397">
        <ele>404.83</ele>
        <time>2022-07-07T08:11:39Z</time>
      </trkpt>
      <trkpt lat="47.73147" lon="4.97396">
        <ele>405.28</ele>
        <time>2022-07-07T08:11:41Z</time>
      </trkpt>
      <trkpt lat="47.7315" lon="4.97395">
        <ele>405.77</ele>
        <time>2022-07-07T08:11:44Z</time>
      </trkpt>
      <trkpt lat="47.73153" lon="4.97394">
        <ele>406.29</ele>
        <time>2022-07-07T08:11:47Z</time>
      </trkpt>
      <trkpt lat="47.73156" lon="4.97394">
        <ele>406.96</ele>
        <time>2022-07-07T08:11:52Z</time>
      </trkpt>
      <trkpt lat="47.73158" lon="4.97396">
        <ele>407.65</ele>
        <time>2022-07-07T08:11:56Z</time>
      </trkpt>
      <trkpt lat="47.73161" lon="4.97398">
        <ele>408.5</ele>
        <time>2022-07-07T08:11:59Z</time>
      </trkpt>
      <trkpt lat="47.73163" lon="4.97401">
        <ele>409.18</ele>
        <time>2022-07-07T08:12:01Z</time>
      </trkpt>
      <trkpt lat="47.73165" lon="4.97404">
        <ele>409.8</ele>
        <time>2022-07-07T08:12:03Z</time>
      </trkpt>
      <trkpt lat="47.73166" lon="4.97408">
        <ele>410.27</ele>
        <time>2022-07-07T08:12:07Z</time>
      </trkpt>
      <trkpt lat="47.73168" lon="4.97412">
        <ele>410.7</ele>
        <time>2022-07-07T08:12:10Z</time>
      </trkpt>
      <trkpt lat="47.7317" lon="4.97415">
        <ele>410.99</ele>
        <time>2022-07-07T08:12:12Z</time>
      </trkpt>
      <trkpt lat="47.73172" lon="4.97419">
        <ele>411.51</ele>
        <time>2022-07-07T08:12:16Z</time>
      </trkpt>
      <trkpt lat="47.73175" lon="4.97422">
        <ele>412.01</ele>
        <time>2022-07-07T08:12:18Z</time>
      </trkpt>
      <trkpt lat="47.73177" lon="4.97424">
        <ele>412.33</ele>
        <time>2022-07-07T08:12:22Z</time>
      </trkpt>
      <trkpt lat="47.73179" lon="4.97427">
        <ele>412.77</ele>
        <time>2022-07-07T08:12:25Z</time>
      </trkpt>
      <trkpt lat="47.7318" lon="4.97432">
        <ele>413.42</ele>
        <time>2022-07-07T08:12:30Z</time>
      </trkpt>
      <trkpt lat="47.73181" lon="4.97437">
        <ele>414.07</ele>
        <time>2022-07-07T08:12:33Z</time>
      </trkpt>
      <trkpt lat="47.73182" lon="4.97441">
        <ele>414.57</ele>
        <time>2022-07-07T08:12:35Z</time>
      </trkpt>
      <trkpt lat="47.73183" lon="4.97446">
        <ele>415.17</ele>
        <time>2022-07-07T08:12:38Z</time>
      </trkpt>
      <trkpt lat="47.73185" lon="4.97449">
        <ele>415.49</ele>
        <time>2022-07-07T08:12:40Z</time>
      </trkpt>
      <trkpt lat="47.73186" lon="4.97454">
        <ele>416.03</ele>
        <time>2022-07-07T08:12:44Z</time>
      </trkpt>
      <trkpt lat="47.73186" lon="4.97458">
        <ele>416.46</ele>
        <time>2022-07-07T08:12:46Z</time>
      </trkpt>
      <trkpt lat="47.73187" lon="4.97462">
        <ele>416.9</ele>
        <time>2022-07-07T08:12:50Z</time>
      </trkpt>
      <trkpt lat="47.73188" lon="4.97466">
        <ele>417.33</ele>
        <time>2022-07-07T08:12:53Z</time>
      </trkpt>
      <trkpt lat="47.7319" lon="4.9747">
        <ele>417.76</ele>
        <time>2022-07-07T08:12:56Z</time>
      </trkpt>
      <trkpt lat="47.73191" lon="4.97473">
        <ele>418.06</ele>
        <time>2022-07-07T08:12:58Z</time>
      </trkpt>
      <trkpt lat="47.73192" lon="4.97477">
        <ele>418.37</ele>
        <time>2022-07-07T08:13:00Z</time>
      </trkpt>
      <trkpt lat="47.73194" lon="4.97481">
        <ele>418.64</ele>
        <time>2022-07-07T08:13:03Z</time>
      </trkpt>
      <trkpt lat="47.73195" lon="4.97485">
        <ele>418.94</ele>
        <time>2022-07-07T08:13:06Z</time>
      </trkpt>
      <trkpt lat="47.73195" lon="4.9749">
        <ele>419.3</ele>
        <time>2022-07-07T08:13:10Z</time>
      </trkpt>
      <trkpt lat="47.73196" lon="4.97496">
        <ele>419.77</ele>
        <time>2022-07-07T08:13:14Z</time>
      </trkpt>
      <trkpt lat="47.73197" lon="4.975">
        <ele>420.09</ele>
        <time>2022-07-07T08:13:15Z</time>
      </trkpt>
      <trkpt lat="47.73198" lon="4.97504">
        <ele>420.56</ele>
        <time>2022-07-07T08:13:18Z</time>
      </trkpt>
      <trkpt lat="47.73199" lon="4.97508">
        <ele>421.03</ele>
        <time>2022-07-07T08:13:21Z</time>
      </trkpt>
      <trkpt lat="47.73199" lon="4.97512">
        <ele>421.46</ele>
        <time>2022-07-07T08:13:23Z</time>
      </trkpt>
      <trkpt lat="47.732" lon="4.97516">
        <ele>421.93</ele>
        <time>2022-07-07T08:13:26Z</time>
      </trkpt>
      <trkpt lat="47.732" lon="4.97521">
        <ele>422.47</ele>
        <time>2022-07-07T08:13:29Z</time>
      </trkpt>
      <trkpt lat="47.732" lon="4.97525">
        <ele>422.9</ele>
        <time>2022-07-07T08:13:31Z</time>
      </trkpt>
      <trkpt lat="47.73201" lon="4.97529">
        <ele>423.4</ele>
        <time>2022-07-07T08:13:35Z</time>
      </trkpt>
      <trkpt lat="47.73201" lon="4.97533">
        <ele>423.94</ele>
        <time>2022-07-07T08:13:38Z</time>
      </trkpt>
      <trkpt lat="47.73202" lon="4.97537">
        <ele>424.51</ele>
        <time>2022-07-07T08:13:40Z</time>
      </trkpt>
      <trkpt lat="47.73203" lon="4.97541">
        <ele>425.07</ele>
        <time>2022-07-07T08:13:43Z</time>
      </trkpt>
      <trkpt lat="47.73203" lon="4.97546">
        <ele>425.73</ele>
        <time>2022-07-07T08:13:45Z</time>
      </trkpt>
      <trkpt lat="47.73204" lon="4.97551">
        <ele>426.4</ele>
        <time>2022-07-07T08:13:48Z</time>
      </trkpt>
      <trkpt lat="47.73205" lon="4.97554">
        <ele>426.8</ele>
        <time>2022-07-07T08:13:50Z</time>
      </trkpt>
      <trkpt lat="47.73207" lon="4.97558">
        <ele>427.4</ele>
        <time>2022-07-07T08:13:53Z</time>
      </trkpt>
      <trkpt lat="47.73207" lon="4.97563">
        <ele>428.22</ele>
        <time>2022-07-07T08:13:57Z</time>
      </trkpt>
      <trkpt lat="47.73206" lon="4.97568">
        <ele>429.05</ele>
        <time>2022-07-07T08:13:59Z</time>
      </trkpt>
      <trkpt lat="47.73206" lon="4.97573">
        <ele>429.88</ele>
        <time>2022-07-07T08:14:02Z</time>
      </trkpt>
      <trkpt lat="47.73206" lon="4.97578">
        <ele>430.7</ele>
        <time>2022-07-07T08:14:06Z</time>
      </trkpt>
      <trkpt lat="47.73206" lon="4.97582">
        <ele>431.36</ele>
        <time>2022-07-07T08:14:10Z</time>
      </trkpt>
      <trkpt lat="47.73205" lon="4.97588">
        <ele>432.06</ele>
        <time>2022-07-07T08:14:15Z</time>
      </trkpt>
      <trkpt lat="47.73205" lon="4.97593">
        <ele>432.53</ele>
        <time>2022-07-07T08:14:18Z</time>
      </trkpt>
      <trkpt lat="47.73205" lon="4.97597">
        <ele>432.91</ele>
        <time>2022-07-07T08:14:20Z</time>
      </trkpt>
      <trkpt lat="47.73205" lon="4.97601">
        <ele>433.29</ele>
        <time>2022-07-07T08:14:23Z</time>
      </trkpt>
      <trkpt lat="47.73205" lon="4.97606">
        <ele>433.76</ele>
        <time>2022-07-07T08:14:26Z</time>
      </trkpt>
      <trkpt lat="47.73205" lon="4.9761">
        <ele>434.14</ele>
        <time>2022-07-07T08:14:29Z</time>
      </trkpt>
      <trkpt lat="47.73204" lon="4.97614">
        <ele>434.38</ele>
        <time>2022-07-07T08:14:34Z</time>
      </trkpt>
      <trkpt lat="47.73202" lon="4.97618">
        <ele>434.59</ele>
        <time>2022-07-07T08:14:37Z</time>
      </trkpt>
      <trkpt lat="47.73201" lon="4.97622">
        <ele>434.71</ele>
        <time>2022-07-07T08:14:39Z</time>
      </trkpt>
      <trkpt lat="47.732" lon="4.97625">
        <ele>434.8</ele>
        <time>2022-07-07T08:14:43Z</time>
      </trkpt>
      <trkpt lat="47.73198" lon="4.9763">
        <ele>434.92</ele>
        <time>2022-07-07T08:14:47Z</time>
      </trkpt>
      <trkpt lat="47.73196" lon="4.97634">
        <ele>434.98</ele>
        <time>2022-07-07T08:14:50Z</time>
      </trkpt>
      <trkpt lat="47.73195" lon="4.97638">
        <ele>435</ele>
        <time>2022-07-07T08:14:52Z</time>
      </trkpt>
      <trkpt lat="47.73194" lon="4.97642">
        <ele>435.56</ele>
        <time>2022-07-07T08:14:55Z</time>
      </trkpt>
      <trkpt lat="47.73193" lon="4.97646">
        <ele>436.27</ele>
        <time>2022-07-07T08:14:57Z</time>
      </trkpt>
      <trkpt lat="47.73192" lon="4.97651">
        <ele>437.14</ele>
        <time>2022-07-07T08:15:01Z</time>
      </trkpt>
      <trkpt lat="47.73191" lon="4.97656">
        <ele>438</ele>
        <time>2022-07-07T08:15:03Z</time>
      </trkpt>
      <trkpt lat="47.7319" lon="4.9766">
        <ele>438.68</ele>
        <time>2022-07-07T08:15:06Z</time>
      </trkpt>
      <trkpt lat="47.73188" lon="4.97664">
        <ele>439.31</ele>
        <time>2022-07-07T08:15:10Z</time>
      </trkpt>
      <trkpt lat="47.73187" lon="4.97668">
        <ele>439.85</ele>
        <time>2022-07-07T08:15:14Z</time>
      </trkpt>
      <trkpt lat="47.73185" lon="4.97671">
        <ele>440.08</ele>
        <time>2022-07-07T08:15:18Z</time>
      </trkpt>
      <trkpt lat="47.73183" lon="4.97673">
        <ele>440.23</ele>
        <time>2022-07-07T08:15:22Z</time>
      </trkpt>
      <trkpt lat="47.73181" lon="4.97677">
        <ele>440.62</ele>
        <time>2022-07-07T08:15:25Z</time>
      </trkpt>
      <trkpt lat="47.73182" lon="4.97682">
        <ele>441.15</ele>
        <time>2022-07-07T08:15:29Z</time>
      </trkpt>
      <trkpt lat="47.73182" lon="4.97686">
        <ele>441.57</ele>
        <time>2022-07-07T08:15:33Z</time>
      </trkpt>
      <trkpt lat="47.73182" lon="4.97691">
        <ele>442.09</ele>
        <time>2022-07-07T08:15:36Z</time>
      </trkpt>
      <trkpt lat="47.73182" lon="4.97695">
        <ele>442.49</ele>
        <time>2022-07-07T08:15:39Z</time>
      </trkpt>
      <trkpt lat="47.73181" lon="4.97699">
        <ele>442.89</ele>
        <time>2022-07-07T08:15:42Z</time>
      </trkpt>
      <trkpt lat="47.73182" lon="4.97704">
        <ele>443.25</ele>
        <time>2022-07-07T08:15:44Z</time>
      </trkpt>
      <trkpt lat="47.73183" lon="4.97708">
        <ele>443.5</ele>
        <time>2022-07-07T08:15:48Z</time>
      </trkpt>
      <trkpt lat="47.73184" lon="4.97712">
        <ele>443.72</ele>
        <time>2022-07-07T08:15:51Z</time>
      </trkpt>
      <trkpt lat="47.73183" lon="4.97716">
        <ele>444.15</ele>
        <time>2022-07-07T08:15:55Z</time>
      </trkpt>
      <trkpt lat="47.73182" lon="4.97721">
        <ele>444.69</ele>
        <time>2022-07-07T08:15:59Z</time>
      </trkpt>
      <trkpt lat="47.73181" lon="4.97725">
        <ele>445.29</ele>
        <time>2022-07-07T08:16:03Z</time>
      </trkpt>
      <trkpt lat="47.7318" lon="4.97729">
        <ele>445.92</ele>
        <time>2022-07-07T08:16:07Z</time>
      </trkpt>
      <trkpt lat="47.73181" lon="4.97733">
        <ele>446.31</ele>
        <time>2022-07-07T08:16:09Z</time>
      </trkpt>
      <trkpt lat="47.73181" lon="4.97738">
        <ele>446.95</ele>
        <time>2022-07-07T08:16:16Z</time>
      </trkpt>
      <trkpt lat="47.73181" lon="4.97742">
        <ele>447.46</ele>
        <time>2022-07-07T08:16:18Z</time>
      </trkpt>
      <trkpt lat="47.73181" lon="4.97746">
        <ele>447.97</ele>
        <time>2022-07-07T08:16:21Z</time>
      </trkpt>
      <trkpt lat="47.73182" lon="4.97751">
        <ele>448.58</ele>
        <time>2022-07-07T08:16:24Z</time>
      </trkpt>
      <trkpt lat="47.73182" lon="4.97755">
        <ele>449.09</ele>
        <time>2022-07-07T08:16:28Z</time>
      </trkpt>
      <trkpt lat="47.73182" lon="4.9776">
        <ele>449.73</ele>
        <time>2022-07-07T08:16:34Z</time>
      </trkpt>
      <trkpt lat="47.73181" lon="4.97764">
        <ele>450.26</ele>
        <time>2022-07-07T08:16:38Z</time>
      </trkpt>
      <trkpt lat="47.7318" lon="4.97768">
        <ele>450.78</ele>
        <time>2022-07-07T08:16:43Z</time>
      </trkpt>
      <trkpt lat="47.7318" lon="4.97773">
        <ele>451.4</ele>
        <time>2022-07-07T08:16:47Z</time>
      </trkpt>
      <trkpt lat="47.73179" lon="4.97777">
        <ele>451.9</ele>
        <time>2022-07-07T08:17:08Z</time>
      </trkpt>
      <trkpt lat="47.73177" lon="4.97778">
        <ele>452.02</ele>
        <time>2022-07-07T08:17:49Z</time>
      </trkpt>
      <trkpt lat="47.73174" lon="4.9778">
        <ele>452.24</ele>
        <time>2022-07-07T08:18:15Z</time>
      </trkpt>
      <trkpt lat="47.73173" lon="4.97784">
        <ele>452.67</ele>
        <time>2022-07-07T08:18:20Z</time>
      </trkpt>
      <trkpt lat="47.73173" lon="4.97788">
        <ele>453.1</ele>
        <time>2022-07-07T08:19:00Z</time>
      </trkpt>
      <trkpt lat="47.73171" lon="4.97791">
        <ele>453.43</ele>
        <time>2022-07-07T08:20:37Z</time>
      </trkpt>
      <trkpt lat="47.73169" lon="4.97793">
        <ele>453.64</ele>
        <time>2022-07-07T08:21:56Z</time>
      </trkpt>
      <trkpt lat="47.73166" lon="4.97794">
        <ele>453.76</ele>
        <time>2022-07-07T08:22:48Z</time>
      </trkpt>
      <trkpt lat="47.73169" lon="4.97795">
        <ele>453.86</ele>
        <time>2022-07-07T08:23:43Z</time>
      </trkpt>
      <trkpt lat="47.73171" lon="4.97792">
        <ele>453.54</ele>
        <time>2022-07-07T08:23:55Z</time>
      </trkpt>
      <trkpt lat="47.73173" lon="4.97794">
        <ele>453.75</ele>
        <time>2022-07-07T08:24:00Z</time>
      </trkpt>
      <trkpt lat="47.73176" lon="4.97797">
        <ele>454.08</ele>
        <time>2022-07-07T08:24:06Z</time>
      </trkpt>
      <trkpt lat="47.73178" lon="4.978">
        <ele>454.4</ele>
        <time>2022-07-07T08:24:09Z</time>
      </trkpt>
      <trkpt lat="47.7318" lon="4.97803">
        <ele>454.72</ele>
        <time>2022-07-07T08:24:12Z</time>
      </trkpt>
      <trkpt lat="47.73181" lon="4.97807">
        <ele>455.18</ele>
        <time>2022-07-07T08:24:16Z</time>
      </trkpt>
      <trkpt lat="47.73182" lon="4.97811">
        <ele>455.7</ele>
        <time>2022-07-07T08:24:21Z</time>
      </trkpt>
      <trkpt lat="47.73183" lon="4.97815">
        <ele>456.22</ele>
        <time>2022-07-07T08:24:24Z</time>
      </trkpt>
      <trkpt lat="47.73184" lon="4.97819">
        <ele>456.75</ele>
        <time>2022-07-07T08:24:28Z</time>
      </trkpt>
      <trkpt lat="47.73185" lon="4.97823">
        <ele>457.3</ele>
        <time>2022-07-07T08:24:30Z</time>
      </trkpt>
      <trkpt lat="47.73186" lon="4.97827">
        <ele>457.85</ele>
        <time>2022-07-07T08:24:35Z</time>
      </trkpt>
      <trkpt lat="47.73188" lon="4.97831">
        <ele>458.45</ele>
        <time>2022-07-07T08:24:39Z</time>
      </trkpt>
      <trkpt lat="47.73189" lon="4.97835">
        <ele>458.9</ele>
        <time>2022-07-07T08:24:42Z</time>
      </trkpt>
      <trkpt lat="47.7319" lon="4.97839">
        <ele>459.18</ele>
        <time>2022-07-07T08:24:45Z</time>
      </trkpt>
      <trkpt lat="47.73191" lon="4.97845">
        <ele>459.61</ele>
        <time>2022-07-07T08:24:48Z</time>
      </trkpt>
      <trkpt lat="47.73193" lon="4.97849">
        <ele>460.02</ele>
        <time>2022-07-07T08:24:49Z</time>
      </trkpt>
      <trkpt lat="47.73194" lon="4.97852">
        <ele>460.31</ele>
        <time>2022-07-07T08:24:51Z</time>
      </trkpt>
      <trkpt lat="47.73196" lon="4.97857">
        <ele>460.59</ele>
        <time>2022-07-07T08:24:53Z</time>
      </trkpt>
      <trkpt lat="47.73198" lon="4.97861">
        <ele>460.61</ele>
        <time>2022-07-07T08:24:56Z</time>
      </trkpt>
      <trkpt lat="47.732" lon="4.97864">
        <ele>460.17</ele>
        <time>2022-07-07T08:24:57Z</time>
      </trkpt>
      <trkpt lat="47.73202" lon="4.97867">
        <ele>459.78</ele>
        <time>2022-07-07T08:24:59Z</time>
      </trkpt>
      <trkpt lat="47.73205" lon="4.9787">
        <ele>459.39</ele>
        <time>2022-07-07T08:25:02Z</time>
      </trkpt>
      <trkpt lat="47.73207" lon="4.97874">
        <ele>459.09</ele>
        <time>2022-07-07T08:25:04Z</time>
      </trkpt>
      <trkpt lat="47.73208" lon="4.97877">
        <ele>458.94</ele>
        <time>2022-07-07T08:25:07Z</time>
      </trkpt>
      <trkpt lat="47.7321" lon="4.9788">
        <ele>458.8</ele>
        <time>2022-07-07T08:25:10Z</time>
      </trkpt>
      <trkpt lat="47.73213" lon="4.97884">
        <ele>458.73</ele>
        <time>2022-07-07T08:25:13Z</time>
      </trkpt>
      <trkpt lat="47.73215" lon="4.97887">
        <ele>458.74</ele>
        <time>2022-07-07T08:25:15Z</time>
      </trkpt>
      <trkpt lat="47.73217" lon="4.9789">
        <ele>458.83</ele>
        <time>2022-07-07T08:25:18Z</time>
      </trkpt>
      <trkpt lat="47.73218" lon="4.97894">
        <ele>458.93</ele>
        <time>2022-07-07T08:25:21Z</time>
      </trkpt>
      <trkpt lat="47.7322" lon="4.97898">
        <ele>459</ele>
        <time>2022-07-07T08:25:24Z</time>
      </trkpt>
      <trkpt lat="47.73222" lon="4.97901">
        <ele>459</ele>
        <time>2022-07-07T08:25:27Z</time>
      </trkpt>
      <trkpt lat="47.73224" lon="4.97906">
        <ele>458.94</ele>
        <time>2022-07-07T08:25:32Z</time>
      </trkpt>
      <trkpt lat="47.73224" lon="4.9791">
        <ele>458.94</ele>
        <time>2022-07-07T08:25:35Z</time>
      </trkpt>
      <trkpt lat="47.73225" lon="4.97914">
        <ele>458.9</ele>
        <time>2022-07-07T08:25:38Z</time>
      </trkpt>
      <trkpt lat="47.73226" lon="4.97918">
        <ele>458.85</ele>
        <time>2022-07-07T08:25:40Z</time>
      </trkpt>
      <trkpt lat="47.73229" lon="4.97922">
        <ele>458.66</ele>
        <time>2022-07-07T08:25:44Z</time>
      </trkpt>
      <trkpt lat="47.7323" lon="4.97926">
        <ele>458.53</ele>
        <time>2022-07-07T08:25:46Z</time>
      </trkpt>
      <trkpt lat="47.73232" lon="4.97929">
        <ele>458.34</ele>
        <time>2022-07-07T08:25:49Z</time>
      </trkpt>
      <trkpt lat="47.73235" lon="4.97932">
        <ele>458.03</ele>
        <time>2022-07-07T08:25:51Z</time>
      </trkpt>
      <trkpt lat="47.73237" lon="4.97937">
        <ele>457.69</ele>
        <time>2022-07-07T08:25:54Z</time>
      </trkpt>
      <trkpt lat="47.73239" lon="4.97941">
        <ele>457.34</ele>
        <time>2022-07-07T08:25:58Z</time>
      </trkpt>
      <trkpt lat="47.73241" lon="4.97944">
        <ele>456.99</ele>
        <time>2022-07-07T08:26:01Z</time>
      </trkpt>
      <trkpt lat="47.73243" lon="4.97948">
        <ele>457.14</ele>
        <time>2022-07-07T08:26:04Z</time>
      </trkpt>
      <trkpt lat="47.73245" lon="4.97951">
        <ele>457.25</ele>
        <time>2022-07-07T08:26:06Z</time>
      </trkpt>
      <trkpt lat="47.73246" lon="4.97956">
        <ele>457.68</ele>
        <time>2022-07-07T08:26:09Z</time>
      </trkpt>
      <trkpt lat="47.73248" lon="4.97959">
        <ele>457.79</ele>
        <time>2022-07-07T08:26:11Z</time>
      </trkpt>
      <trkpt lat="47.7325" lon="4.97963">
        <ele>458</ele>
        <time>2022-07-07T08:26:13Z</time>
      </trkpt>
      <trkpt lat="47.73253" lon="4.97967">
        <ele>458.74</ele>
        <time>2022-07-07T08:26:16Z</time>
      </trkpt>
      <trkpt lat="47.73255" lon="4.9797">
        <ele>459.29</ele>
        <time>2022-07-07T08:26:19Z</time>
      </trkpt>
      <trkpt lat="47.73258" lon="4.97972">
        <ele>459.84</ele>
        <time>2022-07-07T08:26:22Z</time>
      </trkpt>
      <trkpt lat="47.7326" lon="4.97975">
        <ele>460.3</ele>
        <time>2022-07-07T08:26:26Z</time>
      </trkpt>
      <trkpt lat="47.73261" lon="4.97978">
        <ele>460.61</ele>
        <time>2022-07-07T08:26:30Z</time>
      </trkpt>
      <trkpt lat="47.73264" lon="4.97981">
        <ele>460.98</ele>
        <time>2022-07-07T08:26:42Z</time>
      </trkpt>
      <trkpt lat="47.73266" lon="4.97978">
        <ele>460.96</ele>
        <time>2022-07-07T08:26:47Z</time>
      </trkpt>
      <trkpt lat="47.73269" lon="4.97976">
        <ele>461.13</ele>
        <time>2022-07-07T08:26:51Z</time>
      </trkpt>
      <trkpt lat="47.73272" lon="4.97974">
        <ele>461.38</ele>
        <time>2022-07-07T08:26:54Z</time>
      </trkpt>
      <trkpt lat="47.73274" lon="4.97971">
        <ele>461.42</ele>
        <time>2022-07-07T08:26:57Z</time>
      </trkpt>
      <trkpt lat="47.73276" lon="4.97968">
        <ele>461.21</ele>
        <time>2022-07-07T08:27:00Z</time>
      </trkpt>
      <trkpt lat="47.73279" lon="4.97963">
        <ele>460.72</ele>
        <time>2022-07-07T08:27:04Z</time>
      </trkpt>
      <trkpt lat="47.73282" lon="4.97961">
        <ele>460.6</ele>
        <time>2022-07-07T08:27:06Z</time>
      </trkpt>
      <trkpt lat="47.73285" lon="4.97959">
        <ele>460.58</ele>
        <time>2022-07-07T08:27:10Z</time>
      </trkpt>
      <trkpt lat="47.73288" lon="4.97957">
        <ele>460.65</ele>
        <time>2022-07-07T08:27:14Z</time>
      </trkpt>
      <trkpt lat="47.7329" lon="4.97955">
        <ele>460.72</ele>
        <time>2022-07-07T08:27:16Z</time>
      </trkpt>
      <trkpt lat="47.73293" lon="4.97953">
        <ele>460.96</ele>
        <time>2022-07-07T08:27:19Z</time>
      </trkpt>
      <trkpt lat="47.73296" lon="4.97951">
        <ele>461.3</ele>
        <time>2022-07-07T08:27:21Z</time>
      </trkpt>
      <trkpt lat="47.73299" lon="4.9795">
        <ele>461.7</ele>
        <time>2022-07-07T08:27:24Z</time>
      </trkpt>
      <trkpt lat="47.73302" lon="4.97949">
        <ele>462.16</ele>
        <time>2022-07-07T08:27:26Z</time>
      </trkpt>
      <trkpt lat="47.73305" lon="4.97948">
        <ele>462.66</ele>
        <time>2022-07-07T08:27:29Z</time>
      </trkpt>
      <trkpt lat="47.73308" lon="4.97947">
        <ele>463.02</ele>
        <time>2022-07-07T08:27:31Z</time>
      </trkpt>
      <trkpt lat="47.73311" lon="4.97946">
        <ele>463.31</ele>
        <time>2022-07-07T08:27:35Z</time>
      </trkpt>
      <trkpt lat="47.73314" lon="4.97946">
        <ele>463.55</ele>
        <time>2022-07-07T08:27:38Z</time>
      </trkpt>
      <trkpt lat="47.73317" lon="4.97946">
        <ele>463.78</ele>
        <time>2022-07-07T08:27:41Z</time>
      </trkpt>
      <trkpt lat="47.7332" lon="4.97946">
        <ele>464.02</ele>
        <time>2022-07-07T08:27:42Z</time>
      </trkpt>
      <trkpt lat="47.73323" lon="4.97945">
        <ele>464.25</ele>
        <time>2022-07-07T08:27:45Z</time>
      </trkpt>
      <trkpt lat="47.73326" lon="4.97945">
        <ele>464.48</ele>
        <time>2022-07-07T08:27:47Z</time>
      </trkpt>
      <trkpt lat="47.73329" lon="4.97945">
        <ele>464.7</ele>
        <time>2022-07-07T08:27:50Z</time>
      </trkpt>
      <trkpt lat="47.73332" lon="4.97946">
        <ele>464.95</ele>
        <time>2022-07-07T08:27:53Z</time>
      </trkpt>
      <trkpt lat="47.73335" lon="4.97946">
        <ele>465.16</ele>
        <time>2022-07-07T08:27:55Z</time>
      </trkpt>
      <trkpt lat="47.73338" lon="4.97947">
        <ele>465.37</ele>
        <time>2022-07-07T08:27:58Z</time>
      </trkpt>
      <trkpt lat="47.73341" lon="4.97947">
        <ele>465.54</ele>
        <time>2022-07-07T08:28:00Z</time>
      </trkpt>
      <trkpt lat="47.73344" lon="4.9795">
        <ele>465.66</ele>
        <time>2022-07-07T08:28:03Z</time>
      </trkpt>
      <trkpt lat="47.73346" lon="4.97952">
        <ele>465.69</ele>
        <time>2022-07-07T08:28:06Z</time>
      </trkpt>
      <trkpt lat="47.7335" lon="4.97953">
        <ele>465.77</ele>
        <time>2022-07-07T08:28:07Z</time>
      </trkpt>
      <trkpt lat="47.73353" lon="4.97953">
        <ele>465.85</ele>
        <time>2022-07-07T08:28:09Z</time>
      </trkpt>
      <trkpt lat="47.73356" lon="4.97954">
        <ele>465.85</ele>
        <time>2022-07-07T08:28:11Z</time>
      </trkpt>
      <trkpt lat="47.73359" lon="4.97954">
        <ele>465.92</ele>
        <time>2022-07-07T08:28:14Z</time>
      </trkpt>
      <trkpt lat="47.73362" lon="4.97955">
        <ele>465.88</ele>
        <time>2022-07-07T08:28:16Z</time>
      </trkpt>
      <trkpt lat="47.73364" lon="4.97957">
        <ele>465.7</ele>
        <time>2022-07-07T08:28:19Z</time>
      </trkpt>
      <trkpt lat="47.73367" lon="4.97959">
        <ele>465.53</ele>
        <time>2022-07-07T08:28:22Z</time>
      </trkpt>
      <trkpt lat="47.7337" lon="4.97961">
        <ele>465.34</ele>
        <time>2022-07-07T08:28:25Z</time>
      </trkpt>
      <trkpt lat="47.73372" lon="4.9796">
        <ele>465.49</ele>
        <time>2022-07-07T08:28:30Z</time>
      </trkpt>
      <trkpt lat="47.73375" lon="4.97963">
        <ele>465.16</ele>
        <time>2022-07-07T08:28:36Z</time>
      </trkpt>
      <trkpt lat="47.73377" lon="4.97964">
        <ele>465.06</ele>
        <time>2022-07-07T08:28:39Z</time>
      </trkpt>
      <trkpt lat="47.7338" lon="4.97964">
        <ele>465.09</ele>
        <time>2022-07-07T08:28:43Z</time>
      </trkpt>
      <trkpt lat="47.73383" lon="4.97965">
        <ele>464.98</ele>
        <time>2022-07-07T08:28:46Z</time>
      </trkpt>
      <trkpt lat="47.73386" lon="4.97964">
        <ele>465.15</ele>
        <time>2022-07-07T08:28:50Z</time>
      </trkpt>
      <trkpt lat="47.73389" lon="4.97963">
        <ele>465.33</ele>
        <time>2022-07-07T08:28:54Z</time>
      </trkpt>
      <trkpt lat="47.73392" lon="4.97963">
        <ele>465.29</ele>
        <time>2022-07-07T08:28:56Z</time>
      </trkpt>
      <trkpt lat="47.73395" lon="4.97962">
        <ele>465.39</ele>
        <time>2022-07-07T08:28:59Z</time>
      </trkpt>
      <trkpt lat="47.73398" lon="4.97961">
        <ele>465.48</ele>
        <time>2022-07-07T08:29:03Z</time>
      </trkpt>
      <trkpt lat="47.734" lon="4.97959">
        <ele>465.71</ele>
        <time>2022-07-07T08:29:09Z</time>
      </trkpt>
      <trkpt lat="47.73403" lon="4.97958">
        <ele>465.79</ele>
        <time>2022-07-07T08:29:10Z</time>
      </trkpt>
      <trkpt lat="47.73406" lon="4.97957">
        <ele>465.85</ele>
        <time>2022-07-07T08:29:13Z</time>
      </trkpt>
      <trkpt lat="47.73409" lon="4.97955">
        <ele>466.03</ele>
        <time>2022-07-07T08:29:15Z</time>
      </trkpt>
      <trkpt lat="47.73412" lon="4.97953">
        <ele>466.19</ele>
        <time>2022-07-07T08:29:19Z</time>
      </trkpt>
      <trkpt lat="47.73415" lon="4.97951">
        <ele>466.34</ele>
        <time>2022-07-07T08:29:21Z</time>
      </trkpt>
      <trkpt lat="47.73418" lon="4.97951">
        <ele>466.31</ele>
        <time>2022-07-07T08:29:24Z</time>
      </trkpt>
      <trkpt lat="47.73421" lon="4.9795">
        <ele>466.46</ele>
        <time>2022-07-07T08:29:26Z</time>
      </trkpt>
      <trkpt lat="47.73423" lon="4.97949">
        <ele>466.58</ele>
        <time>2022-07-07T08:29:28Z</time>
      </trkpt>
      <trkpt lat="47.73426" lon="4.97946">
        <ele>466.87</ele>
        <time>2022-07-07T08:29:31Z</time>
      </trkpt>
      <trkpt lat="47.73429" lon="4.97945">
        <ele>466.96</ele>
        <time>2022-07-07T08:29:34Z</time>
      </trkpt>
      <trkpt lat="47.73432" lon="4.97944">
        <ele>466.98</ele>
        <time>2022-07-07T08:29:38Z</time>
      </trkpt>
      <trkpt lat="47.73435" lon="4.97943">
        <ele>466.93</ele>
        <time>2022-07-07T08:29:42Z</time>
      </trkpt>
      <trkpt lat="47.73438" lon="4.97942">
        <ele>466.89</ele>
        <time>2022-07-07T08:29:44Z</time>
      </trkpt>
      <trkpt lat="47.73441" lon="4.97941">
        <ele>466.86</ele>
        <time>2022-07-07T08:29:46Z</time>
      </trkpt>
      <trkpt lat="47.73444" lon="4.9794">
        <ele>466.84</ele>
        <time>2022-07-07T08:29:49Z</time>
      </trkpt>
      <trkpt lat="47.73446" lon="4.97937">
        <ele>466.81</ele>
        <time>2022-07-07T08:29:53Z</time>
      </trkpt>
      <trkpt lat="47.73449" lon="4.97935">
        <ele>466.88</ele>
        <time>2022-07-07T08:29:56Z</time>
      </trkpt>
      <trkpt lat="47.73452" lon="4.97933">
        <ele>466.91</ele>
        <time>2022-07-07T08:30:00Z</time>
      </trkpt>
      <trkpt lat="47.73455" lon="4.97932">
        <ele>466.97</ele>
        <time>2022-07-07T08:30:02Z</time>
      </trkpt>
      <trkpt lat="47.73458" lon="4.9793">
        <ele>466.95</ele>
        <time>2022-07-07T08:30:05Z</time>
      </trkpt>
      <trkpt lat="47.7346" lon="4.97929">
        <ele>466.94</ele>
        <time>2022-07-07T08:30:07Z</time>
      </trkpt>
      <trkpt lat="47.73463" lon="4.97926">
        <ele>466.78</ele>
        <time>2022-07-07T08:30:10Z</time>
      </trkpt>
      <trkpt lat="47.73466" lon="4.97926">
        <ele>466.86</ele>
        <time>2022-07-07T08:30:13Z</time>
      </trkpt>
      <trkpt lat="47.73469" lon="4.97925">
        <ele>466.83</ele>
        <time>2022-07-07T08:30:17Z</time>
      </trkpt>
      <trkpt lat="47.73472" lon="4.97924">
        <ele>466.79</ele>
        <time>2022-07-07T08:30:20Z</time>
      </trkpt>
      <trkpt lat="47.73475" lon="4.97922">
        <ele>466.3</ele>
        <time>2022-07-07T08:30:22Z</time>
      </trkpt>
      <trkpt lat="47.73478" lon="4.9792">
        <ele>465.76</ele>
        <time>2022-07-07T08:30:24Z</time>
      </trkpt>
      <trkpt lat="47.73481" lon="4.97919">
        <ele>465.33</ele>
        <time>2022-07-07T08:30:27Z</time>
      </trkpt>
      <trkpt lat="47.73485" lon="4.97917">
        <ele>464.66</ele>
        <time>2022-07-07T08:30:29Z</time>
      </trkpt>
      <trkpt lat="47.73488" lon="4.97915">
        <ele>464.46</ele>
        <time>2022-07-07T08:30:32Z</time>
      </trkpt>
      <trkpt lat="47.73491" lon="4.97913">
        <ele>464.37</ele>
        <time>2022-07-07T08:30:35Z</time>
      </trkpt>
      <trkpt lat="47.73494" lon="4.9791">
        <ele>464.45</ele>
        <time>2022-07-07T08:30:38Z</time>
      </trkpt>
      <trkpt lat="47.73496" lon="4.97906">
        <ele>464.8</ele>
        <time>2022-07-07T08:30:40Z</time>
      </trkpt>
      <trkpt lat="47.73499" lon="4.97902">
        <ele>465.16</ele>
        <time>2022-07-07T08:30:43Z</time>
      </trkpt>
      <trkpt lat="47.73501" lon="4.97899">
        <ele>465.38</ele>
        <time>2022-07-07T08:30:45Z</time>
      </trkpt>
      <trkpt lat="47.73504" lon="4.97896">
        <ele>465.26</ele>
        <time>2022-07-07T08:30:48Z</time>
      </trkpt>
      <trkpt lat="47.73506" lon="4.97894">
        <ele>465.13</ele>
        <time>2022-07-07T08:30:51Z</time>
      </trkpt>
      <trkpt lat="47.73509" lon="4.97892">
        <ele>464.75</ele>
        <time>2022-07-07T08:30:54Z</time>
      </trkpt>
      <trkpt lat="47.73512" lon="4.97891">
        <ele>464.24</ele>
        <time>2022-07-07T08:30:56Z</time>
      </trkpt>
      <trkpt lat="47.73515" lon="4.9789">
        <ele>463.69</ele>
        <time>2022-07-07T08:31:00Z</time>
      </trkpt>
      <trkpt lat="47.73517" lon="4.97888">
        <ele>463.34</ele>
        <time>2022-07-07T08:31:05Z</time>
      </trkpt>
      <trkpt lat="47.7352" lon="4.97886">
        <ele>462.77</ele>
        <time>2022-07-07T08:31:07Z</time>
      </trkpt>
      <trkpt lat="47.73522" lon="4.97884">
        <ele>462.45</ele>
        <time>2022-07-07T08:31:09Z</time>
      </trkpt>
      <trkpt lat="47.73525" lon="4.97882">
        <ele>462</ele>
        <time>2022-07-07T08:31:12Z</time>
      </trkpt>
      <trkpt lat="47.73528" lon="4.9788">
        <ele>461.6</ele>
        <time>2022-07-07T08:31:15Z</time>
      </trkpt>
      <trkpt lat="47.7353" lon="4.97879">
        <ele>461.31</ele>
        <time>2022-07-07T08:31:19Z</time>
      </trkpt>
      <trkpt lat="47.73533" lon="4.97879">
        <ele>460.77</ele>
        <time>2022-07-07T08:31:23Z</time>
      </trkpt>
      <trkpt lat="47.73536" lon="4.97879">
        <ele>460.23</ele>
        <time>2022-07-07T08:31:28Z</time>
      </trkpt>
      <trkpt lat="47.73539" lon="4.97878">
        <ele>459.76</ele>
        <time>2022-07-07T08:31:32Z</time>
      </trkpt>
      <trkpt lat="47.73542" lon="4.97877">
        <ele>459.3</ele>
        <time>2022-07-07T08:31:37Z</time>
      </trkpt>
      <trkpt lat="47.73544" lon="4.97876">
        <ele>459.01</ele>
        <time>2022-07-07T08:31:46Z</time>
      </trkpt>
      <trkpt lat="47.73546" lon="4.97872">
        <ele>458.94</ele>
        <time>2022-07-07T08:31:52Z</time>
      </trkpt>
      <trkpt lat="47.73549" lon="4.97871">
        <ele>458.47</ele>
        <time>2022-07-07T08:32:02Z</time>
      </trkpt>
      <trkpt lat="47.73552" lon="4.97871">
        <ele>457.93</ele>
        <time>2022-07-07T08:32:45Z</time>
      </trkpt>
      <trkpt lat="47.73555" lon="4.97871">
        <ele>457.39</ele>
        <time>2022-07-07T08:33:20Z</time>
      </trkpt>
      <trkpt lat="47.73556" lon="4.97875">
        <ele>456.99</ele>
        <time>2022-07-07T08:33:51Z</time>
      </trkpt>
      <trkpt lat="47.73558" lon="4.97879">
        <ele>456.68</ele>
        <time>2022-07-07T08:33:54Z</time>
      </trkpt>
      <trkpt lat="47.73561" lon="4.97881">
        <ele>456.51</ele>
        <time>2022-07-07T08:33:56Z</time>
      </trkpt>
      <trkpt lat="47.73564" lon="4.97882">
        <ele>456.42</ele>
        <time>2022-07-07T08:33:59Z</time>
      </trkpt>
      <trkpt lat="47.73567" lon="4.97882">
        <ele>456.39</ele>
        <time>2022-07-07T08:34:01Z</time>
      </trkpt>
      <trkpt lat="47.7357" lon="4.97884">
        <ele>456.26</ele>
        <time>2022-07-07T08:34:04Z</time>
      </trkpt>
      <trkpt lat="47.73573" lon="4.97886">
        <ele>456.14</ele>
        <time>2022-07-07T08:34:07Z</time>
      </trkpt>
      <trkpt lat="47.73576" lon="4.97887">
        <ele>456.09</ele>
        <time>2022-07-07T08:34:10Z</time>
      </trkpt>
      <trkpt lat="47.73578" lon="4.97889">
        <ele>456</ele>
        <time>2022-07-07T08:34:13Z</time>
      </trkpt>
      <trkpt lat="47.73582" lon="4.97891">
        <ele>456.01</ele>
        <time>2022-07-07T08:34:16Z</time>
      </trkpt>
      <trkpt lat="47.73585" lon="4.97893">
        <ele>455.95</ele>
        <time>2022-07-07T08:34:18Z</time>
      </trkpt>
      <trkpt lat="47.73588" lon="4.97895">
        <ele>455.87</ele>
        <time>2022-07-07T08:34:22Z</time>
      </trkpt>
      <trkpt lat="47.7359" lon="4.97897">
        <ele>455.83</ele>
        <time>2022-07-07T08:34:25Z</time>
      </trkpt>
      <trkpt lat="47.73593" lon="4.979">
        <ele>455.79</ele>
        <time>2022-07-07T08:34:28Z</time>
      </trkpt>
      <trkpt lat="47.73595" lon="4.97902">
        <ele>455.78</ele>
        <time>2022-07-07T08:34:30Z</time>
      </trkpt>
      <trkpt lat="47.73598" lon="4.97904">
        <ele>455.76</ele>
        <time>2022-07-07T08:34:32Z</time>
      </trkpt>
      <trkpt lat="47.73601" lon="4.97905">
        <ele>455.73</ele>
        <time>2022-07-07T08:34:35Z</time>
      </trkpt>
      <trkpt lat="47.73604" lon="4.97906">
        <ele>455.71</ele>
        <time>2022-07-07T08:34:37Z</time>
      </trkpt>
      <trkpt lat="47.73607" lon="4.97908">
        <ele>455.73</ele>
        <time>2022-07-07T08:34:43Z</time>
      </trkpt>
      <trkpt lat="47.73609" lon="4.9791">
        <ele>455.78</ele>
        <time>2022-07-07T08:34:47Z</time>
      </trkpt>
      <trkpt lat="47.73612" lon="4.97912">
        <ele>455.78</ele>
        <time>2022-07-07T08:34:50Z</time>
      </trkpt>
      <trkpt lat="47.73616" lon="4.97913">
        <ele>455.56</ele>
        <time>2022-07-07T08:34:53Z</time>
      </trkpt>
      <trkpt lat="47.73619" lon="4.97915">
        <ele>455.41</ele>
        <time>2022-07-07T08:34:56Z</time>
      </trkpt>
      <trkpt lat="47.73622" lon="4.97915">
        <ele>455.2</ele>
        <time>2022-07-07T08:34:59Z</time>
      </trkpt>
      <trkpt lat="47.73625" lon="4.97916">
        <ele>455</ele>
        <time>2022-07-07T08:35:01Z</time>
      </trkpt>
      <trkpt lat="47.73628" lon="4.97917">
        <ele>454.81</ele>
        <time>2022-07-07T08:35:04Z</time>
      </trkpt>
      <trkpt lat="47.73631" lon="4.97919">
        <ele>454.74</ele>
        <time>2022-07-07T08:35:07Z</time>
      </trkpt>
      <trkpt lat="47.73634" lon="4.97921">
        <ele>454.66</ele>
        <time>2022-07-07T08:35:09Z</time>
      </trkpt>
      <trkpt lat="47.73637" lon="4.97924">
        <ele>454.66</ele>
        <time>2022-07-07T08:35:11Z</time>
      </trkpt>
      <trkpt lat="47.7364" lon="4.97926">
        <ele>454.65</ele>
        <time>2022-07-07T08:35:13Z</time>
      </trkpt>
      <trkpt lat="47.73642" lon="4.97928">
        <ele>454.72</ele>
        <time>2022-07-07T08:35:16Z</time>
      </trkpt>
      <trkpt lat="47.73645" lon="4.9793">
        <ele>454.75</ele>
        <time>2022-07-07T08:35:17Z</time>
      </trkpt>
      <trkpt lat="47.73648" lon="4.97932">
        <ele>454.74</ele>
        <time>2022-07-07T08:35:21Z</time>
      </trkpt>
      <trkpt lat="47.7365" lon="4.97934">
        <ele>454.75</ele>
        <time>2022-07-07T08:35:26Z</time>
      </trkpt>
      <trkpt lat="47.73653" lon="4.97937">
        <ele>454.72</ele>
        <time>2022-07-07T08:35:29Z</time>
      </trkpt>
      <trkpt lat="47.73656" lon="4.97939">
        <ele>454.62</ele>
        <time>2022-07-07T08:35:31Z</time>
      </trkpt>
      <trkpt lat="47.73659" lon="4.97941">
        <ele>454.48</ele>
        <time>2022-07-07T08:35:33Z</time>
      </trkpt>
      <trkpt lat="47.73661" lon="4.97942">
        <ele>454.37</ele>
        <time>2022-07-07T08:35:36Z</time>
      </trkpt>
      <trkpt lat="47.73665" lon="4.97943">
        <ele>454.11</ele>
        <time>2022-07-07T08:35:39Z</time>
      </trkpt>
      <trkpt lat="47.73668" lon="4.97944">
        <ele>454.05</ele>
        <time>2022-07-07T08:35:40Z</time>
      </trkpt>
      <trkpt lat="47.73671" lon="4.97946">
        <ele>454.31</ele>
        <time>2022-07-07T08:35:43Z</time>
      </trkpt>
      <trkpt lat="47.73673" lon="4.97948">
        <ele>454.55</ele>
        <time>2022-07-07T08:35:45Z</time>
      </trkpt>
      <trkpt lat="47.73676" lon="4.9795">
        <ele>454.8</ele>
        <time>2022-07-07T08:35:47Z</time>
      </trkpt>
      <trkpt lat="47.73678" lon="4.97952">
        <ele>455</ele>
        <time>2022-07-07T08:35:50Z</time>
      </trkpt>
      <trkpt lat="47.73681" lon="4.97954">
        <ele>455.19</ele>
        <time>2022-07-07T08:35:53Z</time>
      </trkpt>
      <trkpt lat="47.73684" lon="4.97956">
        <ele>455.35</ele>
        <time>2022-07-07T08:35:56Z</time>
      </trkpt>
      <trkpt lat="47.73687" lon="4.97958">
        <ele>455.48</ele>
        <time>2022-07-07T08:35:59Z</time>
      </trkpt>
      <trkpt lat="47.7369" lon="4.97961">
        <ele>455.63</ele>
        <time>2022-07-07T08:36:01Z</time>
      </trkpt>
      <trkpt lat="47.73693" lon="4.97963">
        <ele>455.69</ele>
        <time>2022-07-07T08:36:03Z</time>
      </trkpt>
      <trkpt lat="47.73696" lon="4.97964">
        <ele>455.69</ele>
        <time>2022-07-07T08:36:06Z</time>
      </trkpt>
      <trkpt lat="47.73699" lon="4.97967">
        <ele>455.78</ele>
        <time>2022-07-07T08:36:08Z</time>
      </trkpt>
      <trkpt lat="47.73702" lon="4.97969">
        <ele>455.85</ele>
        <time>2022-07-07T08:36:11Z</time>
      </trkpt>
      <trkpt lat="47.73704" lon="4.97971">
        <ele>455.94</ele>
        <time>2022-07-07T08:36:13Z</time>
      </trkpt>
      <trkpt lat="47.73707" lon="4.97973">
        <ele>456.03</ele>
        <time>2022-07-07T08:36:16Z</time>
      </trkpt>
      <trkpt lat="47.73711" lon="4.97976">
        <ele>456.14</ele>
        <time>2022-07-07T08:36:18Z</time>
      </trkpt>
      <trkpt lat="47.73714" lon="4.97977">
        <ele>456.17</ele>
        <time>2022-07-07T08:36:21Z</time>
      </trkpt>
      <trkpt lat="47.73716" lon="4.97979">
        <ele>456.24</ele>
        <time>2022-07-07T08:36:24Z</time>
      </trkpt>
      <trkpt lat="47.73719" lon="4.97981">
        <ele>456.32</ele>
        <time>2022-07-07T08:36:27Z</time>
      </trkpt>
      <trkpt lat="47.73722" lon="4.97983">
        <ele>456.39</ele>
        <time>2022-07-07T08:36:29Z</time>
      </trkpt>
      <trkpt lat="47.73725" lon="4.97984">
        <ele>456.04</ele>
        <time>2022-07-07T08:36:32Z</time>
      </trkpt>
      <trkpt lat="47.73727" lon="4.97986">
        <ele>455.81</ele>
        <time>2022-07-07T08:36:35Z</time>
      </trkpt>
      <trkpt lat="47.7373" lon="4.97988">
        <ele>455.41</ele>
        <time>2022-07-07T08:36:37Z</time>
      </trkpt>
      <trkpt lat="47.73733" lon="4.97991">
        <ele>454.99</ele>
        <time>2022-07-07T08:36:39Z</time>
      </trkpt>
      <trkpt lat="47.73735" lon="4.97993">
        <ele>454.68</ele>
        <time>2022-07-07T08:36:42Z</time>
      </trkpt>
      <trkpt lat="47.73739" lon="4.97995">
        <ele>454.02</ele>
        <time>2022-07-07T08:36:45Z</time>
      </trkpt>
      <trkpt lat="47.73741" lon="4.97997">
        <ele>453.66</ele>
        <time>2022-07-07T08:36:48Z</time>
      </trkpt>
      <trkpt lat="47.73744" lon="4.97999">
        <ele>453.1</ele>
        <time>2022-07-07T08:36:51Z</time>
      </trkpt>
      <trkpt lat="47.73747" lon="4.98002">
        <ele>452.55</ele>
        <time>2022-07-07T08:36:53Z</time>
      </trkpt>
      <trkpt lat="47.73749" lon="4.98003">
        <ele>452.18</ele>
        <time>2022-07-07T08:36:55Z</time>
      </trkpt>
      <trkpt lat="47.73753" lon="4.98004">
        <ele>452</ele>
        <time>2022-07-07T08:36:58Z</time>
      </trkpt>
      <trkpt lat="47.73755" lon="4.98006">
        <ele>452</ele>
        <time>2022-07-07T08:37:00Z</time>
      </trkpt>
      <trkpt lat="47.73758" lon="4.98008">
        <ele>452</ele>
        <time>2022-07-07T08:37:03Z</time>
      </trkpt>
      <trkpt lat="47.73761" lon="4.9801">
        <ele>452</ele>
        <time>2022-07-07T08:37:05Z</time>
      </trkpt>
      <trkpt lat="47.73764" lon="4.98012">
        <ele>452</ele>
        <time>2022-07-07T08:37:07Z</time>
      </trkpt>
      <trkpt lat="47.73766" lon="4.98015">
        <ele>452</ele>
        <time>2022-07-07T08:37:09Z</time>
      </trkpt>
      <trkpt lat="47.73769" lon="4.98017">
        <ele>452</ele>
        <time>2022-07-07T08:37:11Z</time>
      </trkpt>
      <trkpt lat="47.73771" lon="4.9802">
        <ele>452</ele>
        <time>2022-07-07T08:37:13Z</time>
      </trkpt>
      <trkpt lat="47.73774" lon="4.98023">
        <ele>452</ele>
        <time>2022-07-07T08:37:15Z</time>
      </trkpt>
      <trkpt lat="47.73776" lon="4.98026">
        <ele>452</ele>
        <time>2022-07-07T08:37:18Z</time>
      </trkpt>
      <trkpt lat="47.7378" lon="4.98028">
        <ele>451.93</ele>
        <time>2022-07-07T08:37:22Z</time>
      </trkpt>
      <trkpt lat="47.73783" lon="4.9803">
        <ele>451.89</ele>
        <time>2022-07-07T08:37:24Z</time>
      </trkpt>
      <trkpt lat="47.73786" lon="4.98033">
        <ele>451.89</ele>
        <time>2022-07-07T08:37:27Z</time>
      </trkpt>
      <trkpt lat="47.73789" lon="4.98035">
        <ele>451.86</ele>
        <time>2022-07-07T08:37:29Z</time>
      </trkpt>
      <trkpt lat="47.73792" lon="4.98037">
        <ele>451.82</ele>
        <time>2022-07-07T08:37:32Z</time>
      </trkpt>
      <trkpt lat="47.73795" lon="4.98038">
        <ele>451.75</ele>
        <time>2022-07-07T08:37:33Z</time>
      </trkpt>
      <trkpt lat="47.73798" lon="4.9804">
        <ele>451.71</ele>
        <time>2022-07-07T08:37:35Z</time>
      </trkpt>
      <trkpt lat="47.738" lon="4.98042">
        <ele>451.71</ele>
        <time>2022-07-07T08:37:37Z</time>
      </trkpt>
      <trkpt lat="47.73803" lon="4.98044">
        <ele>451.68</ele>
        <time>2022-07-07T08:37:39Z</time>
      </trkpt>
      <trkpt lat="47.73806" lon="4.98047">
        <ele>451.67</ele>
        <time>2022-07-07T08:37:41Z</time>
      </trkpt>
      <trkpt lat="47.73809" lon="4.98048">
        <ele>451.55</ele>
        <time>2022-07-07T08:37:44Z</time>
      </trkpt>
      <trkpt lat="47.73812" lon="4.9805">
        <ele>451.43</ele>
        <time>2022-07-07T08:37:46Z</time>
      </trkpt>
      <trkpt lat="47.73815" lon="4.98052">
        <ele>451.28</ele>
        <time>2022-07-07T08:37:48Z</time>
      </trkpt>
      <trkpt lat="47.73817" lon="4.98054">
        <ele>451.17</ele>
        <time>2022-07-07T08:37:50Z</time>
      </trkpt>
      <trkpt lat="47.7382" lon="4.98056">
        <ele>450.98</ele>
        <time>2022-07-07T08:37:54Z</time>
      </trkpt>
      <trkpt lat="47.73823" lon="4.98057">
        <ele>450.81</ele>
        <time>2022-07-07T08:37:56Z</time>
      </trkpt>
      <trkpt lat="47.73826" lon="4.9806">
        <ele>450.76</ele>
        <time>2022-07-07T08:37:59Z</time>
      </trkpt>
      <trkpt lat="47.73828" lon="4.98062">
        <ele>450.76</ele>
        <time>2022-07-07T08:38:01Z</time>
      </trkpt>
      <trkpt lat="47.73831" lon="4.98064">
        <ele>450.72</ele>
        <time>2022-07-07T08:38:03Z</time>
      </trkpt>
      <trkpt lat="47.73834" lon="4.98066">
        <ele>450.76</ele>
        <time>2022-07-07T08:38:05Z</time>
      </trkpt>
      <trkpt lat="47.73837" lon="4.98068">
        <ele>450.96</ele>
        <time>2022-07-07T08:38:07Z</time>
      </trkpt>
      <trkpt lat="47.7384" lon="4.9807">
        <ele>451.16</ele>
        <time>2022-07-07T08:38:09Z</time>
      </trkpt>
      <trkpt lat="47.73843" lon="4.98072">
        <ele>451.39</ele>
        <time>2022-07-07T08:38:13Z</time>
      </trkpt>
      <trkpt lat="47.73845" lon="4.98073">
        <ele>451.52</ele>
        <time>2022-07-07T08:38:15Z</time>
      </trkpt>
      <trkpt lat="47.73848" lon="4.98075">
        <ele>451.77</ele>
        <time>2022-07-07T08:38:17Z</time>
      </trkpt>
      <trkpt lat="47.73851" lon="4.98077">
        <ele>452.03</ele>
        <time>2022-07-07T08:38:19Z</time>
      </trkpt>
      <trkpt lat="47.73853" lon="4.98079">
        <ele>452.29</ele>
        <time>2022-07-07T08:38:22Z</time>
      </trkpt>
      <trkpt lat="47.73856" lon="4.9808">
        <ele>452.48</ele>
        <time>2022-07-07T08:38:24Z</time>
      </trkpt>
      <trkpt lat="47.73859" lon="4.98082">
        <ele>452.78</ele>
        <time>2022-07-07T08:38:26Z</time>
      </trkpt>
      <trkpt lat="47.73862" lon="4.98083">
        <ele>453.06</ele>
        <time>2022-07-07T08:38:28Z</time>
      </trkpt>
      <trkpt lat="47.73865" lon="4.98085">
        <ele>453.47</ele>
        <time>2022-07-07T08:38:31Z</time>
      </trkpt>
      <trkpt lat="47.73868" lon="4.98086">
        <ele>453.82</ele>
        <time>2022-07-07T08:38:33Z</time>
      </trkpt>
      <trkpt lat="47.73871" lon="4.98088">
        <ele>454.18</ele>
        <time>2022-07-07T08:38:36Z</time>
      </trkpt>
      <trkpt lat="47.73873" lon="4.98091">
        <ele>454.44</ele>
        <time>2022-07-07T08:38:38Z</time>
      </trkpt>
      <trkpt lat="47.73876" lon="4.98093">
        <ele>454.77</ele>
        <time>2022-07-07T08:38:41Z</time>
      </trkpt>
      <trkpt lat="47.73878" lon="4.98095">
        <ele>454.99</ele>
        <time>2022-07-07T08:38:43Z</time>
      </trkpt>
      <trkpt lat="47.73881" lon="4.98096">
        <ele>455.28</ele>
        <time>2022-07-07T08:38:45Z</time>
      </trkpt>
      <trkpt lat="47.73884" lon="4.98098">
        <ele>455.56</ele>
        <time>2022-07-07T08:38:48Z</time>
      </trkpt>
      <trkpt lat="47.73886" lon="4.981">
        <ele>455.75</ele>
        <time>2022-07-07T08:38:52Z</time>
      </trkpt>
      <trkpt lat="47.73888" lon="4.98103">
        <ele>455.93</ele>
        <time>2022-07-07T08:38:55Z</time>
      </trkpt>
      <trkpt lat="47.73891" lon="4.98105">
        <ele>456.09</ele>
        <time>2022-07-07T08:38:58Z</time>
      </trkpt>
      <trkpt lat="47.73894" lon="4.98107">
        <ele>456.21</ele>
        <time>2022-07-07T08:39:00Z</time>
      </trkpt>
      <trkpt lat="47.73897" lon="4.98109">
        <ele>456.31</ele>
        <time>2022-07-07T08:39:02Z</time>
      </trkpt>
      <trkpt lat="47.739" lon="4.98111">
        <ele>456.4</ele>
        <time>2022-07-07T08:39:04Z</time>
      </trkpt>
      <trkpt lat="47.73902" lon="4.98113">
        <ele>456.4</ele>
        <time>2022-07-07T08:39:06Z</time>
      </trkpt>
      <trkpt lat="47.73905" lon="4.98115">
        <ele>456.44</ele>
        <time>2022-07-07T08:39:09Z</time>
      </trkpt>
      <trkpt lat="47.73907" lon="4.98117">
        <ele>456.44</ele>
        <time>2022-07-07T08:39:10Z</time>
      </trkpt>
      <trkpt lat="47.7391" lon="4.98119">
        <ele>456.48</ele>
        <time>2022-07-07T08:39:13Z</time>
      </trkpt>
      <trkpt lat="47.73912" lon="4.98121">
        <ele>456.48</ele>
        <time>2022-07-07T08:39:16Z</time>
      </trkpt>
      <trkpt lat="47.73915" lon="4.98123">
        <ele>456.51</ele>
        <time>2022-07-07T08:39:20Z</time>
      </trkpt>
      <trkpt lat="47.73918" lon="4.98126">
        <ele>456.28</ele>
        <time>2022-07-07T08:39:23Z</time>
      </trkpt>
      <trkpt lat="47.73921" lon="4.98128">
        <ele>455.8</ele>
        <time>2022-07-07T08:39:24Z</time>
      </trkpt>
      <trkpt lat="47.73924" lon="4.98131">
        <ele>455.34</ele>
        <time>2022-07-07T08:39:27Z</time>
      </trkpt>
      <trkpt lat="47.73927" lon="4.98133">
        <ele>454.94</ele>
        <time>2022-07-07T08:39:29Z</time>
      </trkpt>
      <trkpt lat="47.7393" lon="4.98135">
        <ele>454.57</ele>
        <time>2022-07-07T08:39:31Z</time>
      </trkpt>
      <trkpt lat="47.73933" lon="4.98137">
        <ele>454.22</ele>
        <time>2022-07-07T08:39:34Z</time>
      </trkpt>
      <trkpt lat="47.73935" lon="4.98139">
        <ele>454.02</ele>
        <time>2022-07-07T08:39:36Z</time>
      </trkpt>
      <trkpt lat="47.73938" lon="4.98141">
        <ele>453.77</ele>
        <time>2022-07-07T08:39:38Z</time>
      </trkpt>
      <trkpt lat="47.7394" lon="4.98144">
        <ele>453.66</ele>
        <time>2022-07-07T08:39:41Z</time>
      </trkpt>
      <trkpt lat="47.73943" lon="4.98145">
        <ele>453.38</ele>
        <time>2022-07-07T08:39:46Z</time>
      </trkpt>
      <trkpt lat="47.73945" lon="4.98147">
        <ele>453.37</ele>
        <time>2022-07-07T08:39:50Z</time>
      </trkpt>
      <trkpt lat="47.73948" lon="4.98149">
        <ele>453.83</ele>
        <time>2022-07-07T08:39:54Z</time>
      </trkpt>
      <trkpt lat="47.73949" lon="4.98153">
        <ele>454.08</ele>
        <time>2022-07-07T08:39:57Z</time>
      </trkpt>
      <trkpt lat="47.73951" lon="4.98156">
        <ele>454.41</ele>
        <time>2022-07-07T08:40:00Z</time>
      </trkpt>
      <trkpt lat="47.73952" lon="4.9816">
        <ele>454.64</ele>
        <time>2022-07-07T08:40:04Z</time>
      </trkpt>
      <trkpt lat="47.73954" lon="4.98165">
        <ele>454.99</ele>
        <time>2022-07-07T08:40:06Z</time>
      </trkpt>
      <trkpt lat="47.73954" lon="4.98169">
        <ele>455.03</ele>
        <time>2022-07-07T08:40:08Z</time>
      </trkpt>
      <trkpt lat="47.73956" lon="4.98175">
        <ele>455.17</ele>
        <time>2022-07-07T08:40:11Z</time>
      </trkpt>
      <trkpt lat="47.73956" lon="4.98179">
        <ele>455.14</ele>
        <time>2022-07-07T08:40:13Z</time>
      </trkpt>
      <trkpt lat="47.73957" lon="4.98184">
        <ele>455.13</ele>
        <time>2022-07-07T08:40:15Z</time>
      </trkpt>
      <trkpt lat="47.73959" lon="4.98188">
        <ele>455.13</ele>
        <time>2022-07-07T08:40:17Z</time>
      </trkpt>
      <trkpt lat="47.73959" lon="4.98193">
        <ele>455.03</ele>
        <time>2022-07-07T08:40:20Z</time>
      </trkpt>
      <trkpt lat="47.73959" lon="4.98198">
        <ele>454.93</ele>
        <time>2022-07-07T08:40:24Z</time>
      </trkpt>
      <trkpt lat="47.73959" lon="4.98204">
        <ele>454.82</ele>
        <time>2022-07-07T08:40:26Z</time>
      </trkpt>
      <trkpt lat="47.73959" lon="4.98208">
        <ele>454.74</ele>
        <time>2022-07-07T08:40:28Z</time>
      </trkpt>
      <trkpt lat="47.7396" lon="4.98213">
        <ele>454.63</ele>
        <time>2022-07-07T08:40:30Z</time>
      </trkpt>
      <trkpt lat="47.7396" lon="4.98218">
        <ele>454.53</ele>
        <time>2022-07-07T08:40:33Z</time>
      </trkpt>
      <trkpt lat="47.7396" lon="4.98223">
        <ele>454.46</ele>
        <time>2022-07-07T08:40:34Z</time>
      </trkpt>
      <trkpt lat="47.73961" lon="4.98228">
        <ele>454.53</ele>
        <time>2022-07-07T08:40:37Z</time>
      </trkpt>
      <trkpt lat="47.73962" lon="4.98234">
        <ele>454.64</ele>
        <time>2022-07-07T08:40:41Z</time>
      </trkpt>
      <trkpt lat="47.73963" lon="4.98238">
        <ele>454.71</ele>
        <time>2022-07-07T08:40:45Z</time>
      </trkpt>
      <trkpt lat="47.73965" lon="4.98243">
        <ele>454.81</ele>
        <time>2022-07-07T08:40:47Z</time>
      </trkpt>
      <trkpt lat="47.73966" lon="4.98246">
        <ele>454.89</ele>
        <time>2022-07-07T08:40:49Z</time>
      </trkpt>
      <trkpt lat="47.73968" lon="4.98251">
        <ele>455.05</ele>
        <time>2022-07-07T08:40:51Z</time>
      </trkpt>
      <trkpt lat="47.73969" lon="4.98255">
        <ele>455.22</ele>
        <time>2022-07-07T08:40:54Z</time>
      </trkpt>
      <trkpt lat="47.7397" lon="4.9826">
        <ele>455.42</ele>
        <time>2022-07-07T08:40:56Z</time>
      </trkpt>
      <trkpt lat="47.73971" lon="4.98263">
        <ele>455.51</ele>
        <time>2022-07-07T08:40:58Z</time>
      </trkpt>
      <trkpt lat="47.73973" lon="4.98267">
        <ele>455.66</ele>
        <time>2022-07-07T08:41:00Z</time>
      </trkpt>
      <trkpt lat="47.73975" lon="4.98271">
        <ele>455.93</ele>
        <time>2022-07-07T08:41:04Z</time>
      </trkpt>
      <trkpt lat="47.73976" lon="4.98274">
        <ele>456.12</ele>
        <time>2022-07-07T08:41:06Z</time>
      </trkpt>
      <trkpt lat="47.73978" lon="4.98278">
        <ele>456.43</ele>
        <time>2022-07-07T08:41:09Z</time>
      </trkpt>
      <trkpt lat="47.73979" lon="4.98282">
        <ele>456.75</ele>
        <time>2022-07-07T08:41:13Z</time>
      </trkpt>
      <trkpt lat="47.73981" lon="4.98286">
        <ele>457.13</ele>
        <time>2022-07-07T08:41:16Z</time>
      </trkpt>
      <trkpt lat="47.73983" lon="4.98289">
        <ele>457.43</ele>
        <time>2022-07-07T08:41:18Z</time>
      </trkpt>
      <trkpt lat="47.73984" lon="4.98292">
        <ele>457.65</ele>
        <time>2022-07-07T08:41:20Z</time>
      </trkpt>
      <trkpt lat="47.73986" lon="4.98296">
        <ele>457.98</ele>
        <time>2022-07-07T08:41:23Z</time>
      </trkpt>
      <trkpt lat="47.73989" lon="4.983">
        <ele>458.32</ele>
        <time>2022-07-07T08:41:26Z</time>
      </trkpt>
      <trkpt lat="47.73991" lon="4.98303">
        <ele>458.55</ele>
        <time>2022-07-07T08:41:28Z</time>
      </trkpt>
      <trkpt lat="47.73993" lon="4.98306">
        <ele>458.74</ele>
        <time>2022-07-07T08:41:30Z</time>
      </trkpt>
      <trkpt lat="47.73996" lon="4.98309">
        <ele>458.82</ele>
        <time>2022-07-07T08:41:32Z</time>
      </trkpt>
      <trkpt lat="47.73998" lon="4.98312">
        <ele>458.89</ele>
        <time>2022-07-07T08:41:34Z</time>
      </trkpt>
      <trkpt lat="47.74001" lon="4.98315">
        <ele>459.11</ele>
        <time>2022-07-07T08:41:37Z</time>
      </trkpt>
      <trkpt lat="47.74004" lon="4.98317">
        <ele>459.43</ele>
        <time>2022-07-07T08:41:40Z</time>
      </trkpt>
      <trkpt lat="47.74007" lon="4.98321">
        <ele>459.76</ele>
        <time>2022-07-07T08:41:43Z</time>
      </trkpt>
      <trkpt lat="47.7401" lon="4.98324">
        <ele>460.08</ele>
        <time>2022-07-07T08:41:46Z</time>
      </trkpt>
      <trkpt lat="47.74012" lon="4.98327">
        <ele>460.3</ele>
        <time>2022-07-07T08:41:48Z</time>
      </trkpt>
      <trkpt lat="47.74014" lon="4.9833">
        <ele>460.51</ele>
        <time>2022-07-07T08:41:51Z</time>
      </trkpt>
      <trkpt lat="47.74017" lon="4.98332">
        <ele>460.84</ele>
        <time>2022-07-07T08:41:53Z</time>
      </trkpt>
      <trkpt lat="47.7402" lon="4.98335">
        <ele>461.16</ele>
        <time>2022-07-07T08:41:56Z</time>
      </trkpt>
      <trkpt lat="47.74023" lon="4.98337">
        <ele>461.48</ele>
        <time>2022-07-07T08:41:57Z</time>
      </trkpt>
      <trkpt lat="47.74025" lon="4.98339">
        <ele>461.7</ele>
        <time>2022-07-07T08:42:00Z</time>
      </trkpt>
      <trkpt lat="47.74028" lon="4.98342">
        <ele>462</ele>
        <time>2022-07-07T08:42:03Z</time>
      </trkpt>
      <trkpt lat="47.74031" lon="4.98345">
        <ele>461.9</ele>
        <time>2022-07-07T08:42:06Z</time>
      </trkpt>
      <trkpt lat="47.74034" lon="4.98349">
        <ele>461.75</ele>
        <time>2022-07-07T08:42:10Z</time>
      </trkpt>
      <trkpt lat="47.74035" lon="4.98352">
        <ele>461.65</ele>
        <time>2022-07-07T08:42:12Z</time>
      </trkpt>
      <trkpt lat="47.74037" lon="4.98356">
        <ele>461.46</ele>
        <time>2022-07-07T08:42:14Z</time>
      </trkpt>
      <trkpt lat="47.74039" lon="4.9836">
        <ele>461.22</ele>
        <time>2022-07-07T08:42:17Z</time>
      </trkpt>
      <trkpt lat="47.74041" lon="4.98362">
        <ele>460.95</ele>
        <time>2022-07-07T08:42:19Z</time>
      </trkpt>
      <trkpt lat="47.74044" lon="4.98364">
        <ele>460.52</ele>
        <time>2022-07-07T08:42:22Z</time>
      </trkpt>
      <trkpt lat="47.74046" lon="4.98367">
        <ele>460.05</ele>
        <time>2022-07-07T08:42:24Z</time>
      </trkpt>
      <trkpt lat="47.74049" lon="4.9837">
        <ele>459.51</ele>
        <time>2022-07-07T08:42:29Z</time>
      </trkpt>
      <trkpt lat="47.74051" lon="4.98374">
        <ele>458.94</ele>
        <time>2022-07-07T08:42:34Z</time>
      </trkpt>
      <trkpt lat="47.74054" lon="4.98376">
        <ele>458.5</ele>
        <time>2022-07-07T08:42:35Z</time>
      </trkpt>
      <trkpt lat="47.74056" lon="4.98379">
        <ele>457.96</ele>
        <time>2022-07-07T08:42:38Z</time>
      </trkpt>
      <trkpt lat="47.74059" lon="4.98382">
        <ele>456.84</ele>
        <time>2022-07-07T08:42:41Z</time>
      </trkpt>
      <trkpt lat="47.74061" lon="4.98385">
        <ele>455.93</ele>
        <time>2022-07-07T08:42:45Z</time>
      </trkpt>
      <trkpt lat="47.74063" lon="4.98388">
        <ele>454.98</ele>
        <time>2022-07-07T08:42:48Z</time>
      </trkpt>
      <trkpt lat="47.74066" lon="4.98391">
        <ele>453.72</ele>
        <time>2022-07-07T08:42:50Z</time>
      </trkpt>
      <trkpt lat="47.74068" lon="4.98394">
        <ele>452.76</ele>
        <time>2022-07-07T08:42:51Z</time>
      </trkpt>
      <trkpt lat="47.74071" lon="4.98398">
        <ele>451.42</ele>
        <time>2022-07-07T08:42:54Z</time>
      </trkpt>
      <trkpt lat="47.74073" lon="4.98401">
        <ele>450.51</ele>
        <time>2022-07-07T08:42:56Z</time>
      </trkpt>
      <trkpt lat="47.74075" lon="4.98404">
        <ele>449.6</ele>
        <time>2022-07-07T08:42:59Z</time>
      </trkpt>
      <trkpt lat="47.74077" lon="4.98407">
        <ele>448.72</ele>
        <time>2022-07-07T08:43:03Z</time>
      </trkpt>
      <trkpt lat="47.74079" lon="4.9841">
        <ele>447.85</ele>
        <time>2022-07-07T08:43:05Z</time>
      </trkpt>
      <trkpt lat="47.74082" lon="4.98413">
        <ele>446.74</ele>
        <time>2022-07-07T08:43:07Z</time>
      </trkpt>
      <trkpt lat="47.74084" lon="4.98416">
        <ele>445.9</ele>
        <time>2022-07-07T08:43:10Z</time>
      </trkpt>
      <trkpt lat="47.74086" lon="4.98418">
        <ele>444.91</ele>
        <time>2022-07-07T08:43:15Z</time>
      </trkpt>
      <trkpt lat="47.74089" lon="4.98421">
        <ele>443.23</ele>
        <time>2022-07-07T08:43:17Z</time>
      </trkpt>
      <trkpt lat="47.74091" lon="4.98424">
        <ele>441.84</ele>
        <time>2022-07-07T08:43:20Z</time>
      </trkpt>
      <trkpt lat="47.74093" lon="4.98427">
        <ele>440.47</ele>
        <time>2022-07-07T08:43:23Z</time>
      </trkpt>
      <trkpt lat="47.74095" lon="4.98431">
        <ele>438.85</ele>
        <time>2022-07-07T08:43:26Z</time>
      </trkpt>
      <trkpt lat="47.74097" lon="4.98435">
        <ele>437.27</ele>
        <time>2022-07-07T08:43:29Z</time>
      </trkpt>
      <trkpt lat="47.74099" lon="4.9844">
        <ele>435.44</ele>
        <time>2022-07-07T08:43:32Z</time>
      </trkpt>
      <trkpt lat="47.74101" lon="4.98443">
        <ele>434.22</ele>
        <time>2022-07-07T08:43:33Z</time>
      </trkpt>
      <trkpt lat="47.74102" lon="4.98447">
        <ele>432.93</ele>
        <time>2022-07-07T08:43:36Z</time>
      </trkpt>
      <trkpt lat="47.74105" lon="4.98451">
        <ele>431.26</ele>
        <time>2022-07-07T08:43:39Z</time>
      </trkpt>
      <trkpt lat="47.74107" lon="4.98456">
        <ele>429.47</ele>
        <time>2022-07-07T08:43:41Z</time>
      </trkpt>
      <trkpt lat="47.74109" lon="4.98459">
        <ele>428.23</ele>
        <time>2022-07-07T08:43:42Z</time>
      </trkpt>
      <trkpt lat="47.74111" lon="4.98463">
        <ele>426.68</ele>
        <time>2022-07-07T08:43:46Z</time>
      </trkpt>
      <trkpt lat="47.74113" lon="4.98468">
        <ele>425.78</ele>
        <time>2022-07-07T08:43:48Z</time>
      </trkpt>
      <trkpt lat="47.74114" lon="4.98472">
        <ele>425.09</ele>
        <time>2022-07-07T08:43:51Z</time>
      </trkpt>
      <trkpt lat="47.74115" lon="4.98476">
        <ele>425.69</ele>
        <time>2022-07-07T08:43:53Z</time>
      </trkpt>
      <trkpt lat="47.74117" lon="4.9848">
        <ele>426.6</ele>
        <time>2022-07-07T08:43:56Z</time>
      </trkpt>
      <trkpt lat="47.74118" lon="4.98483">
        <ele>427.07</ele>
        <time>2022-07-07T08:43:59Z</time>
      </trkpt>
      <trkpt lat="47.7412" lon="4.98486">
        <ele>427.74</ele>
        <time>2022-07-07T08:44:02Z</time>
      </trkpt>
      <trkpt lat="47.74123" lon="4.98489">
        <ele>428.54</ele>
        <time>2022-07-07T08:44:04Z</time>
      </trkpt>
      <trkpt lat="47.74125" lon="4.98492">
        <ele>429</ele>
        <time>2022-07-07T08:44:06Z</time>
      </trkpt>
      <trkpt lat="47.74127" lon="4.98495">
        <ele>429.37</ele>
        <time>2022-07-07T08:44:10Z</time>
      </trkpt>
      <trkpt lat="47.74129" lon="4.98498">
        <ele>429.64</ele>
        <time>2022-07-07T08:44:12Z</time>
      </trkpt>
      <trkpt lat="47.74131" lon="4.98501">
        <ele>429.76</ele>
        <time>2022-07-07T08:44:15Z</time>
      </trkpt>
      <trkpt lat="47.74133" lon="4.98505">
        <ele>429.58</ele>
        <time>2022-07-07T08:44:19Z</time>
      </trkpt>
      <trkpt lat="47.74136" lon="4.98508">
        <ele>429.55</ele>
        <time>2022-07-07T08:44:21Z</time>
      </trkpt>
      <trkpt lat="47.74138" lon="4.98511">
        <ele>429.34</ele>
        <time>2022-07-07T08:44:24Z</time>
      </trkpt>
      <trkpt lat="47.74141" lon="4.98513">
        <ele>429.24</ele>
        <time>2022-07-07T08:44:26Z</time>
      </trkpt>
      <trkpt lat="47.74143" lon="4.98516">
        <ele>428.91</ele>
        <time>2022-07-07T08:44:35Z</time>
      </trkpt>
      <trkpt lat="47.74143" lon="4.9852">
        <ele>428.31</ele>
        <time>2022-07-07T08:44:40Z</time>
      </trkpt>
      <trkpt lat="47.74143" lon="4.98525">
        <ele>427.56</ele>
        <time>2022-07-07T08:44:44Z</time>
      </trkpt>
      <trkpt lat="47.74142" lon="4.98529">
        <ele>426.99</ele>
        <time>2022-07-07T08:44:51Z</time>
      </trkpt>
      <trkpt lat="47.74141" lon="4.98532">
        <ele>426.7</ele>
        <time>2022-07-07T08:45:00Z</time>
      </trkpt>
      <trkpt lat="47.74139" lon="4.98535">
        <ele>426.48</ele>
        <time>2022-07-07T08:45:16Z</time>
      </trkpt>
      <trkpt lat="47.74141" lon="4.98532">
        <ele>426.7</ele>
        <time>2022-07-07T08:45:20Z</time>
      </trkpt>
      <trkpt lat="47.74138" lon="4.98534">
        <ele>426.52</ele>
        <time>2022-07-07T08:46:08Z</time>
      </trkpt>
      <trkpt lat="47.74135" lon="4.98537">
        <ele>426.1</ele>
        <time>2022-07-07T08:46:13Z</time>
      </trkpt>
      <trkpt lat="47.74132" lon="4.98537">
        <ele>425.92</ele>
        <time>2022-07-07T08:46:17Z</time>
      </trkpt>
      <trkpt lat="47.74135" lon="4.98534">
        <ele>426.4</ele>
        <time>2022-07-07T08:46:25Z</time>
      </trkpt>
      <trkpt lat="47.74137" lon="4.98532">
        <ele>426.64</ele>
        <time>2022-07-07T08:46:28Z</time>
      </trkpt>
      <trkpt lat="47.7414" lon="4.98531">
        <ele>426.78</ele>
        <time>2022-07-07T08:46:40Z</time>
      </trkpt>
      <trkpt lat="47.74142" lon="4.98529">
        <ele>426.99</ele>
        <time>2022-07-07T08:46:45Z</time>
      </trkpt>
      <trkpt lat="47.74145" lon="4.98528">
        <ele>427.19</ele>
        <time>2022-07-07T08:46:54Z</time>
      </trkpt>
      <trkpt lat="47.74147" lon="4.98532">
        <ele>426.72</ele>
        <time>2022-07-07T08:46:59Z</time>
      </trkpt>
      <trkpt lat="47.74146" lon="4.98536">
        <ele>426.21</ele>
        <time>2022-07-07T08:47:06Z</time>
      </trkpt>
      <trkpt lat="47.74148" lon="4.98539">
        <ele>425.72</ele>
        <time>2022-07-07T08:47:52Z</time>
      </trkpt>
      <trkpt lat="47.7415" lon="4.98542">
        <ele>425.15</ele>
        <time>2022-07-07T08:48:01Z</time>
      </trkpt>
      <trkpt lat="47.74148" lon="4.98545">
        <ele>424.87</ele>
        <time>2022-07-07T08:48:08Z</time>
      </trkpt>
      <trkpt lat="47.74149" lon="4.98541">
        <ele>425.37</ele>
        <time>2022-07-07T08:48:38Z</time>
      </trkpt>
      <trkpt lat="47.74152" lon="4.98539">
        <ele>425.52</ele>
        <time>2022-07-07T08:48:43Z</time>
      </trkpt>
      <trkpt lat="47.74154" lon="4.9854">
        <ele>425.23</ele>
        <time>2022-07-07T08:48:47Z</time>
      </trkpt>
      <trkpt lat="47.74157" lon="4.98541">
        <ele>424.84</ele>
        <time>2022-07-07T08:48:51Z</time>
      </trkpt>
      <trkpt lat="47.74161" lon="4.98543">
        <ele>424.08</ele>
        <time>2022-07-07T08:48:53Z</time>
      </trkpt>
      <trkpt lat="47.74166" lon="4.98546">
        <ele>422.82</ele>
        <time>2022-07-07T08:48:55Z</time>
      </trkpt>
      <trkpt lat="47.74169" lon="4.98549">
        <ele>422.02</ele>
        <time>2022-07-07T08:48:58Z</time>
      </trkpt>
      <trkpt lat="47.74172" lon="4.9855">
        <ele>421.95</ele>
        <time>2022-07-07T08:49:01Z</time>
      </trkpt>
      <trkpt lat="47.74175" lon="4.98551">
        <ele>421.92</ele>
        <time>2022-07-07T08:49:05Z</time>
      </trkpt>
      <trkpt lat="47.74178" lon="4.98553">
        <ele>421.73</ele>
        <time>2022-07-07T08:49:06Z</time>
      </trkpt>
      <trkpt lat="47.74182" lon="4.98555">
        <ele>421.75</ele>
        <time>2022-07-07T08:49:08Z</time>
      </trkpt>
      <trkpt lat="47.74187" lon="4.98559">
        <ele>421.53</ele>
        <time>2022-07-07T08:49:12Z</time>
      </trkpt>
      <trkpt lat="47.74189" lon="4.9856">
        <ele>421.48</ele>
        <time>2022-07-07T08:49:15Z</time>
      </trkpt>
      <trkpt lat="47.74192" lon="4.98563">
        <ele>421</ele>
        <time>2022-07-07T08:49:26Z</time>
      </trkpt>
      <trkpt lat="47.74195" lon="4.98561">
        <ele>421.56</ele>
        <time>2022-07-07T08:49:53Z</time>
      </trkpt>
      <trkpt lat="47.74198" lon="4.9856">
        <ele>421.43</ele>
        <time>2022-07-07T08:49:57Z</time>
      </trkpt>
      <trkpt lat="47.74197" lon="4.98556">
        <ele>422.61</ele>
        <time>2022-07-07T08:50:09Z</time>
      </trkpt>
      <trkpt lat="47.74195" lon="4.98554">
        <ele>423.06</ele>
        <time>2022-07-07T08:50:18Z</time>
      </trkpt>
      <trkpt lat="47.7419" lon="4.98558">
        <ele>421.99</ele>
        <time>2022-07-07T08:50:40Z</time>
      </trkpt>
      <trkpt lat="47.74192" lon="4.98563">
        <ele>421</ele>
        <time>2022-07-07T08:50:47Z</time>
      </trkpt>
      <trkpt lat="47.74194" lon="4.98565">
        <ele>420.6</ele>
        <time>2022-07-07T08:50:59Z</time>
      </trkpt>
      <trkpt lat="47.74197" lon="4.98565">
        <ele>420.25</ele>
        <time>2022-07-07T08:51:07Z</time>
      </trkpt>
      <trkpt lat="47.742" lon="4.98566">
        <ele>419.54</ele>
        <time>2022-07-07T08:51:10Z</time>
      </trkpt>
      <trkpt lat="47.74204" lon="4.98566">
        <ele>418.95</ele>
        <time>2022-07-07T08:51:12Z</time>
      </trkpt>
      <trkpt lat="47.74206" lon="4.98567">
        <ele>418.35</ele>
        <time>2022-07-07T08:51:14Z</time>
      </trkpt>
      <trkpt lat="47.74209" lon="4.98569">
        <ele>417.28</ele>
        <time>2022-07-07T08:51:16Z</time>
      </trkpt>
      <trkpt lat="47.74212" lon="4.98571">
        <ele>416.16</ele>
        <time>2022-07-07T08:51:19Z</time>
      </trkpt>
      <trkpt lat="47.74214" lon="4.98573">
        <ele>415.17</ele>
        <time>2022-07-07T08:51:21Z</time>
      </trkpt>
      <trkpt lat="47.74217" lon="4.98575">
        <ele>413.96</ele>
        <time>2022-07-07T08:51:24Z</time>
      </trkpt>
      <trkpt lat="47.7422" lon="4.98577">
        <ele>412.71</ele>
        <time>2022-07-07T08:51:27Z</time>
      </trkpt>
      <trkpt lat="47.74225" lon="4.98579">
        <ele>410.58</ele>
        <time>2022-07-07T08:51:29Z</time>
      </trkpt>
      <trkpt lat="47.74231" lon="4.9858">
        <ele>408.17</ele>
        <time>2022-07-07T08:51:34Z</time>
      </trkpt>
      <trkpt lat="47.74238" lon="4.9858">
        <ele>405.75</ele>
        <time>2022-07-07T08:51:39Z</time>
      </trkpt>
      <trkpt lat="47.74242" lon="4.98578">
        <ele>404.83</ele>
        <time>2022-07-07T08:51:43Z</time>
      </trkpt>
      <trkpt lat="47.74247" lon="4.98578">
        <ele>403.04</ele>
        <time>2022-07-07T08:51:46Z</time>
      </trkpt>
      <trkpt lat="47.74254" lon="4.98578">
        <ele>402.25</ele>
        <time>2022-07-07T08:51:50Z</time>
      </trkpt>
      <trkpt lat="47.74258" lon="4.98577">
        <ele>402.68</ele>
        <time>2022-07-07T08:51:54Z</time>
      </trkpt>
      <trkpt lat="47.74261" lon="4.98575">
        <ele>403.09</ele>
        <time>2022-07-07T08:51:56Z</time>
      </trkpt>
      <trkpt lat="47.74265" lon="4.98575">
        <ele>403.31</ele>
        <time>2022-07-07T08:51:58Z</time>
      </trkpt>
      <trkpt lat="47.74272" lon="4.98575">
        <ele>403.69</ele>
        <time>2022-07-07T08:52:02Z</time>
      </trkpt>
      <trkpt lat="47.74278" lon="4.98574">
        <ele>403.98</ele>
        <time>2022-07-07T08:52:07Z</time>
      </trkpt>
      <trkpt lat="47.74283" lon="4.98575">
        <ele>403.47</ele>
        <time>2022-07-07T08:52:12Z</time>
      </trkpt>
      <trkpt lat="47.74287" lon="4.98574">
        <ele>403.12</ele>
        <time>2022-07-07T08:52:15Z</time>
      </trkpt>
      <trkpt lat="47.74293" lon="4.9857">
        <ele>402.86</ele>
        <time>2022-07-07T08:52:19Z</time>
      </trkpt>
      <trkpt lat="47.74299" lon="4.98565">
        <ele>402.96</ele>
        <time>2022-07-07T08:52:23Z</time>
      </trkpt>
      <trkpt lat="47.74305" lon="4.9856">
        <ele>403.37</ele>
        <time>2022-07-07T08:52:27Z</time>
      </trkpt>
      <trkpt lat="47.74311" lon="4.9856">
        <ele>403.2</ele>
        <time>2022-07-07T08:52:33Z</time>
      </trkpt>
      <trkpt lat="47.74319" lon="4.9856">
        <ele>402.95</ele>
        <time>2022-07-07T08:52:37Z</time>
      </trkpt>
      <trkpt lat="47.74325" lon="4.98559">
        <ele>402.89</ele>
        <time>2022-07-07T08:52:41Z</time>
      </trkpt>
      <trkpt lat="47.7433" lon="4.98558">
        <ele>402.85</ele>
        <time>2022-07-07T08:52:45Z</time>
      </trkpt>
      <trkpt lat="47.74333" lon="4.98557">
        <ele>402.86</ele>
        <time>2022-07-07T08:52:47Z</time>
      </trkpt>
      <trkpt lat="47.74337" lon="4.98555">
        <ele>402.35</ele>
        <time>2022-07-07T08:52:50Z</time>
      </trkpt>
      <trkpt lat="47.74341" lon="4.98552">
        <ele>401.76</ele>
        <time>2022-07-07T08:52:54Z</time>
      </trkpt>
      <trkpt lat="47.74344" lon="4.98551">
        <ele>401.33</ele>
        <time>2022-07-07T08:52:56Z</time>
      </trkpt>
      <trkpt lat="47.74346" lon="4.98554">
        <ele>400.82</ele>
        <time>2022-07-07T08:53:25Z</time>
      </trkpt>
      <trkpt lat="47.74351" lon="4.98551">
        <ele>400.24</ele>
        <time>2022-07-07T08:53:30Z</time>
      </trkpt>
      <trkpt lat="47.74354" lon="4.98551">
        <ele>399.77</ele>
        <time>2022-07-07T08:53:37Z</time>
      </trkpt>
      <trkpt lat="47.74357" lon="4.98552">
        <ele>399.18</ele>
        <time>2022-07-07T08:53:40Z</time>
      </trkpt>
      <trkpt lat="47.7436" lon="4.98553">
        <ele>398.55</ele>
        <time>2022-07-07T08:53:43Z</time>
      </trkpt>
      <trkpt lat="47.74363" lon="4.98552">
        <ele>398.58</ele>
        <time>2022-07-07T08:53:59Z</time>
      </trkpt>
      <trkpt lat="47.74366" lon="4.9855">
        <ele>398.98</ele>
        <time>2022-07-07T08:54:00Z</time>
      </trkpt>
      <trkpt lat="47.74371" lon="4.98548">
        <ele>399.44</ele>
        <time>2022-07-07T08:54:02Z</time>
      </trkpt>
      <trkpt lat="47.74374" lon="4.98548">
        <ele>399.55</ele>
        <time>2022-07-07T08:54:04Z</time>
      </trkpt>
      <trkpt lat="47.74378" lon="4.98548">
        <ele>399.7</ele>
        <time>2022-07-07T08:54:07Z</time>
      </trkpt>
      <trkpt lat="47.74383" lon="4.98548">
        <ele>399.88</ele>
        <time>2022-07-07T08:54:11Z</time>
      </trkpt>
      <trkpt lat="47.74389" lon="4.98548">
        <ele>400.09</ele>
        <time>2022-07-07T08:54:16Z</time>
      </trkpt>
      <trkpt lat="47.74393" lon="4.98547">
        <ele>400.3</ele>
        <time>2022-07-07T08:54:19Z</time>
      </trkpt>
      <trkpt lat="47.74398" lon="4.98547">
        <ele>400.38</ele>
        <time>2022-07-07T08:54:23Z</time>
      </trkpt>
      <trkpt lat="47.74403" lon="4.98546">
        <ele>400.52</ele>
        <time>2022-07-07T08:54:27Z</time>
      </trkpt>
      <trkpt lat="47.74407" lon="4.98546">
        <ele>400.56</ele>
        <time>2022-07-07T08:54:29Z</time>
      </trkpt>
      <trkpt lat="47.74409" lon="4.98547">
        <ele>400.57</ele>
        <time>2022-07-07T08:54:31Z</time>
      </trkpt>
      <trkpt lat="47.74412" lon="4.98548">
        <ele>400.62</ele>
        <time>2022-07-07T08:54:34Z</time>
      </trkpt>
      <trkpt lat="47.74415" lon="4.98549">
        <ele>400.71</ele>
        <time>2022-07-07T08:54:36Z</time>
      </trkpt>
      <trkpt lat="47.74418" lon="4.98549">
        <ele>400.69</ele>
        <time>2022-07-07T08:54:38Z</time>
      </trkpt>
      <trkpt lat="47.74421" lon="4.98549">
        <ele>400.53</ele>
        <time>2022-07-07T08:54:40Z</time>
      </trkpt>
      <trkpt lat="47.74424" lon="4.98548">
        <ele>400.34</ele>
        <time>2022-07-07T08:54:43Z</time>
      </trkpt>
      <trkpt lat="47.74427" lon="4.98548">
        <ele>400.19</ele>
        <time>2022-07-07T08:54:47Z</time>
      </trkpt>
      <trkpt lat="47.7443" lon="4.98546">
        <ele>400.03</ele>
        <time>2022-07-07T08:54:49Z</time>
      </trkpt>
      <trkpt lat="47.74433" lon="4.98545">
        <ele>399.89</ele>
        <time>2022-07-07T08:54:50Z</time>
      </trkpt>
      <trkpt lat="47.74436" lon="4.98543">
        <ele>399.79</ele>
        <time>2022-07-07T08:54:54Z</time>
      </trkpt>
      <trkpt lat="47.74439" lon="4.9854">
        <ele>399.73</ele>
        <time>2022-07-07T08:54:56Z</time>
      </trkpt>
      <trkpt lat="47.74444" lon="4.98535">
        <ele>399.75</ele>
        <time>2022-07-07T08:55:00Z</time>
      </trkpt>
      <trkpt lat="47.74449" lon="4.9853">
        <ele>398.96</ele>
        <time>2022-07-07T08:55:04Z</time>
      </trkpt>
      <trkpt lat="47.74455" lon="4.98526">
        <ele>397.76</ele>
        <time>2022-07-07T08:55:07Z</time>
      </trkpt>
      <trkpt lat="47.7446" lon="4.98522">
        <ele>396.73</ele>
        <time>2022-07-07T08:55:12Z</time>
      </trkpt>
      <trkpt lat="47.74464" lon="4.98519">
        <ele>395.87</ele>
        <time>2022-07-07T08:55:15Z</time>
      </trkpt>
      <trkpt lat="47.74469" lon="4.98514">
        <ele>394.75</ele>
        <time>2022-07-07T08:55:20Z</time>
      </trkpt>
      <trkpt lat="47.74472" lon="4.98512">
        <ele>394.05</ele>
        <time>2022-07-07T08:55:23Z</time>
      </trkpt>
      <trkpt lat="47.74475" lon="4.98509">
        <ele>393.67</ele>
        <time>2022-07-07T08:55:24Z</time>
      </trkpt>
      <trkpt lat="47.74477" lon="4.98507">
        <ele>393.44</ele>
        <time>2022-07-07T08:55:27Z</time>
      </trkpt>
      <trkpt lat="47.74479" lon="4.98505">
        <ele>393.22</ele>
        <time>2022-07-07T08:55:29Z</time>
      </trkpt>
      <trkpt lat="47.7448" lon="4.98501">
        <ele>393.15</ele>
        <time>2022-07-07T08:55:32Z</time>
      </trkpt>
      <trkpt lat="47.74482" lon="4.98497">
        <ele>392.84</ele>
        <time>2022-07-07T08:55:34Z</time>
      </trkpt>
      <trkpt lat="47.74483" lon="4.98493">
        <ele>392.58</ele>
        <time>2022-07-07T08:55:36Z</time>
      </trkpt>
      <trkpt lat="47.74485" lon="4.9849">
        <ele>392.26</ele>
        <time>2022-07-07T08:55:38Z</time>
      </trkpt>
      <trkpt lat="47.74485" lon="4.98485">
        <ele>392.08</ele>
        <time>2022-07-07T08:55:40Z</time>
      </trkpt>
      <trkpt lat="47.74486" lon="4.9848">
        <ele>391.79</ele>
        <time>2022-07-07T08:55:43Z</time>
      </trkpt>
      <trkpt lat="47.74487" lon="4.98475">
        <ele>391.5</ele>
        <time>2022-07-07T08:55:45Z</time>
      </trkpt>
      <trkpt lat="47.74489" lon="4.98471">
        <ele>391.16</ele>
        <time>2022-07-07T08:55:47Z</time>
      </trkpt>
      <trkpt lat="47.7449" lon="4.98467">
        <ele>390.96</ele>
        <time>2022-07-07T08:55:51Z</time>
      </trkpt>
      <trkpt lat="47.7449" lon="4.98463">
        <ele>390.87</ele>
        <time>2022-07-07T08:55:53Z</time>
      </trkpt>
      <trkpt lat="47.7449" lon="4.98458">
        <ele>390.75</ele>
        <time>2022-07-07T08:55:54Z</time>
      </trkpt>
      <trkpt lat="47.7449" lon="4.98454">
        <ele>390.66</ele>
        <time>2022-07-07T08:55:57Z</time>
      </trkpt>
      <trkpt lat="47.74491" lon="4.9845">
        <ele>390.43</ele>
        <time>2022-07-07T08:55:59Z</time>
      </trkpt>
      <trkpt lat="47.74492" lon="4.98445">
        <ele>390.17</ele>
        <time>2022-07-07T08:56:01Z</time>
      </trkpt>
      <trkpt lat="47.74492" lon="4.9844">
        <ele>390.2</ele>
        <time>2022-07-07T08:56:03Z</time>
      </trkpt>
      <trkpt lat="47.74493" lon="4.98435">
        <ele>390.09</ele>
        <time>2022-07-07T08:56:05Z</time>
      </trkpt>
      <trkpt lat="47.74494" lon="4.98428">
        <ele>389.99</ele>
        <time>2022-07-07T08:56:09Z</time>
      </trkpt>
      <trkpt lat="47.74493" lon="4.98423">
        <ele>390.2</ele>
        <time>2022-07-07T08:56:13Z</time>
      </trkpt>
      <trkpt lat="47.74492" lon="4.98419">
        <ele>390.42</ele>
        <time>2022-07-07T08:56:14Z</time>
      </trkpt>
      <trkpt lat="47.74492" lon="4.98414">
        <ele>390.32</ele>
        <time>2022-07-07T08:56:17Z</time>
      </trkpt>
      <trkpt lat="47.74494" lon="4.9841">
        <ele>389.79</ele>
        <time>2022-07-07T08:56:19Z</time>
      </trkpt>
      <trkpt lat="47.74495" lon="4.98406">
        <ele>389.45</ele>
        <time>2022-07-07T08:56:23Z</time>
      </trkpt>
      <trkpt lat="47.74496" lon="4.98402">
        <ele>389.12</ele>
        <time>2022-07-07T08:56:26Z</time>
      </trkpt>
      <trkpt lat="47.74498" lon="4.98396">
        <ele>388.56</ele>
        <time>2022-07-07T08:56:28Z</time>
      </trkpt>
      <trkpt lat="47.74501" lon="4.98389">
        <ele>387.79</ele>
        <time>2022-07-07T08:56:32Z</time>
      </trkpt>
      <trkpt lat="47.74503" lon="4.98385">
        <ele>387.21</ele>
        <time>2022-07-07T08:56:35Z</time>
      </trkpt>
      <trkpt lat="47.74503" lon="4.9838">
        <ele>387.03</ele>
        <time>2022-07-07T08:56:41Z</time>
      </trkpt>
      <trkpt lat="47.74502" lon="4.98376">
        <ele>387.1</ele>
        <time>2022-07-07T08:56:45Z</time>
      </trkpt>
      <trkpt lat="47.74501" lon="4.98372">
        <ele>387.18</ele>
        <time>2022-07-07T08:56:47Z</time>
      </trkpt>
      <trkpt lat="47.745" lon="4.98367">
        <ele>387.21</ele>
        <time>2022-07-07T08:56:48Z</time>
      </trkpt>
      <trkpt lat="47.74502" lon="4.9836">
        <ele>386.49</ele>
        <time>2022-07-07T08:56:52Z</time>
      </trkpt>
      <trkpt lat="47.74504" lon="4.98356">
        <ele>385.79</ele>
        <time>2022-07-07T08:56:54Z</time>
      </trkpt>
      <trkpt lat="47.74506" lon="4.98353">
        <ele>385.18</ele>
        <time>2022-07-07T08:56:56Z</time>
      </trkpt>
      <trkpt lat="47.74509" lon="4.9834">
        <ele>383.78</ele>
        <time>2022-07-07T08:57:02Z</time>
      </trkpt>
      <trkpt lat="47.74509" lon="4.98329">
        <ele>383.22</ele>
        <time>2022-07-07T08:57:09Z</time>
      </trkpt>
      <trkpt lat="47.74508" lon="4.98323">
        <ele>383.19</ele>
        <time>2022-07-07T08:57:12Z</time>
      </trkpt>
      <trkpt lat="47.74508" lon="4.98317">
        <ele>382.97</ele>
        <time>2022-07-07T08:57:15Z</time>
      </trkpt>
      <trkpt lat="47.74509" lon="4.98309">
        <ele>382.5</ele>
        <time>2022-07-07T08:57:19Z</time>
      </trkpt>
      <trkpt lat="47.74513" lon="4.98304">
        <ele>381.66</ele>
        <time>2022-07-07T08:57:26Z</time>
      </trkpt>
      <trkpt lat="47.74511" lon="4.98307">
        <ele>382.07</ele>
        <time>2022-07-07T08:57:50Z</time>
      </trkpt>
      <trkpt lat="47.74515" lon="4.98305">
        <ele>381.3</ele>
        <time>2022-07-07T08:57:58Z</time>
      </trkpt>
      <trkpt lat="47.74519" lon="4.98303">
        <ele>380.55</ele>
        <time>2022-07-07T08:58:05Z</time>
      </trkpt>
      <trkpt lat="47.74517" lon="4.98306">
        <ele>380.96</ele>
        <time>2022-07-07T08:58:19Z</time>
      </trkpt>
      <trkpt lat="47.74509" lon="4.98302">
        <ele>382.43</ele>
        <time>2022-07-07T08:58:47Z</time>
      </trkpt>
      <trkpt lat="47.74512" lon="4.98306">
        <ele>381.86</ele>
        <time>2022-07-07T08:58:54Z</time>
      </trkpt>
      <trkpt lat="47.74518" lon="4.98303">
        <ele>380.73</ele>
        <time>2022-07-07T08:59:19Z</time>
      </trkpt>
      <trkpt lat="47.74516" lon="4.98308">
        <ele>381.21</ele>
        <time>2022-07-07T08:59:26Z</time>
      </trkpt>
      <trkpt lat="47.74511" lon="4.98308">
        <ele>382.11</ele>
        <time>2022-07-07T08:59:30Z</time>
      </trkpt>
      <trkpt lat="47.74512" lon="4.98302">
        <ele>381.86</ele>
        <time>2022-07-07T08:59:33Z</time>
      </trkpt>
      <trkpt lat="47.74515" lon="4.98298">
        <ele>381.28</ele>
        <time>2022-07-07T08:59:37Z</time>
      </trkpt>
      <trkpt lat="47.74514" lon="4.98302">
        <ele>381.48</ele>
        <time>2022-07-07T08:59:56Z</time>
      </trkpt>
      <trkpt lat="47.74512" lon="4.983">
        <ele>381.87</ele>
        <time>2022-07-07T09:00:07Z</time>
      </trkpt>
      <trkpt lat="47.74512" lon="4.98296">
        <ele>381.89</ele>
        <time>2022-07-07T09:00:11Z</time>
      </trkpt>
      <trkpt lat="47.74513" lon="4.98292">
        <ele>381.69</ele>
        <time>2022-07-07T09:00:14Z</time>
      </trkpt>
      <trkpt lat="47.74514" lon="4.98287">
        <ele>381.47</ele>
        <time>2022-07-07T09:00:17Z</time>
      </trkpt>
      <trkpt lat="47.74514" lon="4.98281">
        <ele>381.47</ele>
        <time>2022-07-07T09:00:20Z</time>
      </trkpt>
      <trkpt lat="47.74516" lon="4.98276">
        <ele>380.95</ele>
        <time>2022-07-07T09:00:23Z</time>
      </trkpt>
      <trkpt lat="47.74517" lon="4.98272">
        <ele>380.68</ele>
        <time>2022-07-07T09:00:25Z</time>
      </trkpt>
      <trkpt lat="47.74518" lon="4.98269">
        <ele>380.45</ele>
        <time>2022-07-07T09:00:27Z</time>
      </trkpt>
      <trkpt lat="47.7452" lon="4.98265">
        <ele>380.03</ele>
        <time>2022-07-07T09:00:29Z</time>
      </trkpt>
      <trkpt lat="47.74521" lon="4.9826">
        <ele>379.88</ele>
        <time>2022-07-07T09:00:33Z</time>
      </trkpt>
      <trkpt lat="47.74521" lon="4.98256">
        <ele>379.92</ele>
        <time>2022-07-07T09:00:35Z</time>
      </trkpt>
      <trkpt lat="47.74522" lon="4.98251">
        <ele>379.82</ele>
        <time>2022-07-07T09:00:39Z</time>
      </trkpt>
      <trkpt lat="47.74524" lon="4.98247">
        <ele>379.44</ele>
        <time>2022-07-07T09:00:42Z</time>
      </trkpt>
      <trkpt lat="47.74526" lon="4.98244">
        <ele>379.04</ele>
        <time>2022-07-07T09:00:44Z</time>
      </trkpt>
      <trkpt lat="47.74527" lon="4.9824">
        <ele>378.75</ele>
        <time>2022-07-07T09:00:46Z</time>
      </trkpt>
      <trkpt lat="47.74529" lon="4.98235">
        <ele>378.29</ele>
        <time>2022-07-07T09:00:49Z</time>
      </trkpt>
      <trkpt lat="47.74531" lon="4.98231">
        <ele>377.89</ele>
        <time>2022-07-07T09:00:51Z</time>
      </trkpt>
      <trkpt lat="47.74533" lon="4.98226">
        <ele>377.52</ele>
        <time>2022-07-07T09:00:54Z</time>
      </trkpt>
      <trkpt lat="47.74535" lon="4.98223">
        <ele>377.23</ele>
        <time>2022-07-07T09:00:56Z</time>
      </trkpt>
      <trkpt lat="47.74537" lon="4.98218">
        <ele>376.75</ele>
        <time>2022-07-07T09:00:59Z</time>
      </trkpt>
      <trkpt lat="47.74539" lon="4.98213">
        <ele>376.19</ele>
        <time>2022-07-07T09:01:02Z</time>
      </trkpt>
      <trkpt lat="47.74541" lon="4.98209">
        <ele>375.64</ele>
        <time>2022-07-07T09:01:05Z</time>
      </trkpt>
      <trkpt lat="47.74543" lon="4.98206">
        <ele>375.13</ele>
        <time>2022-07-07T09:01:07Z</time>
      </trkpt>
      <trkpt lat="47.74545" lon="4.98201">
        <ele>374.43</ele>
        <time>2022-07-07T09:01:10Z</time>
      </trkpt>
      <trkpt lat="47.74548" lon="4.98198">
        <ele>373.67</ele>
        <time>2022-07-07T09:01:12Z</time>
      </trkpt>
      <trkpt lat="47.7455" lon="4.98195">
        <ele>373.05</ele>
        <time>2022-07-07T09:01:15Z</time>
      </trkpt>
      <trkpt lat="47.74552" lon="4.9819">
        <ele>373.08</ele>
        <time>2022-07-07T09:01:18Z</time>
      </trkpt>
      <trkpt lat="47.74553" lon="4.98185">
        <ele>373.42</ele>
        <time>2022-07-07T09:01:21Z</time>
      </trkpt>
      <trkpt lat="47.74555" lon="4.98182">
        <ele>373.43</ele>
        <time>2022-07-07T09:01:25Z</time>
      </trkpt>
      <trkpt lat="47.74556" lon="4.98178">
        <ele>373.79</ele>
        <time>2022-07-07T09:01:27Z</time>
      </trkpt>
      <trkpt lat="47.74557" lon="4.98174">
        <ele>374.24</ele>
        <time>2022-07-07T09:01:29Z</time>
      </trkpt>
      <trkpt lat="47.74558" lon="4.9817">
        <ele>374.66</ele>
        <time>2022-07-07T09:01:31Z</time>
      </trkpt>
      <trkpt lat="47.74558" lon="4.98165">
        <ele>375.06</ele>
        <time>2022-07-07T09:01:34Z</time>
      </trkpt>
      <trkpt lat="47.74557" lon="4.9816">
        <ele>375.24</ele>
        <time>2022-07-07T09:01:37Z</time>
      </trkpt>
      <trkpt lat="47.74558" lon="4.98156">
        <ele>375.38</ele>
        <time>2022-07-07T09:01:40Z</time>
      </trkpt>
      <trkpt lat="47.74559" lon="4.9815">
        <ele>375.6</ele>
        <time>2022-07-07T09:01:43Z</time>
      </trkpt>
      <trkpt lat="47.7456" lon="4.98145">
        <ele>375.78</ele>
        <time>2022-07-07T09:01:46Z</time>
      </trkpt>
      <trkpt lat="47.7456" lon="4.98139">
        <ele>376</ele>
        <time>2022-07-07T09:01:50Z</time>
      </trkpt>
      <trkpt lat="47.74561" lon="4.98134">
        <ele>375.65</ele>
        <time>2022-07-07T09:01:53Z</time>
      </trkpt>
      <trkpt lat="47.74562" lon="4.9813">
        <ele>375.36</ele>
        <time>2022-07-07T09:01:55Z</time>
      </trkpt>
      <trkpt lat="47.74564" lon="4.98127">
        <ele>375.14</ele>
        <time>2022-07-07T09:01:57Z</time>
      </trkpt>
      <trkpt lat="47.74565" lon="4.98123">
        <ele>374.86</ele>
        <time>2022-07-07T09:01:59Z</time>
      </trkpt>
      <trkpt lat="47.74566" lon="4.98118">
        <ele>374.5</ele>
        <time>2022-07-07T09:02:01Z</time>
      </trkpt>
      <trkpt lat="47.74568" lon="4.98114">
        <ele>374.21</ele>
        <time>2022-07-07T09:02:04Z</time>
      </trkpt>
      <trkpt lat="47.74569" lon="4.9811">
        <ele>373.9</ele>
        <time>2022-07-07T09:02:06Z</time>
      </trkpt>
      <trkpt lat="47.7457" lon="4.98106">
        <ele>373.54</ele>
        <time>2022-07-07T09:02:09Z</time>
      </trkpt>
      <trkpt lat="47.74571" lon="4.98102">
        <ele>373.2</ele>
        <time>2022-07-07T09:02:11Z</time>
      </trkpt>
      <trkpt lat="47.74574" lon="4.98097">
        <ele>372.81</ele>
        <time>2022-07-07T09:02:14Z</time>
      </trkpt>
      <trkpt lat="47.74575" lon="4.98094">
        <ele>372.58</ele>
        <time>2022-07-07T09:02:16Z</time>
      </trkpt>
      <trkpt lat="47.74577" lon="4.9809">
        <ele>372.31</ele>
        <time>2022-07-07T09:02:19Z</time>
      </trkpt>
      <trkpt lat="47.74579" lon="4.98086">
        <ele>372.05</ele>
        <time>2022-07-07T09:02:22Z</time>
      </trkpt>
      <trkpt lat="47.7458" lon="4.98082">
        <ele>371.7</ele>
        <time>2022-07-07T09:02:25Z</time>
      </trkpt>
      <trkpt lat="47.74581" lon="4.98077">
        <ele>371.04</ele>
        <time>2022-07-07T09:02:29Z</time>
      </trkpt>
      <trkpt lat="47.74586" lon="4.98071">
        <ele>370.01</ele>
        <time>2022-07-07T09:02:39Z</time>
      </trkpt>
      <trkpt lat="47.74589" lon="4.98066">
        <ele>369.2</ele>
        <time>2022-07-07T09:02:43Z</time>
      </trkpt>
      <trkpt lat="47.74592" lon="4.9806">
        <ele>368.44</ele>
        <time>2022-07-07T09:02:47Z</time>
      </trkpt>
      <trkpt lat="47.74595" lon="4.98056">
        <ele>368.04</ele>
        <time>2022-07-07T09:02:49Z</time>
      </trkpt>
      <trkpt lat="47.74596" lon="4.98051">
        <ele>367.51</ele>
        <time>2022-07-07T09:02:54Z</time>
      </trkpt>
      <trkpt lat="47.74595" lon="4.98047">
        <ele>367.08</ele>
        <time>2022-07-07T09:02:57Z</time>
      </trkpt>
      <trkpt lat="47.74597" lon="4.98042">
        <ele>366.54</ele>
        <time>2022-07-07T09:03:00Z</time>
      </trkpt>
      <trkpt lat="47.74597" lon="4.98037">
        <ele>366</ele>
        <time>2022-07-07T09:03:03Z</time>
      </trkpt>
      <trkpt lat="47.74596" lon="4.98032">
        <ele>365.46</ele>
        <time>2022-07-07T09:03:05Z</time>
      </trkpt>
      <trkpt lat="47.74596" lon="4.98029">
        <ele>365.13</ele>
        <time>2022-07-07T09:03:07Z</time>
      </trkpt>
      <trkpt lat="47.74596" lon="4.98024">
        <ele>364.65</ele>
        <time>2022-07-07T09:03:10Z</time>
      </trkpt>
      <trkpt lat="47.74593" lon="4.98021">
        <ele>364.35</ele>
        <time>2022-07-07T09:03:18Z</time>
      </trkpt>
      <trkpt lat="47.74592" lon="4.98017">
        <ele>363.96</ele>
        <time>2022-07-07T09:03:22Z</time>
      </trkpt>
      <trkpt lat="47.74591" lon="4.98012">
        <ele>363.45</ele>
        <time>2022-07-07T09:03:24Z</time>
      </trkpt>
      <trkpt lat="47.74592" lon="4.98007">
        <ele>362.99</ele>
        <time>2022-07-07T09:03:27Z</time>
      </trkpt>
      <trkpt lat="47.74593" lon="4.98003">
        <ele>362.63</ele>
        <time>2022-07-07T09:03:30Z</time>
      </trkpt>
      <trkpt lat="47.74595" lon="4.97998">
        <ele>362.45</ele>
        <time>2022-07-07T09:03:45Z</time>
      </trkpt>
      <trkpt lat="47.74596" lon="4.97995">
        <ele>362.54</ele>
        <time>2022-07-07T09:03:48Z</time>
      </trkpt>
      <trkpt lat="47.74599" lon="4.97992">
        <ele>362.73</ele>
        <time>2022-07-07T09:03:49Z</time>
      </trkpt>
      <trkpt lat="47.74601" lon="4.97988">
        <ele>362.91</ele>
        <time>2022-07-07T09:03:53Z</time>
      </trkpt>
      <trkpt lat="47.74603" lon="4.97984">
        <ele>363.12</ele>
        <time>2022-07-07T09:03:55Z</time>
      </trkpt>
      <trkpt lat="47.74604" lon="4.97979">
        <ele>363.31</ele>
        <time>2022-07-07T09:03:58Z</time>
      </trkpt>
      <trkpt lat="47.74605" lon="4.97975">
        <ele>363.48</ele>
        <time>2022-07-07T09:04:00Z</time>
      </trkpt>
      <trkpt lat="47.74606" lon="4.9797">
        <ele>363.63</ele>
        <time>2022-07-07T09:04:03Z</time>
      </trkpt>
      <trkpt lat="47.74607" lon="4.97966">
        <ele>363.7</ele>
        <time>2022-07-07T09:04:06Z</time>
      </trkpt>
      <trkpt lat="47.74607" lon="4.97961">
        <ele>363.7</ele>
        <time>2022-07-07T09:04:09Z</time>
      </trkpt>
      <trkpt lat="47.74609" lon="4.97956">
        <ele>363.85</ele>
        <time>2022-07-07T09:04:12Z</time>
      </trkpt>
      <trkpt lat="47.74611" lon="4.97952">
        <ele>363.99</ele>
        <time>2022-07-07T09:04:15Z</time>
      </trkpt>
      <trkpt lat="47.74613" lon="4.97949">
        <ele>363.73</ele>
        <time>2022-07-07T09:04:17Z</time>
      </trkpt>
      <trkpt lat="47.74615" lon="4.97945">
        <ele>363.44</ele>
        <time>2022-07-07T09:04:20Z</time>
      </trkpt>
      <trkpt lat="47.74616" lon="4.97942">
        <ele>363.12</ele>
        <time>2022-07-07T09:04:23Z</time>
      </trkpt>
      <trkpt lat="47.74617" lon="4.97937">
        <ele>362.62</ele>
        <time>2022-07-07T09:04:25Z</time>
      </trkpt>
      <trkpt lat="47.74618" lon="4.97934">
        <ele>362.26</ele>
        <time>2022-07-07T09:04:27Z</time>
      </trkpt>
      <trkpt lat="47.74618" lon="4.97929">
        <ele>361.9</ele>
        <time>2022-07-07T09:04:30Z</time>
      </trkpt>
      <trkpt lat="47.74619" lon="4.97925">
        <ele>361.46</ele>
        <time>2022-07-07T09:04:32Z</time>
      </trkpt>
      <trkpt lat="47.7462" lon="4.97921">
        <ele>361.03</ele>
        <time>2022-07-07T09:04:37Z</time>
      </trkpt>
      <trkpt lat="47.74625" lon="4.97904">
        <ele>359.54</ele>
        <time>2022-07-07T09:04:46Z</time>
      </trkpt>
      <trkpt lat="47.74627" lon="4.97894">
        <ele>359.01</ele>
        <time>2022-07-07T09:04:51Z</time>
      </trkpt>
      <trkpt lat="47.74631" lon="4.97892">
        <ele>358.63</ele>
        <time>2022-07-07T09:04:54Z</time>
      </trkpt>
      <trkpt lat="47.74633" lon="4.97889">
        <ele>358.43</ele>
        <time>2022-07-07T09:04:58Z</time>
      </trkpt>
      <trkpt lat="47.74634" lon="4.97885">
        <ele>358.21</ele>
        <time>2022-07-07T09:05:00Z</time>
      </trkpt>
      <trkpt lat="47.74635" lon="4.97881">
        <ele>358</ele>
        <time>2022-07-07T09:05:02Z</time>
      </trkpt>
      <trkpt lat="47.74637" lon="4.97878">
        <ele>357.74</ele>
        <time>2022-07-07T09:05:04Z</time>
      </trkpt>
      <trkpt lat="47.7464" lon="4.97876">
        <ele>357.62</ele>
        <time>2022-07-07T09:05:06Z</time>
      </trkpt>
      <trkpt lat="47.74642" lon="4.97874">
        <ele>357.69</ele>
        <time>2022-07-07T09:05:09Z</time>
      </trkpt>
      <trkpt lat="47.74645" lon="4.97872">
        <ele>357.83</ele>
        <time>2022-07-07T09:05:12Z</time>
      </trkpt>
      <trkpt lat="47.74647" lon="4.97871">
        <ele>357.94</ele>
        <time>2022-07-07T09:05:14Z</time>
      </trkpt>
      <trkpt lat="47.7465" lon="4.97869">
        <ele>358.08</ele>
        <time>2022-07-07T09:05:17Z</time>
      </trkpt>
      <trkpt lat="47.74652" lon="4.97866">
        <ele>358.12</ele>
        <time>2022-07-07T09:05:20Z</time>
      </trkpt>
      <trkpt lat="47.74654" lon="4.97863">
        <ele>358.16</ele>
        <time>2022-07-07T09:05:22Z</time>
      </trkpt>
      <trkpt lat="47.74657" lon="4.9786">
        <ele>358.3</ele>
        <time>2022-07-07T09:05:25Z</time>
      </trkpt>
      <trkpt lat="47.7466" lon="4.97859">
        <ele>358.52</ele>
        <time>2022-07-07T09:05:27Z</time>
      </trkpt>
      <trkpt lat="47.74663" lon="4.97858">
        <ele>358.74</ele>
        <time>2022-07-07T09:05:30Z</time>
      </trkpt>
      <trkpt lat="47.74666" lon="4.97856">
        <ele>358.95</ele>
        <time>2022-07-07T09:05:32Z</time>
      </trkpt>
      <trkpt lat="47.74669" lon="4.97854">
        <ele>358.92</ele>
        <time>2022-07-07T09:05:35Z</time>
      </trkpt>
      <trkpt lat="47.74671" lon="4.97852">
        <ele>358.84</ele>
        <time>2022-07-07T09:05:37Z</time>
      </trkpt>
      <trkpt lat="47.74675" lon="4.9785">
        <ele>358.7</ele>
        <time>2022-07-07T09:05:40Z</time>
      </trkpt>
      <trkpt lat="47.74678" lon="4.97849">
        <ele>358.59</ele>
        <time>2022-07-07T09:05:42Z</time>
      </trkpt>
      <trkpt lat="47.7468" lon="4.97848">
        <ele>358.52</ele>
        <time>2022-07-07T09:05:44Z</time>
      </trkpt>
      <trkpt lat="47.74683" lon="4.97847">
        <ele>358.41</ele>
        <time>2022-07-07T09:05:47Z</time>
      </trkpt>
      <trkpt lat="47.74686" lon="4.97845">
        <ele>358.3</ele>
        <time>2022-07-07T09:05:49Z</time>
      </trkpt>
      <trkpt lat="47.7469" lon="4.97843">
        <ele>358.16</ele>
        <time>2022-07-07T09:05:51Z</time>
      </trkpt>
      <trkpt lat="47.74692" lon="4.97842">
        <ele>358.09</ele>
        <time>2022-07-07T09:05:53Z</time>
      </trkpt>
      <trkpt lat="47.74695" lon="4.97842">
        <ele>358.04</ele>
        <time>2022-07-07T09:05:56Z</time>
      </trkpt>
      <trkpt lat="47.74698" lon="4.97841">
        <ele>358.23</ele>
        <time>2022-07-07T09:05:57Z</time>
      </trkpt>
      <trkpt lat="47.74701" lon="4.97841">
        <ele>358.43</ele>
        <time>2022-07-07T09:05:59Z</time>
      </trkpt>
      <trkpt lat="47.74704" lon="4.97839">
        <ele>358.55</ele>
        <time>2022-07-07T09:06:02Z</time>
      </trkpt>
      <trkpt lat="47.74707" lon="4.97838">
        <ele>358.68</ele>
        <time>2022-07-07T09:06:04Z</time>
      </trkpt>
      <trkpt lat="47.74709" lon="4.97838">
        <ele>358.79</ele>
        <time>2022-07-07T09:06:07Z</time>
      </trkpt>
      <trkpt lat="47.74712" lon="4.97838">
        <ele>358.95</ele>
        <time>2022-07-07T09:06:08Z</time>
      </trkpt>
      <trkpt lat="47.74715" lon="4.97839">
        <ele>359.19</ele>
        <time>2022-07-07T09:06:11Z</time>
      </trkpt>
      <trkpt lat="47.74718" lon="4.9784">
        <ele>359.46</ele>
        <time>2022-07-07T09:06:13Z</time>
      </trkpt>
      <trkpt lat="47.74721" lon="4.97841">
        <ele>359.75</ele>
        <time>2022-07-07T09:06:16Z</time>
      </trkpt>
      <trkpt lat="47.74724" lon="4.97841">
        <ele>359.81</ele>
        <time>2022-07-07T09:06:19Z</time>
      </trkpt>
      <trkpt lat="47.74727" lon="4.97841">
        <ele>359.78</ele>
        <time>2022-07-07T09:06:23Z</time>
      </trkpt>
      <trkpt lat="47.74729" lon="4.9784">
        <ele>359.66</ele>
        <time>2022-07-07T09:06:28Z</time>
      </trkpt>
      <trkpt lat="47.74732" lon="4.97839">
        <ele>359.54</ele>
        <time>2022-07-07T09:06:33Z</time>
      </trkpt>
      <trkpt lat="47.74736" lon="4.97839">
        <ele>359.51</ele>
        <time>2022-07-07T09:06:37Z</time>
      </trkpt>
      <trkpt lat="47.74739" lon="4.9784">
        <ele>359.58</ele>
        <time>2022-07-07T09:06:39Z</time>
      </trkpt>
      <trkpt lat="47.74742" lon="4.9784">
        <ele>359.55</ele>
        <time>2022-07-07T09:06:42Z</time>
      </trkpt>
      <trkpt lat="47.74746" lon="4.97839">
        <ele>359.44</ele>
        <time>2022-07-07T09:06:46Z</time>
      </trkpt>
      <trkpt lat="47.74749" lon="4.97838">
        <ele>359.34</ele>
        <time>2022-07-07T09:06:48Z</time>
      </trkpt>
      <trkpt lat="47.74752" lon="4.97837">
        <ele>358.85</ele>
        <time>2022-07-07T09:06:50Z</time>
      </trkpt>
      <trkpt lat="47.74755" lon="4.97836">
        <ele>358.15</ele>
        <time>2022-07-07T09:06:52Z</time>
      </trkpt>
      <trkpt lat="47.74757" lon="4.97835">
        <ele>357.64</ele>
        <time>2022-07-07T09:06:54Z</time>
      </trkpt>
      <trkpt lat="47.7476" lon="4.97834">
        <ele>356.91</ele>
        <time>2022-07-07T09:06:57Z</time>
      </trkpt>
      <trkpt lat="47.74763" lon="4.97834">
        <ele>356.26</ele>
        <time>2022-07-07T09:07:05Z</time>
      </trkpt>
      <trkpt lat="47.74766" lon="4.97834">
        <ele>355.62</ele>
        <time>2022-07-07T09:07:08Z</time>
      </trkpt>
      <trkpt lat="47.74769" lon="4.97833">
        <ele>354.88</ele>
        <time>2022-07-07T09:07:10Z</time>
      </trkpt>
      <trkpt lat="47.74772" lon="4.97834">
        <ele>354.33</ele>
        <time>2022-07-07T09:07:12Z</time>
      </trkpt>
      <trkpt lat="47.74775" lon="4.97833">
        <ele>353.59</ele>
        <time>2022-07-07T09:07:14Z</time>
      </trkpt>
      <trkpt lat="47.74778" lon="4.97831">
        <ele>352.94</ele>
        <time>2022-07-07T09:07:16Z</time>
      </trkpt>
      <trkpt lat="47.74781" lon="4.97829">
        <ele>353.23</ele>
        <time>2022-07-07T09:07:19Z</time>
      </trkpt>
      <trkpt lat="47.74785" lon="4.97827">
        <ele>353.67</ele>
        <time>2022-07-07T09:07:21Z</time>
      </trkpt>
      <trkpt lat="47.74787" lon="4.97825">
        <ele>353.9</ele>
        <time>2022-07-07T09:07:23Z</time>
      </trkpt>
      <trkpt lat="47.7479" lon="4.97824">
        <ele>354.28</ele>
        <time>2022-07-07T09:07:25Z</time>
      </trkpt>
      <trkpt lat="47.74793" lon="4.97822">
        <ele>354.68</ele>
        <time>2022-07-07T09:07:27Z</time>
      </trkpt>
      <trkpt lat="47.74796" lon="4.97821">
        <ele>355.11</ele>
        <time>2022-07-07T09:07:30Z</time>
      </trkpt>
      <trkpt lat="47.74799" lon="4.9782">
        <ele>355.55</ele>
        <time>2022-07-07T09:07:32Z</time>
      </trkpt>
      <trkpt lat="47.74802" lon="4.97819">
        <ele>356</ele>
        <time>2022-07-07T09:07:34Z</time>
      </trkpt>
      <trkpt lat="47.74805" lon="4.97818">
        <ele>356.47</ele>
        <time>2022-07-07T09:07:36Z</time>
      </trkpt>
      <trkpt lat="47.74809" lon="4.97817">
        <ele>356.84</ele>
        <time>2022-07-07T09:07:39Z</time>
      </trkpt>
      <trkpt lat="47.74812" lon="4.97815">
        <ele>357.12</ele>
        <time>2022-07-07T09:07:41Z</time>
      </trkpt>
      <trkpt lat="47.74815" lon="4.97814">
        <ele>357.38</ele>
        <time>2022-07-07T09:07:44Z</time>
      </trkpt>
      <trkpt lat="47.74818" lon="4.97812">
        <ele>357.66</ele>
        <time>2022-07-07T09:07:45Z</time>
      </trkpt>
      <trkpt lat="47.74821" lon="4.9781">
        <ele>357.95</ele>
        <time>2022-07-07T09:07:47Z</time>
      </trkpt>
      <trkpt lat="47.74824" lon="4.97808">
        <ele>358.24</ele>
        <time>2022-07-07T09:07:50Z</time>
      </trkpt>
      <trkpt lat="47.74827" lon="4.97807">
        <ele>358.49</ele>
        <time>2022-07-07T09:07:52Z</time>
      </trkpt>
      <trkpt lat="47.7483" lon="4.97806">
        <ele>358.74</ele>
        <time>2022-07-07T09:07:54Z</time>
      </trkpt>
      <trkpt lat="47.74833" lon="4.97804">
        <ele>359.09</ele>
        <time>2022-07-07T09:07:56Z</time>
      </trkpt>
      <trkpt lat="47.74836" lon="4.97803">
        <ele>359.56</ele>
        <time>2022-07-07T09:07:59Z</time>
      </trkpt>
      <trkpt lat="47.74839" lon="4.97802">
        <ele>360.05</ele>
        <time>2022-07-07T09:08:01Z</time>
      </trkpt>
      <trkpt lat="47.74842" lon="4.97801">
        <ele>360.52</ele>
        <time>2022-07-07T09:08:03Z</time>
      </trkpt>
      <trkpt lat="47.74845" lon="4.97801">
        <ele>360.94</ele>
        <time>2022-07-07T09:08:06Z</time>
      </trkpt>
      <trkpt lat="47.74848" lon="4.978">
        <ele>361.41</ele>
        <time>2022-07-07T09:08:08Z</time>
      </trkpt>
      <trkpt lat="47.74851" lon="4.978">
        <ele>361.82</ele>
        <time>2022-07-07T09:08:11Z</time>
      </trkpt>
      <trkpt lat="47.74854" lon="4.97799">
        <ele>362.27</ele>
        <time>2022-07-07T09:08:14Z</time>
      </trkpt>
      <trkpt lat="47.74858" lon="4.978">
        <ele>362.77</ele>
        <time>2022-07-07T09:08:17Z</time>
      </trkpt>
      <trkpt lat="47.74861" lon="4.978">
        <ele>363.18</ele>
        <time>2022-07-07T09:08:20Z</time>
      </trkpt>
      <trkpt lat="47.74864" lon="4.97801">
        <ele>363.08</ele>
        <time>2022-07-07T09:08:22Z</time>
      </trkpt>
      <trkpt lat="47.74866" lon="4.97802">
        <ele>362.97</ele>
        <time>2022-07-07T09:08:24Z</time>
      </trkpt>
      <trkpt lat="47.7487" lon="4.97803">
        <ele>362.8</ele>
        <time>2022-07-07T09:08:27Z</time>
      </trkpt>
      <trkpt lat="47.74872" lon="4.97804">
        <ele>362.69</ele>
        <time>2022-07-07T09:08:29Z</time>
      </trkpt>
      <trkpt lat="47.74875" lon="4.97806">
        <ele>362.47</ele>
        <time>2022-07-07T09:08:32Z</time>
      </trkpt>
      <trkpt lat="47.74878" lon="4.97807">
        <ele>362.29</ele>
        <time>2022-07-07T09:08:34Z</time>
      </trkpt>
      <trkpt lat="47.74881" lon="4.97809">
        <ele>362.04</ele>
        <time>2022-07-07T09:08:36Z</time>
      </trkpt>
      <trkpt lat="47.74884" lon="4.97811">
        <ele>361.78</ele>
        <time>2022-07-07T09:08:38Z</time>
      </trkpt>
      <trkpt lat="47.74886" lon="4.97812">
        <ele>361.64</ele>
        <time>2022-07-07T09:08:41Z</time>
      </trkpt>
      <trkpt lat="47.74889" lon="4.97814">
        <ele>361.4</ele>
        <time>2022-07-07T09:08:44Z</time>
      </trkpt>
      <trkpt lat="47.74892" lon="4.97815">
        <ele>361.47</ele>
        <time>2022-07-07T09:08:46Z</time>
      </trkpt>
      <trkpt lat="47.74894" lon="4.97816">
        <ele>361.5</ele>
        <time>2022-07-07T09:08:49Z</time>
      </trkpt>
      <trkpt lat="47.74897" lon="4.97817">
        <ele>361.59</ele>
        <time>2022-07-07T09:08:51Z</time>
      </trkpt>
      <trkpt lat="47.74899" lon="4.97819">
        <ele>361.57</ele>
        <time>2022-07-07T09:08:55Z</time>
      </trkpt>
      <trkpt lat="47.74903" lon="4.9782">
        <ele>361.73</ele>
        <time>2022-07-07T09:08:58Z</time>
      </trkpt>
      <trkpt lat="47.74905" lon="4.97821">
        <ele>361.79</ele>
        <time>2022-07-07T09:09:01Z</time>
      </trkpt>
      <trkpt lat="47.74908" lon="4.97822">
        <ele>361.91</ele>
        <time>2022-07-07T09:09:03Z</time>
      </trkpt>
      <trkpt lat="47.74911" lon="4.97824">
        <ele>362</ele>
        <time>2022-07-07T09:09:11Z</time>
      </trkpt>
      <trkpt lat="47.74912" lon="4.97828">
        <ele>361.89</ele>
        <time>2022-07-07T09:09:15Z</time>
      </trkpt>
      <trkpt lat="47.74911" lon="4.97831">
        <ele>361.69</ele>
        <time>2022-07-07T09:09:20Z</time>
      </trkpt>
      <trkpt lat="47.74911" lon="4.97836">
        <ele>361.19</ele>
        <time>2022-07-07T09:09:24Z</time>
      </trkpt>
      <trkpt lat="47.74912" lon="4.97841">
        <ele>360.47</ele>
        <time>2022-07-07T09:09:27Z</time>
      </trkpt>
      <trkpt lat="47.74912" lon="4.97845">
        <ele>359.85</ele>
        <time>2022-07-07T09:09:33Z</time>
      </trkpt>
      <trkpt lat="47.74909" lon="4.97846">
        <ele>359.67</ele>
        <time>2022-07-07T09:09:46Z</time>
      </trkpt>
      <trkpt lat="47.74909" lon="4.97851">
        <ele>358.97</ele>
        <time>2022-07-07T09:09:54Z</time>
      </trkpt>
      <trkpt lat="47.74908" lon="4.97854">
        <ele>358.58</ele>
        <time>2022-07-07T09:10:04Z</time>
      </trkpt>
      <trkpt lat="47.74908" lon="4.97848">
        <ele>359.39</ele>
        <time>2022-07-07T09:12:00Z</time>
      </trkpt>
    </trkseg>
  </trk>
</gpx>